<?xml version="1.0" encoding="UTF-8" standalone="no" ?>
<gpx xmlns="http://www.topografix.com/GPX/1/1" xmlns:xsi="http://www.w3.org/2001/XMLSchema-instance" xsi:schemaLocation="http://www.topografix.com/GPX/1/1 http://www.topografix.com/GPX/1/1/gpx.xsd" version="1.1" creator="VisuGPX - https://www.visugpx.com">
  <metadata>
    <name>Ballade entre Drôme et Isère &quot;Saint Antoine de L'abbaye&quot;</name>
    <desc><![CDATA[Magnifique ballade entre drôme et isère en partance de Saint Michel sur Savasse en passant par le fameux village Saint Antoine de L'abbaye, passage par le col de la Madeleine entre Forêt de Thivolet et Forêt de Chambaran. 
Un parcours de 27km, vallonné, avec des passages en balcon sur le Vercors et d'autres à travers les routes en forêt. 
Une ballade magnifique et accessible à tout le monde. 
500m de dénivelé à vélo quand meme et des descentes assez raides parfois mais énormément de plaisir, à faire et refaire sans modération]]></desc>
  </metadata>
  <trk>
    <name><![CDATA[20 juin 2017 18:56:59]]></name>
    <trkseg>
      <trkpt lat="45.14496" lon="5.12185">
        <ele>386.54</ele>
        <time>2017-06-20T16:57:01.000Z</time>
      </trkpt>
      <trkpt lat="45.14502" lon="5.12196">
        <ele>389.41</ele>
        <time>2017-06-20T16:57:25.000Z</time>
      </trkpt>
      <trkpt lat="45.14511" lon="5.12206">
        <ele>389.61</ele>
        <time>2017-06-20T16:57:30.000Z</time>
      </trkpt>
      <trkpt lat="45.14519" lon="5.12217">
        <ele>389.73</ele>
        <time>2017-06-20T16:57:33.000Z</time>
      </trkpt>
      <trkpt lat="45.14529" lon="5.12227">
        <ele>391.82</ele>
        <time>2017-06-20T16:57:36.000Z</time>
      </trkpt>
      <trkpt lat="45.14537" lon="5.12236">
        <ele>391.36</ele>
        <time>2017-06-20T16:57:38.000Z</time>
      </trkpt>
      <trkpt lat="45.14545" lon="5.12243">
        <ele>390.35</ele>
        <time>2017-06-20T16:57:40.000Z</time>
      </trkpt>
      <trkpt lat="45.14554" lon="5.12253">
        <ele>389.03</ele>
        <time>2017-06-20T16:57:42.000Z</time>
      </trkpt>
      <trkpt lat="45.14566" lon="5.12263">
        <ele>387.56</ele>
        <time>2017-06-20T16:57:44.000Z</time>
      </trkpt>
      <trkpt lat="45.14574" lon="5.12272">
        <ele>386.8</ele>
        <time>2017-06-20T16:57:46.000Z</time>
      </trkpt>
      <trkpt lat="45.14585" lon="5.12284">
        <ele>388.69</ele>
        <time>2017-06-20T16:57:49.000Z</time>
      </trkpt>
      <trkpt lat="45.14597" lon="5.12288">
        <ele>388.65</ele>
        <time>2017-06-20T16:57:51.000Z</time>
      </trkpt>
      <trkpt lat="45.14608" lon="5.12294">
        <ele>387.88</ele>
        <time>2017-06-20T16:57:53.000Z</time>
      </trkpt>
      <trkpt lat="45.14619" lon="5.12301">
        <ele>386.85</ele>
        <time>2017-06-20T16:57:55.000Z</time>
      </trkpt>
      <trkpt lat="45.1463" lon="5.1231">
        <ele>385.48</ele>
        <time>2017-06-20T16:57:57.000Z</time>
      </trkpt>
      <trkpt lat="45.14639" lon="5.12319">
        <ele>384.32</ele>
        <time>2017-06-20T16:57:59.000Z</time>
      </trkpt>
      <trkpt lat="45.14649" lon="5.12329">
        <ele>384.03</ele>
        <time>2017-06-20T16:58:01.000Z</time>
      </trkpt>
      <trkpt lat="45.1466" lon="5.12338">
        <ele>382.89</ele>
        <time>2017-06-20T16:58:03.000Z</time>
      </trkpt>
      <trkpt lat="45.14669" lon="5.12348">
        <ele>382.65</ele>
        <time>2017-06-20T16:58:05.000Z</time>
      </trkpt>
      <trkpt lat="45.14679" lon="5.12358">
        <ele>383.19</ele>
        <time>2017-06-20T16:58:07.000Z</time>
      </trkpt>
      <trkpt lat="45.14687" lon="5.12368">
        <ele>384.07</ele>
        <time>2017-06-20T16:58:09.000Z</time>
      </trkpt>
      <trkpt lat="45.14695" lon="5.12379">
        <ele>384.41</ele>
        <time>2017-06-20T16:58:11.000Z</time>
      </trkpt>
      <trkpt lat="45.14704" lon="5.1239">
        <ele>385</ele>
        <time>2017-06-20T16:58:13.000Z</time>
      </trkpt>
      <trkpt lat="45.14713" lon="5.124">
        <ele>385.77</ele>
        <time>2017-06-20T16:58:15.000Z</time>
      </trkpt>
      <trkpt lat="45.14722" lon="5.1241">
        <ele>386.6</ele>
        <time>2017-06-20T16:58:17.000Z</time>
      </trkpt>
      <trkpt lat="45.1473" lon="5.12419">
        <ele>387.64</ele>
        <time>2017-06-20T16:58:19.000Z</time>
      </trkpt>
      <trkpt lat="45.14738" lon="5.12429">
        <ele>387.6</ele>
        <time>2017-06-20T16:58:21.000Z</time>
      </trkpt>
      <trkpt lat="45.14748" lon="5.12442">
        <ele>389.07</ele>
        <time>2017-06-20T16:58:24.000Z</time>
      </trkpt>
      <trkpt lat="45.14756" lon="5.12451">
        <ele>389.99</ele>
        <time>2017-06-20T16:58:26.000Z</time>
      </trkpt>
      <trkpt lat="45.14764" lon="5.12461">
        <ele>391.08</ele>
        <time>2017-06-20T16:58:28.000Z</time>
      </trkpt>
      <trkpt lat="45.14776" lon="5.12476">
        <ele>392.18</ele>
        <time>2017-06-20T16:58:31.000Z</time>
      </trkpt>
      <trkpt lat="45.14785" lon="5.12486">
        <ele>391.77</ele>
        <time>2017-06-20T16:58:33.000Z</time>
      </trkpt>
      <trkpt lat="45.14793" lon="5.12497">
        <ele>390.43</ele>
        <time>2017-06-20T16:58:35.000Z</time>
      </trkpt>
      <trkpt lat="45.14802" lon="5.12507">
        <ele>389.49</ele>
        <time>2017-06-20T16:58:37.000Z</time>
      </trkpt>
      <trkpt lat="45.14809" lon="5.12517">
        <ele>389.37</ele>
        <time>2017-06-20T16:58:39.000Z</time>
      </trkpt>
      <trkpt lat="45.14816" lon="5.12528">
        <ele>389.04</ele>
        <time>2017-06-20T16:58:41.000Z</time>
      </trkpt>
      <trkpt lat="45.14824" lon="5.12541">
        <ele>388.88</ele>
        <time>2017-06-20T16:58:43.000Z</time>
      </trkpt>
      <trkpt lat="45.1483" lon="5.12551">
        <ele>389.29</ele>
        <time>2017-06-20T16:58:45.000Z</time>
      </trkpt>
      <trkpt lat="45.14835" lon="5.12564">
        <ele>389.85</ele>
        <time>2017-06-20T16:58:47.000Z</time>
      </trkpt>
      <trkpt lat="45.14842" lon="5.12576">
        <ele>390.34</ele>
        <time>2017-06-20T16:58:49.000Z</time>
      </trkpt>
      <trkpt lat="45.14848" lon="5.12589">
        <ele>390.4</ele>
        <time>2017-06-20T16:58:51.000Z</time>
      </trkpt>
      <trkpt lat="45.14854" lon="5.126">
        <ele>390.31</ele>
        <time>2017-06-20T16:58:53.000Z</time>
      </trkpt>
      <trkpt lat="45.14862" lon="5.12616">
        <ele>390.56</ele>
        <time>2017-06-20T16:58:56.000Z</time>
      </trkpt>
      <trkpt lat="45.14869" lon="5.12632">
        <ele>391.16</ele>
        <time>2017-06-20T16:58:59.000Z</time>
      </trkpt>
      <trkpt lat="45.14875" lon="5.12643">
        <ele>391.78</ele>
        <time>2017-06-20T16:59:01.000Z</time>
      </trkpt>
      <trkpt lat="45.1488" lon="5.12655">
        <ele>392.03</ele>
        <time>2017-06-20T16:59:03.000Z</time>
      </trkpt>
      <trkpt lat="45.14886" lon="5.12666">
        <ele>392.21</ele>
        <time>2017-06-20T16:59:05.000Z</time>
      </trkpt>
      <trkpt lat="45.14892" lon="5.12677">
        <ele>392.42</ele>
        <time>2017-06-20T16:59:07.000Z</time>
      </trkpt>
      <trkpt lat="45.14898" lon="5.12688">
        <ele>392.7</ele>
        <time>2017-06-20T16:59:09.000Z</time>
      </trkpt>
      <trkpt lat="45.14905" lon="5.12704">
        <ele>393.36</ele>
        <time>2017-06-20T16:59:12.000Z</time>
      </trkpt>
      <trkpt lat="45.1491" lon="5.12716">
        <ele>393.81</ele>
        <time>2017-06-20T16:59:14.000Z</time>
      </trkpt>
      <trkpt lat="45.14916" lon="5.12727">
        <ele>394.07</ele>
        <time>2017-06-20T16:59:16.000Z</time>
      </trkpt>
      <trkpt lat="45.14922" lon="5.12738">
        <ele>394.44</ele>
        <time>2017-06-20T16:59:18.000Z</time>
      </trkpt>
      <trkpt lat="45.14929" lon="5.12752">
        <ele>395.21</ele>
        <time>2017-06-20T16:59:21.000Z</time>
      </trkpt>
      <trkpt lat="45.14936" lon="5.12767">
        <ele>396.19</ele>
        <time>2017-06-20T16:59:24.000Z</time>
      </trkpt>
      <trkpt lat="45.14942" lon="5.12778">
        <ele>396.36</ele>
        <time>2017-06-20T16:59:26.000Z</time>
      </trkpt>
      <trkpt lat="45.14949" lon="5.12792">
        <ele>398.31</ele>
        <time>2017-06-20T16:59:29.000Z</time>
      </trkpt>
      <trkpt lat="45.14955" lon="5.12805">
        <ele>400</ele>
        <time>2017-06-20T16:59:32.000Z</time>
      </trkpt>
      <trkpt lat="45.14963" lon="5.12819">
        <ele>400.37</ele>
        <time>2017-06-20T16:59:35.000Z</time>
      </trkpt>
      <trkpt lat="45.14969" lon="5.12831">
        <ele>399.78</ele>
        <time>2017-06-20T16:59:37.000Z</time>
      </trkpt>
      <trkpt lat="45.14977" lon="5.12845">
        <ele>399.74</ele>
        <time>2017-06-20T16:59:40.000Z</time>
      </trkpt>
      <trkpt lat="45.14985" lon="5.1286">
        <ele>400.71</ele>
        <time>2017-06-20T16:59:43.000Z</time>
      </trkpt>
      <trkpt lat="45.14992" lon="5.12875">
        <ele>402.91</ele>
        <time>2017-06-20T16:59:46.000Z</time>
      </trkpt>
      <trkpt lat="45.14998" lon="5.1289">
        <ele>404.2</ele>
        <time>2017-06-20T16:59:49.000Z</time>
      </trkpt>
      <trkpt lat="45.15006" lon="5.12905">
        <ele>405.01</ele>
        <time>2017-06-20T16:59:52.000Z</time>
      </trkpt>
      <trkpt lat="45.15012" lon="5.12914">
        <ele>405.16</ele>
        <time>2017-06-20T16:59:54.000Z</time>
      </trkpt>
      <trkpt lat="45.1502" lon="5.12929">
        <ele>405.7</ele>
        <time>2017-06-20T16:59:57.000Z</time>
      </trkpt>
      <trkpt lat="45.15027" lon="5.12943">
        <ele>406.8</ele>
        <time>2017-06-20T17:00:00.000Z</time>
      </trkpt>
      <trkpt lat="45.15036" lon="5.12958">
        <ele>406.78</ele>
        <time>2017-06-20T17:00:03.000Z</time>
      </trkpt>
      <trkpt lat="45.15042" lon="5.12971">
        <ele>405.96</ele>
        <time>2017-06-20T17:00:05.000Z</time>
      </trkpt>
      <trkpt lat="45.15047" lon="5.12981">
        <ele>404.94</ele>
        <time>2017-06-20T17:00:07.000Z</time>
      </trkpt>
      <trkpt lat="45.15054" lon="5.12997">
        <ele>404.3</ele>
        <time>2017-06-20T17:00:10.000Z</time>
      </trkpt>
      <trkpt lat="45.15059" lon="5.13008">
        <ele>404.56</ele>
        <time>2017-06-20T17:00:12.000Z</time>
      </trkpt>
      <trkpt lat="45.15064" lon="5.13019">
        <ele>405.21</ele>
        <time>2017-06-20T17:00:14.000Z</time>
      </trkpt>
      <trkpt lat="45.15069" lon="5.13029">
        <ele>405.97</ele>
        <time>2017-06-20T17:00:16.000Z</time>
      </trkpt>
      <trkpt lat="45.15076" lon="5.13044">
        <ele>406.57</ele>
        <time>2017-06-20T17:00:19.000Z</time>
      </trkpt>
      <trkpt lat="45.15083" lon="5.13056">
        <ele>406.31</ele>
        <time>2017-06-20T17:00:21.000Z</time>
      </trkpt>
      <trkpt lat="45.1509" lon="5.1307">
        <ele>406.49</ele>
        <time>2017-06-20T17:00:24.000Z</time>
      </trkpt>
      <trkpt lat="45.15097" lon="5.13083">
        <ele>406.4</ele>
        <time>2017-06-20T17:00:26.000Z</time>
      </trkpt>
      <trkpt lat="45.15104" lon="5.13095">
        <ele>405.91</ele>
        <time>2017-06-20T17:00:28.000Z</time>
      </trkpt>
      <trkpt lat="45.1511" lon="5.13107">
        <ele>405.53</ele>
        <time>2017-06-20T17:00:30.000Z</time>
      </trkpt>
      <trkpt lat="45.15116" lon="5.13119">
        <ele>405.07</ele>
        <time>2017-06-20T17:00:32.000Z</time>
      </trkpt>
      <trkpt lat="45.15122" lon="5.13131">
        <ele>404.56</ele>
        <time>2017-06-20T17:00:34.000Z</time>
      </trkpt>
      <trkpt lat="45.15129" lon="5.13144">
        <ele>404.15</ele>
        <time>2017-06-20T17:00:36.000Z</time>
      </trkpt>
      <trkpt lat="45.15134" lon="5.13156">
        <ele>404.16</ele>
        <time>2017-06-20T17:00:38.000Z</time>
      </trkpt>
      <trkpt lat="45.15141" lon="5.13168">
        <ele>404.29</ele>
        <time>2017-06-20T17:00:40.000Z</time>
      </trkpt>
      <trkpt lat="45.15147" lon="5.13179">
        <ele>404.92</ele>
        <time>2017-06-20T17:00:42.000Z</time>
      </trkpt>
      <trkpt lat="45.15153" lon="5.13192">
        <ele>405.52</ele>
        <time>2017-06-20T17:00:44.000Z</time>
      </trkpt>
      <trkpt lat="45.15159" lon="5.13205">
        <ele>405.57</ele>
        <time>2017-06-20T17:00:46.000Z</time>
      </trkpt>
      <trkpt lat="45.15165" lon="5.13217">
        <ele>405.8</ele>
        <time>2017-06-20T17:00:48.000Z</time>
      </trkpt>
      <trkpt lat="45.15171" lon="5.1323">
        <ele>406.21</ele>
        <time>2017-06-20T17:00:50.000Z</time>
      </trkpt>
      <trkpt lat="45.15177" lon="5.13242">
        <ele>406.16</ele>
        <time>2017-06-20T17:00:52.000Z</time>
      </trkpt>
      <trkpt lat="45.15184" lon="5.13255">
        <ele>405.54</ele>
        <time>2017-06-20T17:00:54.000Z</time>
      </trkpt>
      <trkpt lat="45.1519" lon="5.13266">
        <ele>404.7</ele>
        <time>2017-06-20T17:00:56.000Z</time>
      </trkpt>
      <trkpt lat="45.15197" lon="5.13278">
        <ele>403.85</ele>
        <time>2017-06-20T17:00:58.000Z</time>
      </trkpt>
      <trkpt lat="45.15203" lon="5.1329">
        <ele>403.52</ele>
        <time>2017-06-20T17:01:00.000Z</time>
      </trkpt>
      <trkpt lat="45.15209" lon="5.13302">
        <ele>403.57</ele>
        <time>2017-06-20T17:01:02.000Z</time>
      </trkpt>
      <trkpt lat="45.15214" lon="5.13314">
        <ele>403.76</ele>
        <time>2017-06-20T17:01:04.000Z</time>
      </trkpt>
      <trkpt lat="45.15221" lon="5.1333">
        <ele>405.33</ele>
        <time>2017-06-20T17:01:07.000Z</time>
      </trkpt>
      <trkpt lat="45.15227" lon="5.1334">
        <ele>406.17</ele>
        <time>2017-06-20T17:01:09.000Z</time>
      </trkpt>
      <trkpt lat="45.15234" lon="5.13355">
        <ele>407.47</ele>
        <time>2017-06-20T17:01:12.000Z</time>
      </trkpt>
      <trkpt lat="45.15242" lon="5.13369">
        <ele>408.24</ele>
        <time>2017-06-20T17:01:15.000Z</time>
      </trkpt>
      <trkpt lat="45.1525" lon="5.13384">
        <ele>408.41</ele>
        <time>2017-06-20T17:01:18.000Z</time>
      </trkpt>
      <trkpt lat="45.15258" lon="5.13399">
        <ele>407.72</ele>
        <time>2017-06-20T17:01:21.000Z</time>
      </trkpt>
      <trkpt lat="45.15266" lon="5.13413">
        <ele>407.17</ele>
        <time>2017-06-20T17:01:24.000Z</time>
      </trkpt>
      <trkpt lat="45.15273" lon="5.13427">
        <ele>408.02</ele>
        <time>2017-06-20T17:01:27.000Z</time>
      </trkpt>
      <trkpt lat="45.1528" lon="5.13442">
        <ele>409.29</ele>
        <time>2017-06-20T17:01:30.000Z</time>
      </trkpt>
      <trkpt lat="45.15288" lon="5.13457">
        <ele>409.54</ele>
        <time>2017-06-20T17:01:33.000Z</time>
      </trkpt>
      <trkpt lat="45.15295" lon="5.13474">
        <ele>410.17</ele>
        <time>2017-06-20T17:01:36.000Z</time>
      </trkpt>
      <trkpt lat="45.153" lon="5.13485">
        <ele>410.55</ele>
        <time>2017-06-20T17:01:38.000Z</time>
      </trkpt>
      <trkpt lat="45.15306" lon="5.135">
        <ele>410.96</ele>
        <time>2017-06-20T17:01:41.000Z</time>
      </trkpt>
      <trkpt lat="45.15311" lon="5.13515">
        <ele>410.88</ele>
        <time>2017-06-20T17:01:44.000Z</time>
      </trkpt>
      <trkpt lat="45.15316" lon="5.1353">
        <ele>410.46</ele>
        <time>2017-06-20T17:01:47.000Z</time>
      </trkpt>
      <trkpt lat="45.15321" lon="5.13544">
        <ele>411.13</ele>
        <time>2017-06-20T17:01:50.000Z</time>
      </trkpt>
      <trkpt lat="45.15324" lon="5.13563">
        <ele>412.37</ele>
        <time>2017-06-20T17:01:53.000Z</time>
      </trkpt>
      <trkpt lat="45.15329" lon="5.13579">
        <ele>411.85</ele>
        <time>2017-06-20T17:01:56.000Z</time>
      </trkpt>
      <trkpt lat="45.15332" lon="5.13591">
        <ele>411.45</ele>
        <time>2017-06-20T17:01:58.000Z</time>
      </trkpt>
      <trkpt lat="45.15336" lon="5.13608">
        <ele>412.2</ele>
        <time>2017-06-20T17:02:01.000Z</time>
      </trkpt>
      <trkpt lat="45.15339" lon="5.13624">
        <ele>413.11</ele>
        <time>2017-06-20T17:02:04.000Z</time>
      </trkpt>
      <trkpt lat="45.15343" lon="5.13642">
        <ele>413.82</ele>
        <time>2017-06-20T17:02:07.000Z</time>
      </trkpt>
      <trkpt lat="45.15345" lon="5.13657">
        <ele>414.2</ele>
        <time>2017-06-20T17:02:10.000Z</time>
      </trkpt>
      <trkpt lat="45.15349" lon="5.13672">
        <ele>415.57</ele>
        <time>2017-06-20T17:02:13.000Z</time>
      </trkpt>
      <trkpt lat="45.15352" lon="5.13687">
        <ele>415.6</ele>
        <time>2017-06-20T17:02:16.000Z</time>
      </trkpt>
      <trkpt lat="45.15354" lon="5.13701">
        <ele>415.73</ele>
        <time>2017-06-20T17:02:18.000Z</time>
      </trkpt>
      <trkpt lat="45.15356" lon="5.13714">
        <ele>416.32</ele>
        <time>2017-06-20T17:02:20.000Z</time>
      </trkpt>
      <trkpt lat="45.15358" lon="5.1373">
        <ele>416.11</ele>
        <time>2017-06-20T17:02:23.000Z</time>
      </trkpt>
      <trkpt lat="45.1536" lon="5.13745">
        <ele>415.71</ele>
        <time>2017-06-20T17:02:26.000Z</time>
      </trkpt>
      <trkpt lat="45.15362" lon="5.13762">
        <ele>416.64</ele>
        <time>2017-06-20T17:02:29.000Z</time>
      </trkpt>
      <trkpt lat="45.15364" lon="5.13779">
        <ele>417.91</ele>
        <time>2017-06-20T17:02:32.000Z</time>
      </trkpt>
      <trkpt lat="45.15366" lon="5.13795">
        <ele>418.58</ele>
        <time>2017-06-20T17:02:35.000Z</time>
      </trkpt>
      <trkpt lat="45.15369" lon="5.13809">
        <ele>418.29</ele>
        <time>2017-06-20T17:02:37.000Z</time>
      </trkpt>
      <trkpt lat="45.15371" lon="5.13826">
        <ele>418.12</ele>
        <time>2017-06-20T17:02:40.000Z</time>
      </trkpt>
      <trkpt lat="45.15373" lon="5.13841">
        <ele>418.17</ele>
        <time>2017-06-20T17:02:43.000Z</time>
      </trkpt>
      <trkpt lat="45.15376" lon="5.13857">
        <ele>417.96</ele>
        <time>2017-06-20T17:02:46.000Z</time>
      </trkpt>
      <trkpt lat="45.15378" lon="5.13871">
        <ele>418.62</ele>
        <time>2017-06-20T17:02:48.000Z</time>
      </trkpt>
      <trkpt lat="45.15381" lon="5.13884">
        <ele>419.28</ele>
        <time>2017-06-20T17:02:50.000Z</time>
      </trkpt>
      <trkpt lat="45.15382" lon="5.13903">
        <ele>420.36</ele>
        <time>2017-06-20T17:02:53.000Z</time>
      </trkpt>
      <trkpt lat="45.15385" lon="5.13915">
        <ele>421.8</ele>
        <time>2017-06-20T17:02:55.000Z</time>
      </trkpt>
      <trkpt lat="45.15386" lon="5.13928">
        <ele>423.25</ele>
        <time>2017-06-20T17:02:57.000Z</time>
      </trkpt>
      <trkpt lat="45.15389" lon="5.13946">
        <ele>424.02</ele>
        <time>2017-06-20T17:03:00.000Z</time>
      </trkpt>
      <trkpt lat="45.1539" lon="5.13959">
        <ele>423.88</ele>
        <time>2017-06-20T17:03:02.000Z</time>
      </trkpt>
      <trkpt lat="45.15392" lon="5.13972">
        <ele>424.48</ele>
        <time>2017-06-20T17:03:04.000Z</time>
      </trkpt>
      <trkpt lat="45.15395" lon="5.13986">
        <ele>423.92</ele>
        <time>2017-06-20T17:03:06.000Z</time>
      </trkpt>
      <trkpt lat="45.15398" lon="5.14002">
        <ele>422.73</ele>
        <time>2017-06-20T17:03:09.000Z</time>
      </trkpt>
      <trkpt lat="45.15402" lon="5.1402">
        <ele>422.78</ele>
        <time>2017-06-20T17:03:12.000Z</time>
      </trkpt>
      <trkpt lat="45.15404" lon="5.14032">
        <ele>422.28</ele>
        <time>2017-06-20T17:03:14.000Z</time>
      </trkpt>
      <trkpt lat="45.15406" lon="5.14051">
        <ele>421.76</ele>
        <time>2017-06-20T17:03:17.000Z</time>
      </trkpt>
      <trkpt lat="45.15406" lon="5.14069">
        <ele>421.91</ele>
        <time>2017-06-20T17:03:20.000Z</time>
      </trkpt>
      <trkpt lat="45.15405" lon="5.14087">
        <ele>422.61</ele>
        <time>2017-06-20T17:03:23.000Z</time>
      </trkpt>
      <trkpt lat="45.15402" lon="5.14099">
        <ele>422.36</ele>
        <time>2017-06-20T17:03:25.000Z</time>
      </trkpt>
      <trkpt lat="45.15397" lon="5.14111">
        <ele>422.16</ele>
        <time>2017-06-20T17:03:27.000Z</time>
      </trkpt>
      <trkpt lat="45.15392" lon="5.14123">
        <ele>421.75</ele>
        <time>2017-06-20T17:03:29.000Z</time>
      </trkpt>
      <trkpt lat="45.15387" lon="5.14134">
        <ele>421.46</ele>
        <time>2017-06-20T17:03:31.000Z</time>
      </trkpt>
      <trkpt lat="45.15379" lon="5.14149">
        <ele>421.06</ele>
        <time>2017-06-20T17:03:34.000Z</time>
      </trkpt>
      <trkpt lat="45.15373" lon="5.14164">
        <ele>420.81</ele>
        <time>2017-06-20T17:03:37.000Z</time>
      </trkpt>
      <trkpt lat="45.15366" lon="5.14179">
        <ele>421.66</ele>
        <time>2017-06-20T17:03:40.000Z</time>
      </trkpt>
      <trkpt lat="45.15361" lon="5.14194">
        <ele>423.33</ele>
        <time>2017-06-20T17:03:43.000Z</time>
      </trkpt>
      <trkpt lat="45.15358" lon="5.1421">
        <ele>424.62</ele>
        <time>2017-06-20T17:03:46.000Z</time>
      </trkpt>
      <trkpt lat="45.15354" lon="5.14228">
        <ele>425.52</ele>
        <time>2017-06-20T17:03:49.000Z</time>
      </trkpt>
      <trkpt lat="45.15351" lon="5.14243">
        <ele>427.56</ele>
        <time>2017-06-20T17:03:52.000Z</time>
      </trkpt>
      <trkpt lat="45.15347" lon="5.14259">
        <ele>429.19</ele>
        <time>2017-06-20T17:03:55.000Z</time>
      </trkpt>
      <trkpt lat="45.15345" lon="5.14276">
        <ele>428.67</ele>
        <time>2017-06-20T17:03:58.000Z</time>
      </trkpt>
      <trkpt lat="45.15343" lon="5.14292">
        <ele>427.61</ele>
        <time>2017-06-20T17:04:01.000Z</time>
      </trkpt>
      <trkpt lat="45.1534" lon="5.14307">
        <ele>427.61</ele>
        <time>2017-06-20T17:04:04.000Z</time>
      </trkpt>
      <trkpt lat="45.15337" lon="5.14321">
        <ele>428.89</ele>
        <time>2017-06-20T17:04:07.000Z</time>
      </trkpt>
      <trkpt lat="45.15334" lon="5.14337">
        <ele>429.12</ele>
        <time>2017-06-20T17:04:10.000Z</time>
      </trkpt>
      <trkpt lat="45.15332" lon="5.14353">
        <ele>429.34</ele>
        <time>2017-06-20T17:04:13.000Z</time>
      </trkpt>
      <trkpt lat="45.15329" lon="5.14369">
        <ele>429.59</ele>
        <time>2017-06-20T17:04:16.000Z</time>
      </trkpt>
      <trkpt lat="45.15326" lon="5.14382">
        <ele>429.61</ele>
        <time>2017-06-20T17:04:19.000Z</time>
      </trkpt>
      <trkpt lat="45.15322" lon="5.14398">
        <ele>429.43</ele>
        <time>2017-06-20T17:04:22.000Z</time>
      </trkpt>
      <trkpt lat="45.15318" lon="5.14414">
        <ele>429.28</ele>
        <time>2017-06-20T17:04:26.000Z</time>
      </trkpt>
      <trkpt lat="45.15316" lon="5.14427">
        <ele>429.29</ele>
        <time>2017-06-20T17:04:29.000Z</time>
      </trkpt>
      <trkpt lat="45.15315" lon="5.14441">
        <ele>429.44</ele>
        <time>2017-06-20T17:04:32.000Z</time>
      </trkpt>
      <trkpt lat="45.15315" lon="5.14455">
        <ele>429.61</ele>
        <time>2017-06-20T17:04:35.000Z</time>
      </trkpt>
      <trkpt lat="45.15316" lon="5.1447">
        <ele>429.82</ele>
        <time>2017-06-20T17:04:38.000Z</time>
      </trkpt>
      <trkpt lat="45.15318" lon="5.14485">
        <ele>429.95</ele>
        <time>2017-06-20T17:04:41.000Z</time>
      </trkpt>
      <trkpt lat="45.15322" lon="5.14501">
        <ele>430</ele>
        <time>2017-06-20T17:04:44.000Z</time>
      </trkpt>
      <trkpt lat="45.15325" lon="5.14513">
        <ele>430.17</ele>
        <time>2017-06-20T17:04:47.000Z</time>
      </trkpt>
      <trkpt lat="45.15329" lon="5.1453">
        <ele>432.05</ele>
        <time>2017-06-20T17:04:51.000Z</time>
      </trkpt>
      <trkpt lat="45.15333" lon="5.14547">
        <ele>432.41</ele>
        <time>2017-06-20T17:04:54.000Z</time>
      </trkpt>
      <trkpt lat="45.15335" lon="5.14561">
        <ele>432.57</ele>
        <time>2017-06-20T17:04:57.000Z</time>
      </trkpt>
      <trkpt lat="45.15338" lon="5.14576">
        <ele>432.7</ele>
        <time>2017-06-20T17:05:00.000Z</time>
      </trkpt>
      <trkpt lat="45.15342" lon="5.14592">
        <ele>433.09</ele>
        <time>2017-06-20T17:05:04.000Z</time>
      </trkpt>
      <trkpt lat="45.15345" lon="5.14606">
        <ele>433.3</ele>
        <time>2017-06-20T17:05:07.000Z</time>
      </trkpt>
      <trkpt lat="45.15348" lon="5.1462">
        <ele>433.57</ele>
        <time>2017-06-20T17:05:10.000Z</time>
      </trkpt>
      <trkpt lat="45.15351" lon="5.14634">
        <ele>433.81</ele>
        <time>2017-06-20T17:05:13.000Z</time>
      </trkpt>
      <trkpt lat="45.15353" lon="5.1465">
        <ele>434.3</ele>
        <time>2017-06-20T17:05:17.000Z</time>
      </trkpt>
      <trkpt lat="45.15358" lon="5.14666">
        <ele>434.93</ele>
        <time>2017-06-20T17:05:21.000Z</time>
      </trkpt>
      <trkpt lat="45.15361" lon="5.14678">
        <ele>435.33</ele>
        <time>2017-06-20T17:05:24.000Z</time>
      </trkpt>
      <trkpt lat="45.15365" lon="5.14692">
        <ele>435.85</ele>
        <time>2017-06-20T17:05:27.000Z</time>
      </trkpt>
      <trkpt lat="45.1537" lon="5.14706">
        <ele>436.18</ele>
        <time>2017-06-20T17:05:30.000Z</time>
      </trkpt>
      <trkpt lat="45.15375" lon="5.14718">
        <ele>436.85</ele>
        <time>2017-06-20T17:05:34.000Z</time>
      </trkpt>
      <trkpt lat="45.15381" lon="5.1473">
        <ele>437.68</ele>
        <time>2017-06-20T17:05:38.000Z</time>
      </trkpt>
      <trkpt lat="45.15389" lon="5.14742">
        <ele>438.42</ele>
        <time>2017-06-20T17:05:42.000Z</time>
      </trkpt>
      <trkpt lat="45.15393" lon="5.14754">
        <ele>438.98</ele>
        <time>2017-06-20T17:05:45.000Z</time>
      </trkpt>
      <trkpt lat="45.154" lon="5.14768">
        <ele>439.81</ele>
        <time>2017-06-20T17:05:49.000Z</time>
      </trkpt>
      <trkpt lat="45.15406" lon="5.1478">
        <ele>440.67</ele>
        <time>2017-06-20T17:05:53.000Z</time>
      </trkpt>
      <trkpt lat="45.15412" lon="5.14794">
        <ele>441.56</ele>
        <time>2017-06-20T17:05:57.000Z</time>
      </trkpt>
      <trkpt lat="45.15416" lon="5.14805">
        <ele>442.23</ele>
        <time>2017-06-20T17:05:59.999Z</time>
      </trkpt>
      <trkpt lat="45.15421" lon="5.14818">
        <ele>442.73</ele>
        <time>2017-06-20T17:06:02.999Z</time>
      </trkpt>
      <trkpt lat="45.15426" lon="5.14831">
        <ele>443.61</ele>
        <time>2017-06-20T17:06:06.999Z</time>
      </trkpt>
      <trkpt lat="45.1543" lon="5.14843">
        <ele>444.33</ele>
        <time>2017-06-20T17:06:09.999Z</time>
      </trkpt>
      <trkpt lat="45.15436" lon="5.14855">
        <ele>444.81</ele>
        <time>2017-06-20T17:06:12.999Z</time>
      </trkpt>
      <trkpt lat="45.15441" lon="5.14868">
        <ele>445.22</ele>
        <time>2017-06-20T17:06:15.999Z</time>
      </trkpt>
      <trkpt lat="45.15446" lon="5.14881">
        <ele>445.38</ele>
        <time>2017-06-20T17:06:18.999Z</time>
      </trkpt>
      <trkpt lat="45.15446" lon="5.14896">
        <ele>445.54</ele>
        <time>2017-06-20T17:06:21.999Z</time>
      </trkpt>
      <trkpt lat="45.15448" lon="5.14912">
        <ele>445.89</ele>
        <time>2017-06-20T17:06:25.999Z</time>
      </trkpt>
      <trkpt lat="45.1545" lon="5.14925">
        <ele>446.09</ele>
        <time>2017-06-20T17:06:28.999Z</time>
      </trkpt>
      <trkpt lat="45.15452" lon="5.1494">
        <ele>446.4</ele>
        <time>2017-06-20T17:06:31.999Z</time>
      </trkpt>
      <trkpt lat="45.15458" lon="5.14955">
        <ele>450.04</ele>
        <time>2017-06-20T17:06:34.999Z</time>
      </trkpt>
      <trkpt lat="45.15464" lon="5.14965">
        <ele>451.44</ele>
        <time>2017-06-20T17:06:36.999Z</time>
      </trkpt>
      <trkpt lat="45.15474" lon="5.14979">
        <ele>453.13</ele>
        <time>2017-06-20T17:06:39.999Z</time>
      </trkpt>
      <trkpt lat="45.15482" lon="5.14988">
        <ele>452.84</ele>
        <time>2017-06-20T17:06:41.999Z</time>
      </trkpt>
      <trkpt lat="45.15493" lon="5.14997">
        <ele>452.42</ele>
        <time>2017-06-20T17:06:44.999Z</time>
      </trkpt>
      <trkpt lat="45.15502" lon="5.15005">
        <ele>453.54</ele>
        <time>2017-06-20T17:06:46.999Z</time>
      </trkpt>
      <trkpt lat="45.15509" lon="5.15017">
        <ele>454.57</ele>
        <time>2017-06-20T17:06:48.999Z</time>
      </trkpt>
      <trkpt lat="45.15514" lon="5.15029">
        <ele>455.58</ele>
        <time>2017-06-20T17:06:50.999Z</time>
      </trkpt>
      <trkpt lat="45.15521" lon="5.15044">
        <ele>456.36</ele>
        <time>2017-06-20T17:06:53.999Z</time>
      </trkpt>
      <trkpt lat="45.15525" lon="5.15058">
        <ele>456.69</ele>
        <time>2017-06-20T17:06:56.999Z</time>
      </trkpt>
      <trkpt lat="45.15528" lon="5.1507">
        <ele>457.54</ele>
        <time>2017-06-20T17:06:58.999Z</time>
      </trkpt>
      <trkpt lat="45.15531" lon="5.15082">
        <ele>457.58</ele>
        <time>2017-06-20T17:07:00.999Z</time>
      </trkpt>
      <trkpt lat="45.15535" lon="5.15098">
        <ele>457.47</ele>
        <time>2017-06-20T17:07:03.999Z</time>
      </trkpt>
      <trkpt lat="45.1554" lon="5.15114">
        <ele>456.67</ele>
        <time>2017-06-20T17:07:06.999Z</time>
      </trkpt>
      <trkpt lat="45.15546" lon="5.15128">
        <ele>456.39</ele>
        <time>2017-06-20T17:07:09.999Z</time>
      </trkpt>
      <trkpt lat="45.15553" lon="5.15139">
        <ele>454.55</ele>
        <time>2017-06-20T17:07:12.999Z</time>
      </trkpt>
      <trkpt lat="45.1556" lon="5.15151">
        <ele>454.47</ele>
        <time>2017-06-20T17:07:15.999Z</time>
      </trkpt>
      <trkpt lat="45.15568" lon="5.15164">
        <ele>455.01</ele>
        <time>2017-06-20T17:07:18.999Z</time>
      </trkpt>
      <trkpt lat="45.15575" lon="5.15177">
        <ele>456.42</ele>
        <time>2017-06-20T17:07:21.999Z</time>
      </trkpt>
      <trkpt lat="45.1558" lon="5.15191">
        <ele>457.69</ele>
        <time>2017-06-20T17:07:24.999Z</time>
      </trkpt>
      <trkpt lat="45.15586" lon="5.15207">
        <ele>458.39</ele>
        <time>2017-06-20T17:07:27.999Z</time>
      </trkpt>
      <trkpt lat="45.1559" lon="5.1522">
        <ele>459.53</ele>
        <time>2017-06-20T17:07:30.999Z</time>
      </trkpt>
      <trkpt lat="45.15595" lon="5.15234">
        <ele>459.58</ele>
        <time>2017-06-20T17:07:33.999Z</time>
      </trkpt>
      <trkpt lat="45.156" lon="5.15247">
        <ele>459.66</ele>
        <time>2017-06-20T17:07:36.999Z</time>
      </trkpt>
      <trkpt lat="45.15606" lon="5.15259">
        <ele>459.72</ele>
        <time>2017-06-20T17:07:39.999Z</time>
      </trkpt>
      <trkpt lat="45.15614" lon="5.1527">
        <ele>459.75</ele>
        <time>2017-06-20T17:07:42.999Z</time>
      </trkpt>
      <trkpt lat="45.15622" lon="5.15279">
        <ele>459.42</ele>
        <time>2017-06-20T17:07:45.999Z</time>
      </trkpt>
      <trkpt lat="45.15629" lon="5.15292">
        <ele>460.48</ele>
        <time>2017-06-20T17:07:48.999Z</time>
      </trkpt>
      <trkpt lat="45.15633" lon="5.1531">
        <ele>460.47</ele>
        <time>2017-06-20T17:07:51.999Z</time>
      </trkpt>
      <trkpt lat="45.15636" lon="5.15325">
        <ele>460.55</ele>
        <time>2017-06-20T17:07:54.999Z</time>
      </trkpt>
      <trkpt lat="45.15639" lon="5.15341">
        <ele>460.96</ele>
        <time>2017-06-20T17:07:57.999Z</time>
      </trkpt>
      <trkpt lat="45.15643" lon="5.15358">
        <ele>461.39</ele>
        <time>2017-06-20T17:08:00.999Z</time>
      </trkpt>
      <trkpt lat="45.15646" lon="5.15372">
        <ele>461.79</ele>
        <time>2017-06-20T17:08:03.999Z</time>
      </trkpt>
      <trkpt lat="45.15648" lon="5.15389">
        <ele>462.54</ele>
        <time>2017-06-20T17:08:06.999Z</time>
      </trkpt>
      <trkpt lat="45.15651" lon="5.15406">
        <ele>464.32</ele>
        <time>2017-06-20T17:08:09.999Z</time>
      </trkpt>
      <trkpt lat="45.15653" lon="5.15421">
        <ele>464.44</ele>
        <time>2017-06-20T17:08:12.999Z</time>
      </trkpt>
      <trkpt lat="45.15656" lon="5.15437">
        <ele>463.21</ele>
        <time>2017-06-20T17:08:15.999Z</time>
      </trkpt>
      <trkpt lat="45.15658" lon="5.15452">
        <ele>463.28</ele>
        <time>2017-06-20T17:08:18.999Z</time>
      </trkpt>
      <trkpt lat="45.15659" lon="5.15468">
        <ele>463.36</ele>
        <time>2017-06-20T17:08:21.999Z</time>
      </trkpt>
      <trkpt lat="45.1566" lon="5.15484">
        <ele>463.38</ele>
        <time>2017-06-20T17:08:24.999Z</time>
      </trkpt>
      <trkpt lat="45.15659" lon="5.15499">
        <ele>463.27</ele>
        <time>2017-06-20T17:08:27.999Z</time>
      </trkpt>
      <trkpt lat="45.15659" lon="5.15514">
        <ele>463.35</ele>
        <time>2017-06-20T17:08:30.999Z</time>
      </trkpt>
      <trkpt lat="45.15659" lon="5.15529">
        <ele>463.49</ele>
        <time>2017-06-20T17:08:33.999Z</time>
      </trkpt>
      <trkpt lat="45.15659" lon="5.15544">
        <ele>463.65</ele>
        <time>2017-06-20T17:08:36.999Z</time>
      </trkpt>
      <trkpt lat="45.15658" lon="5.15561">
        <ele>463.72</ele>
        <time>2017-06-20T17:08:39.999Z</time>
      </trkpt>
      <trkpt lat="45.15659" lon="5.15576">
        <ele>464.08</ele>
        <time>2017-06-20T17:08:42.999Z</time>
      </trkpt>
      <trkpt lat="45.15661" lon="5.15592">
        <ele>464.16</ele>
        <time>2017-06-20T17:08:45.999Z</time>
      </trkpt>
      <trkpt lat="45.15663" lon="5.15608">
        <ele>465.42</ele>
        <time>2017-06-20T17:08:48.999Z</time>
      </trkpt>
      <trkpt lat="45.15665" lon="5.15624">
        <ele>466.3</ele>
        <time>2017-06-20T17:08:51.999Z</time>
      </trkpt>
      <trkpt lat="45.15667" lon="5.15638">
        <ele>467.1</ele>
        <time>2017-06-20T17:08:54.999Z</time>
      </trkpt>
      <trkpt lat="45.1567" lon="5.15655">
        <ele>467.05</ele>
        <time>2017-06-20T17:08:57.999Z</time>
      </trkpt>
      <trkpt lat="45.15673" lon="5.15671">
        <ele>467.45</ele>
        <time>2017-06-20T17:09:00.999Z</time>
      </trkpt>
      <trkpt lat="45.15676" lon="5.15686">
        <ele>469.17</ele>
        <time>2017-06-20T17:09:03.999Z</time>
      </trkpt>
      <trkpt lat="45.1568" lon="5.15703">
        <ele>469.91</ele>
        <time>2017-06-20T17:09:06.999Z</time>
      </trkpt>
      <trkpt lat="45.15685" lon="5.15717">
        <ele>471.09</ele>
        <time>2017-06-20T17:09:09.999Z</time>
      </trkpt>
      <trkpt lat="45.15689" lon="5.15732">
        <ele>472.08</ele>
        <time>2017-06-20T17:09:12.999Z</time>
      </trkpt>
      <trkpt lat="45.15693" lon="5.15749">
        <ele>472.64</ele>
        <time>2017-06-20T17:09:15.999Z</time>
      </trkpt>
      <trkpt lat="45.15696" lon="5.15761">
        <ele>473.42</ele>
        <time>2017-06-20T17:09:17.999Z</time>
      </trkpt>
      <trkpt lat="45.15699" lon="5.15776">
        <ele>474.52</ele>
        <time>2017-06-20T17:09:20.999Z</time>
      </trkpt>
      <trkpt lat="45.15704" lon="5.15792">
        <ele>474.82</ele>
        <time>2017-06-20T17:09:23.999Z</time>
      </trkpt>
      <trkpt lat="45.15709" lon="5.15807">
        <ele>474.36</ele>
        <time>2017-06-20T17:09:26.999Z</time>
      </trkpt>
      <trkpt lat="45.15715" lon="5.15822">
        <ele>474.34</ele>
        <time>2017-06-20T17:09:29.999Z</time>
      </trkpt>
      <trkpt lat="45.1572" lon="5.15835">
        <ele>475.31</ele>
        <time>2017-06-20T17:09:32.999Z</time>
      </trkpt>
      <trkpt lat="45.15726" lon="5.15849">
        <ele>475.99</ele>
        <time>2017-06-20T17:09:35.999Z</time>
      </trkpt>
      <trkpt lat="45.15733" lon="5.15864">
        <ele>475.52</ele>
        <time>2017-06-20T17:09:38.999Z</time>
      </trkpt>
      <trkpt lat="45.15741" lon="5.15876">
        <ele>475.26</ele>
        <time>2017-06-20T17:09:41.999Z</time>
      </trkpt>
      <trkpt lat="45.15748" lon="5.15888">
        <ele>475.22</ele>
        <time>2017-06-20T17:09:44.999Z</time>
      </trkpt>
      <trkpt lat="45.15756" lon="5.15901">
        <ele>473.77</ele>
        <time>2017-06-20T17:09:47.999Z</time>
      </trkpt>
      <trkpt lat="45.15764" lon="5.15913">
        <ele>473.67</ele>
        <time>2017-06-20T17:09:50.999Z</time>
      </trkpt>
      <trkpt lat="45.15771" lon="5.15927">
        <ele>473.66</ele>
        <time>2017-06-20T17:09:53.999Z</time>
      </trkpt>
      <trkpt lat="45.15777" lon="5.15942">
        <ele>473.19</ele>
        <time>2017-06-20T17:09:56.999Z</time>
      </trkpt>
      <trkpt lat="45.15781" lon="5.15957">
        <ele>473.58</ele>
        <time>2017-06-20T17:09:59.999Z</time>
      </trkpt>
      <trkpt lat="45.15784" lon="5.15971">
        <ele>474.14</ele>
        <time>2017-06-20T17:10:02.999Z</time>
      </trkpt>
      <trkpt lat="45.15787" lon="5.15987">
        <ele>474.59</ele>
        <time>2017-06-20T17:10:05.999Z</time>
      </trkpt>
      <trkpt lat="45.15789" lon="5.16001">
        <ele>474.53</ele>
        <time>2017-06-20T17:10:08.999Z</time>
      </trkpt>
      <trkpt lat="45.15792" lon="5.16018">
        <ele>476.14</ele>
        <time>2017-06-20T17:10:11.999Z</time>
      </trkpt>
      <trkpt lat="45.15795" lon="5.16036">
        <ele>476.38</ele>
        <time>2017-06-20T17:10:14.999Z</time>
      </trkpt>
      <trkpt lat="45.15797" lon="5.1605">
        <ele>476.39</ele>
        <time>2017-06-20T17:10:17.999Z</time>
      </trkpt>
      <trkpt lat="45.15799" lon="5.16065">
        <ele>476.17</ele>
        <time>2017-06-20T17:10:20.999Z</time>
      </trkpt>
      <trkpt lat="45.15802" lon="5.1608">
        <ele>476.03</ele>
        <time>2017-06-20T17:10:23.999Z</time>
      </trkpt>
      <trkpt lat="45.15804" lon="5.16095">
        <ele>475.72</ele>
        <time>2017-06-20T17:10:26.999Z</time>
      </trkpt>
      <trkpt lat="45.15806" lon="5.1611">
        <ele>475.62</ele>
        <time>2017-06-20T17:10:29.999Z</time>
      </trkpt>
      <trkpt lat="45.15806" lon="5.16124">
        <ele>476.45</ele>
        <time>2017-06-20T17:10:32.999Z</time>
      </trkpt>
      <trkpt lat="45.15806" lon="5.1614">
        <ele>477.04</ele>
        <time>2017-06-20T17:10:35.999Z</time>
      </trkpt>
      <trkpt lat="45.15805" lon="5.16156">
        <ele>477.16</ele>
        <time>2017-06-20T17:10:38.999Z</time>
      </trkpt>
      <trkpt lat="45.15805" lon="5.16174">
        <ele>476.57</ele>
        <time>2017-06-20T17:10:41.999Z</time>
      </trkpt>
      <trkpt lat="45.15805" lon="5.1619">
        <ele>476.15</ele>
        <time>2017-06-20T17:10:44.999Z</time>
      </trkpt>
      <trkpt lat="45.15805" lon="5.16204">
        <ele>477.02</ele>
        <time>2017-06-20T17:10:47.999Z</time>
      </trkpt>
      <trkpt lat="45.15805" lon="5.1622">
        <ele>478.35</ele>
        <time>2017-06-20T17:10:50.999Z</time>
      </trkpt>
      <trkpt lat="45.15805" lon="5.16235">
        <ele>479.11</ele>
        <time>2017-06-20T17:10:53.999Z</time>
      </trkpt>
      <trkpt lat="45.15804" lon="5.16251">
        <ele>479.03</ele>
        <time>2017-06-20T17:10:56.999Z</time>
      </trkpt>
      <trkpt lat="45.15804" lon="5.16267">
        <ele>479.15</ele>
        <time>2017-06-20T17:10:59.999Z</time>
      </trkpt>
      <trkpt lat="45.15801" lon="5.16284">
        <ele>479.17</ele>
        <time>2017-06-20T17:11:02.999Z</time>
      </trkpt>
      <trkpt lat="45.158" lon="5.163">
        <ele>479.27</ele>
        <time>2017-06-20T17:11:05.999Z</time>
      </trkpt>
      <trkpt lat="45.15799" lon="5.16315">
        <ele>479.28</ele>
        <time>2017-06-20T17:11:08.999Z</time>
      </trkpt>
      <trkpt lat="45.15799" lon="5.16332">
        <ele>479.91</ele>
        <time>2017-06-20T17:11:11.999Z</time>
      </trkpt>
      <trkpt lat="45.158" lon="5.16348">
        <ele>480.89</ele>
        <time>2017-06-20T17:11:14.999Z</time>
      </trkpt>
      <trkpt lat="45.15802" lon="5.16367">
        <ele>480.07</ele>
        <time>2017-06-20T17:11:17.999Z</time>
      </trkpt>
      <trkpt lat="45.15802" lon="5.16383">
        <ele>479.5</ele>
        <time>2017-06-20T17:11:20.999Z</time>
      </trkpt>
      <trkpt lat="45.15804" lon="5.164">
        <ele>479.76</ele>
        <time>2017-06-20T17:11:23.999Z</time>
      </trkpt>
      <trkpt lat="45.15805" lon="5.16416">
        <ele>480.45</ele>
        <time>2017-06-20T17:11:26.999Z</time>
      </trkpt>
      <trkpt lat="45.15807" lon="5.16435">
        <ele>480.85</ele>
        <time>2017-06-20T17:11:29.999Z</time>
      </trkpt>
      <trkpt lat="45.1581" lon="5.1645">
        <ele>481.29</ele>
        <time>2017-06-20T17:11:32.999Z</time>
      </trkpt>
      <trkpt lat="45.15813" lon="5.16466">
        <ele>482.89</ele>
        <time>2017-06-20T17:11:35.999Z</time>
      </trkpt>
      <trkpt lat="45.15816" lon="5.16482">
        <ele>483.51</ele>
        <time>2017-06-20T17:11:38.999Z</time>
      </trkpt>
      <trkpt lat="45.15818" lon="5.16498">
        <ele>484.44</ele>
        <time>2017-06-20T17:11:41.999Z</time>
      </trkpt>
      <trkpt lat="45.15819" lon="5.16515">
        <ele>484.6</ele>
        <time>2017-06-20T17:11:44.999Z</time>
      </trkpt>
      <trkpt lat="45.1582" lon="5.16531">
        <ele>485.03</ele>
        <time>2017-06-20T17:11:47.999Z</time>
      </trkpt>
      <trkpt lat="45.15819" lon="5.16548">
        <ele>485.4</ele>
        <time>2017-06-20T17:11:50.999Z</time>
      </trkpt>
      <trkpt lat="45.15817" lon="5.16564">
        <ele>485.89</ele>
        <time>2017-06-20T17:11:53.999Z</time>
      </trkpt>
      <trkpt lat="45.15815" lon="5.16579">
        <ele>487.93</ele>
        <time>2017-06-20T17:11:56.999Z</time>
      </trkpt>
      <trkpt lat="45.15813" lon="5.16595">
        <ele>489.01</ele>
        <time>2017-06-20T17:11:59.999Z</time>
      </trkpt>
      <trkpt lat="45.15812" lon="5.16611">
        <ele>488.24</ele>
        <time>2017-06-20T17:12:02.999Z</time>
      </trkpt>
      <trkpt lat="45.1581" lon="5.16627">
        <ele>487.52</ele>
        <time>2017-06-20T17:12:05.999Z</time>
      </trkpt>
      <trkpt lat="45.15808" lon="5.16643">
        <ele>486.79</ele>
        <time>2017-06-20T17:12:08.999Z</time>
      </trkpt>
      <trkpt lat="45.15807" lon="5.16658">
        <ele>486.6</ele>
        <time>2017-06-20T17:12:11.999Z</time>
      </trkpt>
      <trkpt lat="45.15809" lon="5.16673">
        <ele>486.77</ele>
        <time>2017-06-20T17:12:14.999Z</time>
      </trkpt>
      <trkpt lat="45.15811" lon="5.16688">
        <ele>487.09</ele>
        <time>2017-06-20T17:12:17.999Z</time>
      </trkpt>
      <trkpt lat="45.15813" lon="5.16702">
        <ele>487.52</ele>
        <time>2017-06-20T17:12:20.999Z</time>
      </trkpt>
      <trkpt lat="45.15817" lon="5.16715">
        <ele>488.04</ele>
        <time>2017-06-20T17:12:23.999Z</time>
      </trkpt>
      <trkpt lat="45.1582" lon="5.1673">
        <ele>488.57</ele>
        <time>2017-06-20T17:12:26.999Z</time>
      </trkpt>
      <trkpt lat="45.15825" lon="5.16743">
        <ele>489.16</ele>
        <time>2017-06-20T17:12:29.999Z</time>
      </trkpt>
      <trkpt lat="45.15829" lon="5.16756">
        <ele>489.73</ele>
        <time>2017-06-20T17:12:32.999Z</time>
      </trkpt>
      <trkpt lat="45.15832" lon="5.16769">
        <ele>490.31</ele>
        <time>2017-06-20T17:12:35.999Z</time>
      </trkpt>
      <trkpt lat="45.15837" lon="5.16783">
        <ele>493.17</ele>
        <time>2017-06-20T17:12:38.999Z</time>
      </trkpt>
      <trkpt lat="45.15843" lon="5.16799">
        <ele>493.89</ele>
        <time>2017-06-20T17:12:41.999Z</time>
      </trkpt>
      <trkpt lat="45.15848" lon="5.16816">
        <ele>492.96</ele>
        <time>2017-06-20T17:12:44.999Z</time>
      </trkpt>
      <trkpt lat="45.15852" lon="5.16833">
        <ele>492.09</ele>
        <time>2017-06-20T17:12:47.999Z</time>
      </trkpt>
      <trkpt lat="45.15853" lon="5.1685">
        <ele>493.88</ele>
        <time>2017-06-20T17:12:50.999Z</time>
      </trkpt>
      <trkpt lat="45.15855" lon="5.16867">
        <ele>495.47</ele>
        <time>2017-06-20T17:12:53.999Z</time>
      </trkpt>
      <trkpt lat="45.15857" lon="5.16883">
        <ele>496.13</ele>
        <time>2017-06-20T17:12:56.999Z</time>
      </trkpt>
      <trkpt lat="45.1586" lon="5.169">
        <ele>496.13</ele>
        <time>2017-06-20T17:12:59.999Z</time>
      </trkpt>
      <trkpt lat="45.15863" lon="5.16918">
        <ele>496.24</ele>
        <time>2017-06-20T17:13:02.999Z</time>
      </trkpt>
      <trkpt lat="45.15866" lon="5.16935">
        <ele>495.97</ele>
        <time>2017-06-20T17:13:05.999Z</time>
      </trkpt>
      <trkpt lat="45.15868" lon="5.16952">
        <ele>495.63</ele>
        <time>2017-06-20T17:13:08.999Z</time>
      </trkpt>
      <trkpt lat="45.15872" lon="5.16969">
        <ele>495.91</ele>
        <time>2017-06-20T17:13:11.999Z</time>
      </trkpt>
      <trkpt lat="45.15875" lon="5.16984">
        <ele>496.11</ele>
        <time>2017-06-20T17:13:14.999Z</time>
      </trkpt>
      <trkpt lat="45.15877" lon="5.17">
        <ele>496.42</ele>
        <time>2017-06-20T17:13:17.999Z</time>
      </trkpt>
      <trkpt lat="45.1588" lon="5.17016">
        <ele>496.54</ele>
        <time>2017-06-20T17:13:20.999Z</time>
      </trkpt>
      <trkpt lat="45.15883" lon="5.17033">
        <ele>496.57</ele>
        <time>2017-06-20T17:13:23.999Z</time>
      </trkpt>
      <trkpt lat="45.15886" lon="5.17048">
        <ele>496.72</ele>
        <time>2017-06-20T17:13:26.999Z</time>
      </trkpt>
      <trkpt lat="45.15888" lon="5.17065">
        <ele>497.52</ele>
        <time>2017-06-20T17:13:29.999Z</time>
      </trkpt>
      <trkpt lat="45.15889" lon="5.17081">
        <ele>498.08</ele>
        <time>2017-06-20T17:13:32.999Z</time>
      </trkpt>
      <trkpt lat="45.15892" lon="5.17097">
        <ele>498.51</ele>
        <time>2017-06-20T17:13:35.999Z</time>
      </trkpt>
      <trkpt lat="45.15893" lon="5.17113">
        <ele>499.01</ele>
        <time>2017-06-20T17:13:38.999Z</time>
      </trkpt>
      <trkpt lat="45.15894" lon="5.1713">
        <ele>499.09</ele>
        <time>2017-06-20T17:13:41.999Z</time>
      </trkpt>
      <trkpt lat="45.15896" lon="5.17145">
        <ele>499.14</ele>
        <time>2017-06-20T17:13:44.999Z</time>
      </trkpt>
      <trkpt lat="45.15897" lon="5.17161">
        <ele>499.12</ele>
        <time>2017-06-20T17:13:47.999Z</time>
      </trkpt>
      <trkpt lat="45.15898" lon="5.17177">
        <ele>499.12</ele>
        <time>2017-06-20T17:13:50.999Z</time>
      </trkpt>
      <trkpt lat="45.15898" lon="5.17193">
        <ele>499.14</ele>
        <time>2017-06-20T17:13:53.999Z</time>
      </trkpt>
      <trkpt lat="45.15899" lon="5.17209">
        <ele>499.62</ele>
        <time>2017-06-20T17:13:56.999Z</time>
      </trkpt>
      <trkpt lat="45.15899" lon="5.17224">
        <ele>500.73</ele>
        <time>2017-06-20T17:13:59.999Z</time>
      </trkpt>
      <trkpt lat="45.15899" lon="5.17241">
        <ele>501.46</ele>
        <time>2017-06-20T17:14:02.999Z</time>
      </trkpt>
      <trkpt lat="45.15899" lon="5.17255">
        <ele>502.31</ele>
        <time>2017-06-20T17:14:05.999Z</time>
      </trkpt>
      <trkpt lat="45.15899" lon="5.17271">
        <ele>502.38</ele>
        <time>2017-06-20T17:14:08.999Z</time>
      </trkpt>
      <trkpt lat="45.159" lon="5.17306">
        <ele>502.89</ele>
        <time>2017-06-20T17:14:15.999Z</time>
      </trkpt>
      <trkpt lat="45.15903" lon="5.17323">
        <ele>503.44</ele>
        <time>2017-06-20T17:14:18.999Z</time>
      </trkpt>
      <trkpt lat="45.15905" lon="5.1734">
        <ele>503.68</ele>
        <time>2017-06-20T17:14:21.999Z</time>
      </trkpt>
      <trkpt lat="45.15909" lon="5.17355">
        <ele>503.34</ele>
        <time>2017-06-20T17:14:24.999Z</time>
      </trkpt>
      <trkpt lat="45.15912" lon="5.17371">
        <ele>503.04</ele>
        <time>2017-06-20T17:14:27.999Z</time>
      </trkpt>
      <trkpt lat="45.15916" lon="5.17386">
        <ele>502.4</ele>
        <time>2017-06-20T17:14:30.999Z</time>
      </trkpt>
      <trkpt lat="45.15919" lon="5.17401">
        <ele>502.3</ele>
        <time>2017-06-20T17:14:33.999Z</time>
      </trkpt>
      <trkpt lat="45.15922" lon="5.17416">
        <ele>502.03</ele>
        <time>2017-06-20T17:14:36.999Z</time>
      </trkpt>
      <trkpt lat="45.15925" lon="5.17429">
        <ele>501.83</ele>
        <time>2017-06-20T17:14:39.999Z</time>
      </trkpt>
      <trkpt lat="45.15928" lon="5.17445">
        <ele>502.1</ele>
        <time>2017-06-20T17:14:42.999Z</time>
      </trkpt>
      <trkpt lat="45.15931" lon="5.1746">
        <ele>502.5</ele>
        <time>2017-06-20T17:14:45.999Z</time>
      </trkpt>
      <trkpt lat="45.15933" lon="5.17475">
        <ele>502.96</ele>
        <time>2017-06-20T17:14:48.999Z</time>
      </trkpt>
      <trkpt lat="45.15935" lon="5.17488">
        <ele>503.38</ele>
        <time>2017-06-20T17:14:51.999Z</time>
      </trkpt>
      <trkpt lat="45.15937" lon="5.17502">
        <ele>503.71</ele>
        <time>2017-06-20T17:14:54.999Z</time>
      </trkpt>
      <trkpt lat="45.1594" lon="5.17515">
        <ele>504.12</ele>
        <time>2017-06-20T17:14:57.999Z</time>
      </trkpt>
      <trkpt lat="45.15942" lon="5.1753">
        <ele>504.42</ele>
        <time>2017-06-20T17:15:00.999Z</time>
      </trkpt>
      <trkpt lat="45.15944" lon="5.17545">
        <ele>504.6</ele>
        <time>2017-06-20T17:15:03.999Z</time>
      </trkpt>
      <trkpt lat="45.15947" lon="5.17559">
        <ele>504.81</ele>
        <time>2017-06-20T17:15:06.999Z</time>
      </trkpt>
      <trkpt lat="45.15951" lon="5.17573">
        <ele>505.02</ele>
        <time>2017-06-20T17:15:09.999Z</time>
      </trkpt>
      <trkpt lat="45.15955" lon="5.17587">
        <ele>505.16</ele>
        <time>2017-06-20T17:15:12.999Z</time>
      </trkpt>
      <trkpt lat="45.1596" lon="5.17601">
        <ele>505.34</ele>
        <time>2017-06-20T17:15:15.999Z</time>
      </trkpt>
      <trkpt lat="45.15965" lon="5.17613">
        <ele>505.52</ele>
        <time>2017-06-20T17:15:18.999Z</time>
      </trkpt>
      <trkpt lat="45.1597" lon="5.17626">
        <ele>505.82</ele>
        <time>2017-06-20T17:15:21.999Z</time>
      </trkpt>
      <trkpt lat="45.15975" lon="5.17638">
        <ele>507.24</ele>
        <time>2017-06-20T17:15:24.999Z</time>
      </trkpt>
      <trkpt lat="45.15981" lon="5.17653">
        <ele>508.9</ele>
        <time>2017-06-20T17:15:27.999Z</time>
      </trkpt>
      <trkpt lat="45.15987" lon="5.17668">
        <ele>510.68</ele>
        <time>2017-06-20T17:15:30.999Z</time>
      </trkpt>
      <trkpt lat="45.15993" lon="5.17684">
        <ele>512.32</ele>
        <time>2017-06-20T17:15:33.999Z</time>
      </trkpt>
      <trkpt lat="45.15998" lon="5.177">
        <ele>512.32</ele>
        <time>2017-06-20T17:15:36.999Z</time>
      </trkpt>
      <trkpt lat="45.16001" lon="5.17715">
        <ele>513.32</ele>
        <time>2017-06-20T17:15:39.999Z</time>
      </trkpt>
      <trkpt lat="45.16002" lon="5.1773">
        <ele>513.39</ele>
        <time>2017-06-20T17:15:42.999Z</time>
      </trkpt>
      <trkpt lat="45.16002" lon="5.17746">
        <ele>513.45</ele>
        <time>2017-06-20T17:15:45.999Z</time>
      </trkpt>
      <trkpt lat="45.16003" lon="5.17763">
        <ele>511.71</ele>
        <time>2017-06-20T17:15:48.999Z</time>
      </trkpt>
      <trkpt lat="45.16" lon="5.17779">
        <ele>511.29</ele>
        <time>2017-06-20T17:15:51.999Z</time>
      </trkpt>
      <trkpt lat="45.15998" lon="5.17794">
        <ele>511.06</ele>
        <time>2017-06-20T17:15:54.999Z</time>
      </trkpt>
      <trkpt lat="45.15995" lon="5.17809">
        <ele>511.5</ele>
        <time>2017-06-20T17:15:57.999Z</time>
      </trkpt>
      <trkpt lat="45.15993" lon="5.17826">
        <ele>512.41</ele>
        <time>2017-06-20T17:16:00.999Z</time>
      </trkpt>
      <trkpt lat="45.15989" lon="5.1784">
        <ele>512.65</ele>
        <time>2017-06-20T17:16:03.999Z</time>
      </trkpt>
      <trkpt lat="45.15984" lon="5.17857">
        <ele>513.17</ele>
        <time>2017-06-20T17:16:06.999Z</time>
      </trkpt>
      <trkpt lat="45.1598" lon="5.17874">
        <ele>512.06</ele>
        <time>2017-06-20T17:16:09.999Z</time>
      </trkpt>
      <trkpt lat="45.15977" lon="5.17889">
        <ele>512.01</ele>
        <time>2017-06-20T17:16:12.999Z</time>
      </trkpt>
      <trkpt lat="45.15974" lon="5.17903">
        <ele>512.93</ele>
        <time>2017-06-20T17:16:15.999Z</time>
      </trkpt>
      <trkpt lat="45.15972" lon="5.17919">
        <ele>515.08</ele>
        <time>2017-06-20T17:16:18.999Z</time>
      </trkpt>
      <trkpt lat="45.15974" lon="5.17932">
        <ele>515.56</ele>
        <time>2017-06-20T17:16:20.999Z</time>
      </trkpt>
      <trkpt lat="45.15973" lon="5.17946">
        <ele>515.27</ele>
        <time>2017-06-20T17:16:22.999Z</time>
      </trkpt>
      <trkpt lat="45.15971" lon="5.17963">
        <ele>515.43</ele>
        <time>2017-06-20T17:16:25.999Z</time>
      </trkpt>
      <trkpt lat="45.15969" lon="5.17976">
        <ele>516.08</ele>
        <time>2017-06-20T17:16:27.999Z</time>
      </trkpt>
      <trkpt lat="45.15968" lon="5.17995">
        <ele>516.19</ele>
        <time>2017-06-20T17:16:30.999Z</time>
      </trkpt>
      <trkpt lat="45.15965" lon="5.18009">
        <ele>515.96</ele>
        <time>2017-06-20T17:16:32.999Z</time>
      </trkpt>
      <trkpt lat="45.15961" lon="5.18024">
        <ele>516.81</ele>
        <time>2017-06-20T17:16:35.999Z</time>
      </trkpt>
      <trkpt lat="45.15955" lon="5.18042">
        <ele>517.15</ele>
        <time>2017-06-20T17:16:38.999Z</time>
      </trkpt>
      <trkpt lat="45.1595" lon="5.18058">
        <ele>518.08</ele>
        <time>2017-06-20T17:16:41.999Z</time>
      </trkpt>
      <trkpt lat="45.15944" lon="5.18076">
        <ele>520</ele>
        <time>2017-06-20T17:16:44.999Z</time>
      </trkpt>
      <trkpt lat="45.1594" lon="5.18091">
        <ele>520.57</ele>
        <time>2017-06-20T17:16:47.999Z</time>
      </trkpt>
      <trkpt lat="45.15937" lon="5.18104">
        <ele>520.72</ele>
        <time>2017-06-20T17:16:49.999Z</time>
      </trkpt>
      <trkpt lat="45.15932" lon="5.18115">
        <ele>520.67</ele>
        <time>2017-06-20T17:16:51.999Z</time>
      </trkpt>
      <trkpt lat="45.15927" lon="5.18126">
        <ele>521.33</ele>
        <time>2017-06-20T17:16:53.999Z</time>
      </trkpt>
      <trkpt lat="45.15921" lon="5.18139">
        <ele>521.34</ele>
        <time>2017-06-20T17:16:55.999Z</time>
      </trkpt>
      <trkpt lat="45.15915" lon="5.18147">
        <ele>521.79</ele>
        <time>2017-06-20T17:16:57.999Z</time>
      </trkpt>
      <trkpt lat="45.15905" lon="5.18156">
        <ele>522.96</ele>
        <time>2017-06-20T17:16:59.999Z</time>
      </trkpt>
      <trkpt lat="45.15896" lon="5.18166">
        <ele>524.48</ele>
        <time>2017-06-20T17:17:02.999Z</time>
      </trkpt>
      <trkpt lat="45.15887" lon="5.18177">
        <ele>524.92</ele>
        <time>2017-06-20T17:17:05.999Z</time>
      </trkpt>
      <trkpt lat="45.15881" lon="5.18187">
        <ele>524.99</ele>
        <time>2017-06-20T17:17:07.999Z</time>
      </trkpt>
      <trkpt lat="45.15875" lon="5.18204">
        <ele>524.86</ele>
        <time>2017-06-20T17:17:10.999Z</time>
      </trkpt>
      <trkpt lat="45.15873" lon="5.18216">
        <ele>524.7</ele>
        <time>2017-06-20T17:17:12.999Z</time>
      </trkpt>
      <trkpt lat="45.15872" lon="5.18229">
        <ele>523.91</ele>
        <time>2017-06-20T17:17:14.999Z</time>
      </trkpt>
      <trkpt lat="45.1587" lon="5.18242">
        <ele>522.01</ele>
        <time>2017-06-20T17:17:16.999Z</time>
      </trkpt>
      <trkpt lat="45.15865" lon="5.18255">
        <ele>521.57</ele>
        <time>2017-06-20T17:17:18.999Z</time>
      </trkpt>
      <trkpt lat="45.15859" lon="5.18265">
        <ele>521.84</ele>
        <time>2017-06-20T17:17:20.999Z</time>
      </trkpt>
      <trkpt lat="45.1585" lon="5.18278">
        <ele>522.22</ele>
        <time>2017-06-20T17:17:23.999Z</time>
      </trkpt>
      <trkpt lat="45.15842" lon="5.18292">
        <ele>521.52</ele>
        <time>2017-06-20T17:17:26.999Z</time>
      </trkpt>
      <trkpt lat="45.15837" lon="5.18302">
        <ele>520.97</ele>
        <time>2017-06-20T17:17:28.999Z</time>
      </trkpt>
      <trkpt lat="45.15831" lon="5.18313">
        <ele>521.25</ele>
        <time>2017-06-20T17:17:30.999Z</time>
      </trkpt>
      <trkpt lat="45.15826" lon="5.18324">
        <ele>521.53</ele>
        <time>2017-06-20T17:17:32.999Z</time>
      </trkpt>
      <trkpt lat="45.15818" lon="5.18338">
        <ele>521.41</ele>
        <time>2017-06-20T17:17:35.999Z</time>
      </trkpt>
      <trkpt lat="45.15813" lon="5.1835">
        <ele>521.49</ele>
        <time>2017-06-20T17:17:37.999Z</time>
      </trkpt>
      <trkpt lat="45.15808" lon="5.18366">
        <ele>521.66</ele>
        <time>2017-06-20T17:17:40.999Z</time>
      </trkpt>
      <trkpt lat="45.15806" lon="5.18383">
        <ele>520.62</ele>
        <time>2017-06-20T17:17:43.999Z</time>
      </trkpt>
      <trkpt lat="45.15812" lon="5.18399">
        <ele>519.88</ele>
        <time>2017-06-20T17:17:46.999Z</time>
      </trkpt>
      <trkpt lat="45.15821" lon="5.18412">
        <ele>520.08</ele>
        <time>2017-06-20T17:17:49.999Z</time>
      </trkpt>
      <trkpt lat="45.15831" lon="5.1842">
        <ele>520.27</ele>
        <time>2017-06-20T17:17:52.999Z</time>
      </trkpt>
      <trkpt lat="45.15842" lon="5.18429">
        <ele>521.88</ele>
        <time>2017-06-20T17:17:55.999Z</time>
      </trkpt>
      <trkpt lat="45.15853" lon="5.18436">
        <ele>523.57</ele>
        <time>2017-06-20T17:17:58.999Z</time>
      </trkpt>
      <trkpt lat="45.15865" lon="5.18443">
        <ele>523.58</ele>
        <time>2017-06-20T17:18:01.999Z</time>
      </trkpt>
      <trkpt lat="45.15874" lon="5.18453">
        <ele>524.2</ele>
        <time>2017-06-20T17:18:04.999Z</time>
      </trkpt>
      <trkpt lat="45.15883" lon="5.18465">
        <ele>525.27</ele>
        <time>2017-06-20T17:18:07.999Z</time>
      </trkpt>
      <trkpt lat="45.15892" lon="5.18474">
        <ele>525.2</ele>
        <time>2017-06-20T17:18:10.999Z</time>
      </trkpt>
      <trkpt lat="45.15902" lon="5.18486">
        <ele>525.1</ele>
        <time>2017-06-20T17:18:13.999Z</time>
      </trkpt>
      <trkpt lat="45.1591" lon="5.18498">
        <ele>525.02</ele>
        <time>2017-06-20T17:18:16.999Z</time>
      </trkpt>
      <trkpt lat="45.15919" lon="5.18506">
        <ele>525.01</ele>
        <time>2017-06-20T17:18:19.999Z</time>
      </trkpt>
      <trkpt lat="45.15928" lon="5.18513">
        <ele>526.09</ele>
        <time>2017-06-20T17:18:22.999Z</time>
      </trkpt>
      <trkpt lat="45.15937" lon="5.18515">
        <ele>526.22</ele>
        <time>2017-06-20T17:18:25.999Z</time>
      </trkpt>
      <trkpt lat="45.15948" lon="5.18521">
        <ele>526.87</ele>
        <time>2017-06-20T17:18:29.999Z</time>
      </trkpt>
      <trkpt lat="45.15959" lon="5.1853">
        <ele>527.28</ele>
        <time>2017-06-20T17:18:32.999Z</time>
      </trkpt>
      <trkpt lat="45.15969" lon="5.1854">
        <ele>528.23</ele>
        <time>2017-06-20T17:18:34.999Z</time>
      </trkpt>
      <trkpt lat="45.15979" lon="5.1855">
        <ele>528.33</ele>
        <time>2017-06-20T17:18:36.999Z</time>
      </trkpt>
      <trkpt lat="45.15987" lon="5.1856">
        <ele>528.34</ele>
        <time>2017-06-20T17:18:38.999Z</time>
      </trkpt>
      <trkpt lat="45.15994" lon="5.18571">
        <ele>528.97</ele>
        <time>2017-06-20T17:18:40.999Z</time>
      </trkpt>
      <trkpt lat="45.16002" lon="5.18585">
        <ele>530.27</ele>
        <time>2017-06-20T17:18:43.999Z</time>
      </trkpt>
      <trkpt lat="45.1601" lon="5.18598">
        <ele>529.91</ele>
        <time>2017-06-20T17:18:46.999Z</time>
      </trkpt>
      <trkpt lat="45.16017" lon="5.18611">
        <ele>529.36</ele>
        <time>2017-06-20T17:18:49.999Z</time>
      </trkpt>
      <trkpt lat="45.16023" lon="5.18623">
        <ele>529.23</ele>
        <time>2017-06-20T17:18:51.999Z</time>
      </trkpt>
      <trkpt lat="45.16026" lon="5.18636">
        <ele>529.85</ele>
        <time>2017-06-20T17:18:53.999Z</time>
      </trkpt>
      <trkpt lat="45.16031" lon="5.18649">
        <ele>530.22</ele>
        <time>2017-06-20T17:18:55.999Z</time>
      </trkpt>
      <trkpt lat="45.16036" lon="5.18662">
        <ele>530.59</ele>
        <time>2017-06-20T17:18:57.999Z</time>
      </trkpt>
      <trkpt lat="45.1604" lon="5.18675">
        <ele>530.2</ele>
        <time>2017-06-20T17:18:59.999Z</time>
      </trkpt>
      <trkpt lat="45.16045" lon="5.18688">
        <ele>528</ele>
        <time>2017-06-20T17:19:01.999Z</time>
      </trkpt>
      <trkpt lat="45.16049" lon="5.18703">
        <ele>526.79</ele>
        <time>2017-06-20T17:19:03.999Z</time>
      </trkpt>
      <trkpt lat="45.16053" lon="5.18718">
        <ele>526.08</ele>
        <time>2017-06-20T17:19:05.999Z</time>
      </trkpt>
      <trkpt lat="45.16056" lon="5.18733">
        <ele>525.55</ele>
        <time>2017-06-20T17:19:07.999Z</time>
      </trkpt>
      <trkpt lat="45.16057" lon="5.1875">
        <ele>526.41</ele>
        <time>2017-06-20T17:19:09.999Z</time>
      </trkpt>
      <trkpt lat="45.16056" lon="5.18765">
        <ele>527.44</ele>
        <time>2017-06-20T17:19:11.999Z</time>
      </trkpt>
      <trkpt lat="45.16055" lon="5.18783">
        <ele>527.61</ele>
        <time>2017-06-20T17:19:13.999Z</time>
      </trkpt>
      <trkpt lat="45.16053" lon="5.18799">
        <ele>527.61</ele>
        <time>2017-06-20T17:19:15.999Z</time>
      </trkpt>
      <trkpt lat="45.16051" lon="5.18815">
        <ele>528.07</ele>
        <time>2017-06-20T17:19:17.999Z</time>
      </trkpt>
      <trkpt lat="45.16048" lon="5.18829">
        <ele>528.75</ele>
        <time>2017-06-20T17:19:19.999Z</time>
      </trkpt>
      <trkpt lat="45.16047" lon="5.18845">
        <ele>527.51</ele>
        <time>2017-06-20T17:19:21.999Z</time>
      </trkpt>
      <trkpt lat="45.16045" lon="5.18861">
        <ele>526.46</ele>
        <time>2017-06-20T17:19:23.999Z</time>
      </trkpt>
      <trkpt lat="45.16043" lon="5.18879">
        <ele>526.88</ele>
        <time>2017-06-20T17:19:25.999Z</time>
      </trkpt>
      <trkpt lat="45.16042" lon="5.18895">
        <ele>527.72</ele>
        <time>2017-06-20T17:19:27.999Z</time>
      </trkpt>
      <trkpt lat="45.16039" lon="5.18913">
        <ele>527.59</ele>
        <time>2017-06-20T17:19:29.999Z</time>
      </trkpt>
      <trkpt lat="45.16034" lon="5.1893">
        <ele>527.15</ele>
        <time>2017-06-20T17:19:31.999Z</time>
      </trkpt>
      <trkpt lat="45.1603" lon="5.18946">
        <ele>526.66</ele>
        <time>2017-06-20T17:19:33.999Z</time>
      </trkpt>
      <trkpt lat="45.16025" lon="5.18962">
        <ele>526.36</ele>
        <time>2017-06-20T17:19:35.999Z</time>
      </trkpt>
      <trkpt lat="45.16019" lon="5.18977">
        <ele>526.06</ele>
        <time>2017-06-20T17:19:37.999Z</time>
      </trkpt>
      <trkpt lat="45.16013" lon="5.18993">
        <ele>526.25</ele>
        <time>2017-06-20T17:19:39.999Z</time>
      </trkpt>
      <trkpt lat="45.16007" lon="5.19008">
        <ele>526.65</ele>
        <time>2017-06-20T17:19:41.999Z</time>
      </trkpt>
      <trkpt lat="45.16001" lon="5.19024">
        <ele>526.82</ele>
        <time>2017-06-20T17:19:43.999Z</time>
      </trkpt>
      <trkpt lat="45.15993" lon="5.1904">
        <ele>526.1</ele>
        <time>2017-06-20T17:19:45.999Z</time>
      </trkpt>
      <trkpt lat="45.15988" lon="5.19058">
        <ele>525.86</ele>
        <time>2017-06-20T17:19:47.999Z</time>
      </trkpt>
      <trkpt lat="45.15987" lon="5.19077">
        <ele>526.62</ele>
        <time>2017-06-20T17:19:49.999Z</time>
      </trkpt>
      <trkpt lat="45.15991" lon="5.19096">
        <ele>526.95</ele>
        <time>2017-06-20T17:19:51.999Z</time>
      </trkpt>
      <trkpt lat="45.15997" lon="5.19112">
        <ele>526.43</ele>
        <time>2017-06-20T17:19:53.999Z</time>
      </trkpt>
      <trkpt lat="45.16005" lon="5.1913">
        <ele>524.55</ele>
        <time>2017-06-20T17:19:55.999Z</time>
      </trkpt>
      <trkpt lat="45.16013" lon="5.19145">
        <ele>523.16</ele>
        <time>2017-06-20T17:19:57.999Z</time>
      </trkpt>
      <trkpt lat="45.16023" lon="5.19162">
        <ele>521.78</ele>
        <time>2017-06-20T17:19:59.999Z</time>
      </trkpt>
      <trkpt lat="45.16033" lon="5.19178">
        <ele>521.58</ele>
        <time>2017-06-20T17:20:01.999Z</time>
      </trkpt>
      <trkpt lat="45.16043" lon="5.19192">
        <ele>521.85</ele>
        <time>2017-06-20T17:20:03.999Z</time>
      </trkpt>
      <trkpt lat="45.16053" lon="5.19205">
        <ele>522.24</ele>
        <time>2017-06-20T17:20:05.999Z</time>
      </trkpt>
      <trkpt lat="45.16064" lon="5.19217">
        <ele>522.98</ele>
        <time>2017-06-20T17:20:07.999Z</time>
      </trkpt>
      <trkpt lat="45.16074" lon="5.19228">
        <ele>524.31</ele>
        <time>2017-06-20T17:20:09.999Z</time>
      </trkpt>
      <trkpt lat="45.16084" lon="5.1924">
        <ele>525.03</ele>
        <time>2017-06-20T17:20:11.999Z</time>
      </trkpt>
      <trkpt lat="45.16095" lon="5.19253">
        <ele>525.44</ele>
        <time>2017-06-20T17:20:13.999Z</time>
      </trkpt>
      <trkpt lat="45.16106" lon="5.19266">
        <ele>525.33</ele>
        <time>2017-06-20T17:20:15.999Z</time>
      </trkpt>
      <trkpt lat="45.16116" lon="5.19279">
        <ele>525.48</ele>
        <time>2017-06-20T17:20:17.999Z</time>
      </trkpt>
      <trkpt lat="45.16123" lon="5.19291">
        <ele>526.15</ele>
        <time>2017-06-20T17:20:19.999Z</time>
      </trkpt>
      <trkpt lat="45.16131" lon="5.19306">
        <ele>526.42</ele>
        <time>2017-06-20T17:20:21.999Z</time>
      </trkpt>
      <trkpt lat="45.16139" lon="5.1932">
        <ele>527.29</ele>
        <time>2017-06-20T17:20:23.999Z</time>
      </trkpt>
      <trkpt lat="45.16146" lon="5.19334">
        <ele>527.1</ele>
        <time>2017-06-20T17:20:25.999Z</time>
      </trkpt>
      <trkpt lat="45.16155" lon="5.1935">
        <ele>525.79</ele>
        <time>2017-06-20T17:20:27.999Z</time>
      </trkpt>
      <trkpt lat="45.16163" lon="5.19364">
        <ele>524.49</ele>
        <time>2017-06-20T17:20:29.999Z</time>
      </trkpt>
      <trkpt lat="45.1617" lon="5.19378">
        <ele>523.66</ele>
        <time>2017-06-20T17:20:31.999Z</time>
      </trkpt>
      <trkpt lat="45.16177" lon="5.19392">
        <ele>523.24</ele>
        <time>2017-06-20T17:20:33.999Z</time>
      </trkpt>
      <trkpt lat="45.16185" lon="5.19408">
        <ele>523.36</ele>
        <time>2017-06-20T17:20:35.999Z</time>
      </trkpt>
      <trkpt lat="45.16191" lon="5.19424">
        <ele>523.69</ele>
        <time>2017-06-20T17:20:37.999Z</time>
      </trkpt>
      <trkpt lat="45.16196" lon="5.1944">
        <ele>524.5</ele>
        <time>2017-06-20T17:20:39.999Z</time>
      </trkpt>
      <trkpt lat="45.16201" lon="5.19456">
        <ele>524.8</ele>
        <time>2017-06-20T17:20:41.999Z</time>
      </trkpt>
      <trkpt lat="45.16207" lon="5.19473">
        <ele>526.2</ele>
        <time>2017-06-20T17:20:43.999Z</time>
      </trkpt>
      <trkpt lat="45.16214" lon="5.19484">
        <ele>527.74</ele>
        <time>2017-06-20T17:20:45.999Z</time>
      </trkpt>
      <trkpt lat="45.16224" lon="5.19497">
        <ele>528.37</ele>
        <time>2017-06-20T17:20:47.999Z</time>
      </trkpt>
      <trkpt lat="45.16232" lon="5.19511">
        <ele>528.94</ele>
        <time>2017-06-20T17:20:49.999Z</time>
      </trkpt>
      <trkpt lat="45.16243" lon="5.19525">
        <ele>528.91</ele>
        <time>2017-06-20T17:20:51.999Z</time>
      </trkpt>
      <trkpt lat="45.16253" lon="5.19536">
        <ele>528.77</ele>
        <time>2017-06-20T17:20:53.999Z</time>
      </trkpt>
      <trkpt lat="45.16259" lon="5.1955">
        <ele>528.97</ele>
        <time>2017-06-20T17:20:55.999Z</time>
      </trkpt>
      <trkpt lat="45.16264" lon="5.19563">
        <ele>528.67</ele>
        <time>2017-06-20T17:20:57.999Z</time>
      </trkpt>
      <trkpt lat="45.16268" lon="5.19578">
        <ele>528.61</ele>
        <time>2017-06-20T17:20:59.999Z</time>
      </trkpt>
      <trkpt lat="45.1627" lon="5.19592">
        <ele>528.36</ele>
        <time>2017-06-20T17:21:01.999Z</time>
      </trkpt>
      <trkpt lat="45.16272" lon="5.19608">
        <ele>528.52</ele>
        <time>2017-06-20T17:21:03.999Z</time>
      </trkpt>
      <trkpt lat="45.16274" lon="5.19623">
        <ele>528.31</ele>
        <time>2017-06-20T17:21:05.999Z</time>
      </trkpt>
      <trkpt lat="45.16275" lon="5.19638">
        <ele>527.85</ele>
        <time>2017-06-20T17:21:07.999Z</time>
      </trkpt>
      <trkpt lat="45.16277" lon="5.19653">
        <ele>527.65</ele>
        <time>2017-06-20T17:21:09.999Z</time>
      </trkpt>
      <trkpt lat="45.16279" lon="5.19667">
        <ele>527.56</ele>
        <time>2017-06-20T17:21:11.999Z</time>
      </trkpt>
      <trkpt lat="45.1628" lon="5.19681">
        <ele>527.34</ele>
        <time>2017-06-20T17:21:13.999Z</time>
      </trkpt>
      <trkpt lat="45.16281" lon="5.19695">
        <ele>527.08</ele>
        <time>2017-06-20T17:21:15.999Z</time>
      </trkpt>
      <trkpt lat="45.16283" lon="5.19709">
        <ele>526.71</ele>
        <time>2017-06-20T17:21:17.999Z</time>
      </trkpt>
      <trkpt lat="45.16284" lon="5.19724">
        <ele>526.57</ele>
        <time>2017-06-20T17:21:19.999Z</time>
      </trkpt>
      <trkpt lat="45.16285" lon="5.19738">
        <ele>526.61</ele>
        <time>2017-06-20T17:21:21.999Z</time>
      </trkpt>
      <trkpt lat="45.16287" lon="5.19753">
        <ele>527.36</ele>
        <time>2017-06-20T17:21:23.999Z</time>
      </trkpt>
      <trkpt lat="45.16288" lon="5.19768">
        <ele>527.69</ele>
        <time>2017-06-20T17:21:25.999Z</time>
      </trkpt>
      <trkpt lat="45.1629" lon="5.19783">
        <ele>527.51</ele>
        <time>2017-06-20T17:21:27.999Z</time>
      </trkpt>
      <trkpt lat="45.16291" lon="5.19798">
        <ele>527.13</ele>
        <time>2017-06-20T17:21:29.999Z</time>
      </trkpt>
      <trkpt lat="45.16292" lon="5.19813">
        <ele>527.04</ele>
        <time>2017-06-20T17:21:31.999Z</time>
      </trkpt>
      <trkpt lat="45.16293" lon="5.19828">
        <ele>526.78</ele>
        <time>2017-06-20T17:21:33.999Z</time>
      </trkpt>
      <trkpt lat="45.16294" lon="5.19842">
        <ele>526.75</ele>
        <time>2017-06-20T17:21:35.999Z</time>
      </trkpt>
      <trkpt lat="45.16294" lon="5.19858">
        <ele>527.33</ele>
        <time>2017-06-20T17:21:37.999Z</time>
      </trkpt>
      <trkpt lat="45.16295" lon="5.19875">
        <ele>527.42</ele>
        <time>2017-06-20T17:21:39.999Z</time>
      </trkpt>
      <trkpt lat="45.16295" lon="5.1989">
        <ele>527.56</ele>
        <time>2017-06-20T17:21:41.999Z</time>
      </trkpt>
      <trkpt lat="45.16296" lon="5.19904">
        <ele>527.82</ele>
        <time>2017-06-20T17:21:43.999Z</time>
      </trkpt>
      <trkpt lat="45.16297" lon="5.1992">
        <ele>527.5</ele>
        <time>2017-06-20T17:21:45.999Z</time>
      </trkpt>
      <trkpt lat="45.16299" lon="5.19938">
        <ele>527.2</ele>
        <time>2017-06-20T17:21:47.999Z</time>
      </trkpt>
      <trkpt lat="45.16302" lon="5.19952">
        <ele>527.61</ele>
        <time>2017-06-20T17:21:49.999Z</time>
      </trkpt>
      <trkpt lat="45.16303" lon="5.19964">
        <ele>527.85</ele>
        <time>2017-06-20T17:21:51.999Z</time>
      </trkpt>
      <trkpt lat="45.16305" lon="5.19979">
        <ele>527.26</ele>
        <time>2017-06-20T17:21:53.999Z</time>
      </trkpt>
      <trkpt lat="45.16307" lon="5.19991">
        <ele>526.96</ele>
        <time>2017-06-20T17:21:55.999Z</time>
      </trkpt>
      <trkpt lat="45.16309" lon="5.20004">
        <ele>527.11</ele>
        <time>2017-06-20T17:21:57.999Z</time>
      </trkpt>
      <trkpt lat="45.16311" lon="5.20016">
        <ele>527.21</ele>
        <time>2017-06-20T17:21:59.999Z</time>
      </trkpt>
      <trkpt lat="45.16312" lon="5.2003">
        <ele>527.34</ele>
        <time>2017-06-20T17:22:01.999Z</time>
      </trkpt>
      <trkpt lat="45.16313" lon="5.20049">
        <ele>527.71</ele>
        <time>2017-06-20T17:22:04.999Z</time>
      </trkpt>
      <trkpt lat="45.16313" lon="5.20064">
        <ele>527.92</ele>
        <time>2017-06-20T17:22:06.999Z</time>
      </trkpt>
      <trkpt lat="45.16313" lon="5.20077">
        <ele>527.32</ele>
        <time>2017-06-20T17:22:08.999Z</time>
      </trkpt>
      <trkpt lat="45.16312" lon="5.20091">
        <ele>527.08</ele>
        <time>2017-06-20T17:22:10.999Z</time>
      </trkpt>
      <trkpt lat="45.1631" lon="5.20109">
        <ele>527.82</ele>
        <time>2017-06-20T17:22:13.999Z</time>
      </trkpt>
      <trkpt lat="45.16307" lon="5.20127">
        <ele>529.03</ele>
        <time>2017-06-20T17:22:16.999Z</time>
      </trkpt>
      <trkpt lat="45.16306" lon="5.20139">
        <ele>529.69</ele>
        <time>2017-06-20T17:22:18.999Z</time>
      </trkpt>
      <trkpt lat="45.16304" lon="5.20157">
        <ele>531.01</ele>
        <time>2017-06-20T17:22:21.999Z</time>
      </trkpt>
      <trkpt lat="45.16302" lon="5.2017">
        <ele>531.75</ele>
        <time>2017-06-20T17:22:23.999Z</time>
      </trkpt>
      <trkpt lat="45.16302" lon="5.20183">
        <ele>531.87</ele>
        <time>2017-06-20T17:22:25.999Z</time>
      </trkpt>
      <trkpt lat="45.16307" lon="5.20195">
        <ele>531.21</ele>
        <time>2017-06-20T17:22:27.999Z</time>
      </trkpt>
      <trkpt lat="45.16314" lon="5.20204">
        <ele>530.22</ele>
        <time>2017-06-20T17:22:29.999Z</time>
      </trkpt>
      <trkpt lat="45.16326" lon="5.20204">
        <ele>530.8</ele>
        <time>2017-06-20T17:22:32.999Z</time>
      </trkpt>
      <trkpt lat="45.16339" lon="5.20201">
        <ele>532.94</ele>
        <time>2017-06-20T17:22:35.999Z</time>
      </trkpt>
      <trkpt lat="45.16348" lon="5.20201">
        <ele>533.37</ele>
        <time>2017-06-20T17:22:37.999Z</time>
      </trkpt>
      <trkpt lat="45.16361" lon="5.20203">
        <ele>533.07</ele>
        <time>2017-06-20T17:22:40.999Z</time>
      </trkpt>
      <trkpt lat="45.16372" lon="5.20205">
        <ele>533.83</ele>
        <time>2017-06-20T17:22:43.999Z</time>
      </trkpt>
      <trkpt lat="45.16381" lon="5.20207">
        <ele>535.32</ele>
        <time>2017-06-20T17:22:46.999Z</time>
      </trkpt>
      <trkpt lat="45.16393" lon="5.20208">
        <ele>535.51</ele>
        <time>2017-06-20T17:22:49.999Z</time>
      </trkpt>
      <trkpt lat="45.16406" lon="5.2021">
        <ele>536.62</ele>
        <time>2017-06-20T17:22:52.999Z</time>
      </trkpt>
      <trkpt lat="45.16416" lon="5.20212">
        <ele>538.11</ele>
        <time>2017-06-20T17:22:54.999Z</time>
      </trkpt>
      <trkpt lat="45.1643" lon="5.20212">
        <ele>539.43</ele>
        <time>2017-06-20T17:22:57.999Z</time>
      </trkpt>
      <trkpt lat="45.16442" lon="5.20213">
        <ele>539.51</ele>
        <time>2017-06-20T17:23:00.999Z</time>
      </trkpt>
      <trkpt lat="45.16451" lon="5.20213">
        <ele>540.15</ele>
        <time>2017-06-20T17:23:02.999Z</time>
      </trkpt>
      <trkpt lat="45.16461" lon="5.20214">
        <ele>540.38</ele>
        <time>2017-06-20T17:23:04.999Z</time>
      </trkpt>
      <trkpt lat="45.1647" lon="5.20213">
        <ele>539.13</ele>
        <time>2017-06-20T17:23:06.999Z</time>
      </trkpt>
      <trkpt lat="45.16483" lon="5.20212">
        <ele>538.6</ele>
        <time>2017-06-20T17:23:09.999Z</time>
      </trkpt>
      <trkpt lat="45.16492" lon="5.20211">
        <ele>538.8</ele>
        <time>2017-06-20T17:23:11.999Z</time>
      </trkpt>
      <trkpt lat="45.16506" lon="5.20212">
        <ele>539.23</ele>
        <time>2017-06-20T17:23:14.999Z</time>
      </trkpt>
      <trkpt lat="45.16515" lon="5.20213">
        <ele>539.49</ele>
        <time>2017-06-20T17:23:16.999Z</time>
      </trkpt>
      <trkpt lat="45.16529" lon="5.20214">
        <ele>539.09</ele>
        <time>2017-06-20T17:23:19.999Z</time>
      </trkpt>
      <trkpt lat="45.16543" lon="5.20215">
        <ele>538.88</ele>
        <time>2017-06-20T17:23:22.999Z</time>
      </trkpt>
      <trkpt lat="45.16554" lon="5.20216">
        <ele>539.07</ele>
        <time>2017-06-20T17:23:24.999Z</time>
      </trkpt>
      <trkpt lat="45.16563" lon="5.20217">
        <ele>538.19</ele>
        <time>2017-06-20T17:23:26.999Z</time>
      </trkpt>
      <trkpt lat="45.16577" lon="5.20218">
        <ele>537.83</ele>
        <time>2017-06-20T17:23:29.999Z</time>
      </trkpt>
      <trkpt lat="45.1659" lon="5.20219">
        <ele>537.38</ele>
        <time>2017-06-20T17:23:32.999Z</time>
      </trkpt>
      <trkpt lat="45.166" lon="5.2022">
        <ele>536.12</ele>
        <time>2017-06-20T17:23:34.999Z</time>
      </trkpt>
      <trkpt lat="45.16612" lon="5.2022">
        <ele>535.49</ele>
        <time>2017-06-20T17:23:37.999Z</time>
      </trkpt>
      <trkpt lat="45.16624" lon="5.20216">
        <ele>534.51</ele>
        <time>2017-06-20T17:23:40.999Z</time>
      </trkpt>
      <trkpt lat="45.16633" lon="5.2021">
        <ele>535.01</ele>
        <time>2017-06-20T17:23:42.999Z</time>
      </trkpt>
      <trkpt lat="45.1664" lon="5.20198">
        <ele>535.1</ele>
        <time>2017-06-20T17:23:45.999Z</time>
      </trkpt>
      <trkpt lat="45.16637" lon="5.20211">
        <ele>535.78</ele>
        <time>2017-06-20T17:23:55.999Z</time>
      </trkpt>
      <trkpt lat="45.16637" lon="5.20193">
        <ele>540.21</ele>
        <time>2017-06-20T17:24:36.999Z</time>
      </trkpt>
      <trkpt lat="45.16641" lon="5.20175">
        <ele>540.76</ele>
        <time>2017-06-20T17:24:39.999Z</time>
      </trkpt>
      <trkpt lat="45.16646" lon="5.20157">
        <ele>541.06</ele>
        <time>2017-06-20T17:24:42.999Z</time>
      </trkpt>
      <trkpt lat="45.16651" lon="5.20141">
        <ele>541.45</ele>
        <time>2017-06-20T17:24:45.999Z</time>
      </trkpt>
      <trkpt lat="45.16656" lon="5.20124">
        <ele>541.01</ele>
        <time>2017-06-20T17:24:48.999Z</time>
      </trkpt>
      <trkpt lat="45.1666" lon="5.2011">
        <ele>541.28</ele>
        <time>2017-06-20T17:24:51.999Z</time>
      </trkpt>
      <trkpt lat="45.16663" lon="5.20094">
        <ele>541.43</ele>
        <time>2017-06-20T17:24:54.999Z</time>
      </trkpt>
      <trkpt lat="45.16668" lon="5.20079">
        <ele>541.46</ele>
        <time>2017-06-20T17:24:57.999Z</time>
      </trkpt>
      <trkpt lat="45.16674" lon="5.20063">
        <ele>541.16</ele>
        <time>2017-06-20T17:25:00.999Z</time>
      </trkpt>
      <trkpt lat="45.16681" lon="5.20052">
        <ele>541.58</ele>
        <time>2017-06-20T17:25:03.999Z</time>
      </trkpt>
      <trkpt lat="45.1669" lon="5.20041">
        <ele>543.16</ele>
        <time>2017-06-20T17:25:06.999Z</time>
      </trkpt>
      <trkpt lat="45.16697" lon="5.20032">
        <ele>543.43</ele>
        <time>2017-06-20T17:25:08.999Z</time>
      </trkpt>
      <trkpt lat="45.16707" lon="5.20021">
        <ele>542.2</ele>
        <time>2017-06-20T17:25:11.999Z</time>
      </trkpt>
      <trkpt lat="45.16716" lon="5.20016">
        <ele>541.76</ele>
        <time>2017-06-20T17:25:13.999Z</time>
      </trkpt>
      <trkpt lat="45.16726" lon="5.20011">
        <ele>542.56</ele>
        <time>2017-06-20T17:25:16.999Z</time>
      </trkpt>
      <trkpt lat="45.16737" lon="5.20008">
        <ele>542.59</ele>
        <time>2017-06-20T17:25:19.999Z</time>
      </trkpt>
      <trkpt lat="45.1675" lon="5.20008">
        <ele>543.02</ele>
        <time>2017-06-20T17:25:22.999Z</time>
      </trkpt>
      <trkpt lat="45.16763" lon="5.20008">
        <ele>542.83</ele>
        <time>2017-06-20T17:25:25.999Z</time>
      </trkpt>
      <trkpt lat="45.16776" lon="5.2001">
        <ele>542.03</ele>
        <time>2017-06-20T17:25:28.999Z</time>
      </trkpt>
      <trkpt lat="45.16788" lon="5.20012">
        <ele>542.77</ele>
        <time>2017-06-20T17:25:31.999Z</time>
      </trkpt>
      <trkpt lat="45.168" lon="5.20014">
        <ele>543.3</ele>
        <time>2017-06-20T17:25:34.999Z</time>
      </trkpt>
      <trkpt lat="45.16813" lon="5.20013">
        <ele>542.58</ele>
        <time>2017-06-20T17:25:37.999Z</time>
      </trkpt>
      <trkpt lat="45.16822" lon="5.20011">
        <ele>542.22</ele>
        <time>2017-06-20T17:25:39.999Z</time>
      </trkpt>
      <trkpt lat="45.16832" lon="5.2001">
        <ele>541.68</ele>
        <time>2017-06-20T17:25:41.999Z</time>
      </trkpt>
      <trkpt lat="45.16844" lon="5.20011">
        <ele>540.48</ele>
        <time>2017-06-20T17:25:44.999Z</time>
      </trkpt>
      <trkpt lat="45.16856" lon="5.20012">
        <ele>540.6</ele>
        <time>2017-06-20T17:25:47.999Z</time>
      </trkpt>
      <trkpt lat="45.16868" lon="5.20013">
        <ele>541.14</ele>
        <time>2017-06-20T17:25:50.999Z</time>
      </trkpt>
      <trkpt lat="45.1688" lon="5.20018">
        <ele>540.96</ele>
        <time>2017-06-20T17:25:53.999Z</time>
      </trkpt>
      <trkpt lat="45.16891" lon="5.20026">
        <ele>540.83</ele>
        <time>2017-06-20T17:25:56.999Z</time>
      </trkpt>
      <trkpt lat="45.16901" lon="5.20035">
        <ele>541.42</ele>
        <time>2017-06-20T17:25:59.999Z</time>
      </trkpt>
      <trkpt lat="45.16911" lon="5.20047">
        <ele>541.84</ele>
        <time>2017-06-20T17:26:02.999Z</time>
      </trkpt>
      <trkpt lat="45.1692" lon="5.2006">
        <ele>542.93</ele>
        <time>2017-06-20T17:26:05.999Z</time>
      </trkpt>
      <trkpt lat="45.16928" lon="5.20073">
        <ele>544.47</ele>
        <time>2017-06-20T17:26:08.999Z</time>
      </trkpt>
      <trkpt lat="45.16937" lon="5.20086">
        <ele>544.75</ele>
        <time>2017-06-20T17:26:11.999Z</time>
      </trkpt>
      <trkpt lat="45.16946" lon="5.20098">
        <ele>543.97</ele>
        <time>2017-06-20T17:26:14.999Z</time>
      </trkpt>
      <trkpt lat="45.16954" lon="5.2011">
        <ele>543.6</ele>
        <time>2017-06-20T17:26:17.999Z</time>
      </trkpt>
      <trkpt lat="45.1696" lon="5.20121">
        <ele>544.58</ele>
        <time>2017-06-20T17:26:20.999Z</time>
      </trkpt>
      <trkpt lat="45.16968" lon="5.20132">
        <ele>546.16</ele>
        <time>2017-06-20T17:26:23.999Z</time>
      </trkpt>
      <trkpt lat="45.16978" lon="5.20141">
        <ele>546.48</ele>
        <time>2017-06-20T17:26:26.999Z</time>
      </trkpt>
      <trkpt lat="45.1699" lon="5.20148">
        <ele>546.43</ele>
        <time>2017-06-20T17:26:29.999Z</time>
      </trkpt>
      <trkpt lat="45.17001" lon="5.20152">
        <ele>546.61</ele>
        <time>2017-06-20T17:26:32.999Z</time>
      </trkpt>
      <trkpt lat="45.17011" lon="5.20154">
        <ele>546.68</ele>
        <time>2017-06-20T17:26:35.999Z</time>
      </trkpt>
      <trkpt lat="45.17021" lon="5.20155">
        <ele>546.75</ele>
        <time>2017-06-20T17:26:38.999Z</time>
      </trkpt>
      <trkpt lat="45.1703" lon="5.20154">
        <ele>546.82</ele>
        <time>2017-06-20T17:26:41.999Z</time>
      </trkpt>
      <trkpt lat="45.1704" lon="5.20152">
        <ele>546.9</ele>
        <time>2017-06-20T17:26:44.999Z</time>
      </trkpt>
      <trkpt lat="45.17051" lon="5.20147">
        <ele>547.56</ele>
        <time>2017-06-20T17:26:47.999Z</time>
      </trkpt>
      <trkpt lat="45.17062" lon="5.20143">
        <ele>548.48</ele>
        <time>2017-06-20T17:26:50.999Z</time>
      </trkpt>
      <trkpt lat="45.17074" lon="5.20137">
        <ele>547.85</ele>
        <time>2017-06-20T17:26:53.999Z</time>
      </trkpt>
      <trkpt lat="45.17085" lon="5.20129">
        <ele>546.39</ele>
        <time>2017-06-20T17:26:56.999Z</time>
      </trkpt>
      <trkpt lat="45.17094" lon="5.20117">
        <ele>546.58</ele>
        <time>2017-06-20T17:26:59.999Z</time>
      </trkpt>
      <trkpt lat="45.17102" lon="5.20109">
        <ele>546.57</ele>
        <time>2017-06-20T17:27:01.999Z</time>
      </trkpt>
      <trkpt lat="45.1711" lon="5.20098">
        <ele>546.05</ele>
        <time>2017-06-20T17:27:03.999Z</time>
      </trkpt>
      <trkpt lat="45.17118" lon="5.20089">
        <ele>546.49</ele>
        <time>2017-06-20T17:27:05.999Z</time>
      </trkpt>
      <trkpt lat="45.17125" lon="5.20079">
        <ele>547.05</ele>
        <time>2017-06-20T17:27:07.999Z</time>
      </trkpt>
      <trkpt lat="45.17133" lon="5.2007">
        <ele>547.04</ele>
        <time>2017-06-20T17:27:09.999Z</time>
      </trkpt>
      <trkpt lat="45.17143" lon="5.20062">
        <ele>546.93</ele>
        <time>2017-06-20T17:27:11.999Z</time>
      </trkpt>
      <trkpt lat="45.17154" lon="5.20057">
        <ele>546.46</ele>
        <time>2017-06-20T17:27:13.999Z</time>
      </trkpt>
      <trkpt lat="45.17164" lon="5.20054">
        <ele>545.47</ele>
        <time>2017-06-20T17:27:15.999Z</time>
      </trkpt>
      <trkpt lat="45.17176" lon="5.20056">
        <ele>545.09</ele>
        <time>2017-06-20T17:27:17.999Z</time>
      </trkpt>
      <trkpt lat="45.17189" lon="5.20058">
        <ele>545.03</ele>
        <time>2017-06-20T17:27:19.999Z</time>
      </trkpt>
      <trkpt lat="45.17201" lon="5.20058">
        <ele>544.77</ele>
        <time>2017-06-20T17:27:21.999Z</time>
      </trkpt>
      <trkpt lat="45.17213" lon="5.20059">
        <ele>544.14</ele>
        <time>2017-06-20T17:27:23.999Z</time>
      </trkpt>
      <trkpt lat="45.17225" lon="5.20058">
        <ele>543.62</ele>
        <time>2017-06-20T17:27:25.999Z</time>
      </trkpt>
      <trkpt lat="45.1724" lon="5.20056">
        <ele>543.18</ele>
        <time>2017-06-20T17:27:27.999Z</time>
      </trkpt>
      <trkpt lat="45.17253" lon="5.20051">
        <ele>542.68</ele>
        <time>2017-06-20T17:27:29.999Z</time>
      </trkpt>
      <trkpt lat="45.17267" lon="5.20043">
        <ele>542.74</ele>
        <time>2017-06-20T17:27:31.999Z</time>
      </trkpt>
      <trkpt lat="45.17281" lon="5.20033">
        <ele>542.32</ele>
        <time>2017-06-20T17:27:33.999Z</time>
      </trkpt>
      <trkpt lat="45.17294" lon="5.20024">
        <ele>541.17</ele>
        <time>2017-06-20T17:27:35.999Z</time>
      </trkpt>
      <trkpt lat="45.17309" lon="5.20016">
        <ele>540.13</ele>
        <time>2017-06-20T17:27:37.999Z</time>
      </trkpt>
      <trkpt lat="45.17324" lon="5.20008">
        <ele>538.79</ele>
        <time>2017-06-20T17:27:39.999Z</time>
      </trkpt>
      <trkpt lat="45.1734" lon="5.19997">
        <ele>537.97</ele>
        <time>2017-06-20T17:27:41.999Z</time>
      </trkpt>
      <trkpt lat="45.17348" lon="5.19991">
        <ele>537.56</ele>
        <time>2017-06-20T17:27:42.999Z</time>
      </trkpt>
      <trkpt lat="45.17363" lon="5.19981">
        <ele>537.01</ele>
        <time>2017-06-20T17:27:44.999Z</time>
      </trkpt>
      <trkpt lat="45.17379" lon="5.1997">
        <ele>536.34</ele>
        <time>2017-06-20T17:27:46.999Z</time>
      </trkpt>
      <trkpt lat="45.1739" lon="5.19968">
        <ele>535.86</ele>
        <time>2017-06-20T17:27:47.999Z</time>
      </trkpt>
      <trkpt lat="45.17401" lon="5.19967">
        <ele>534.9</ele>
        <time>2017-06-20T17:27:48.999Z</time>
      </trkpt>
      <trkpt lat="45.1741" lon="5.19971">
        <ele>534.05</ele>
        <time>2017-06-20T17:27:49.999Z</time>
      </trkpt>
      <trkpt lat="45.17426" lon="5.19987">
        <ele>532.49</ele>
        <time>2017-06-20T17:27:51.999Z</time>
      </trkpt>
      <trkpt lat="45.17436" lon="5.19997">
        <ele>531.49</ele>
        <time>2017-06-20T17:27:52.999Z</time>
      </trkpt>
      <trkpt lat="45.17445" lon="5.20006">
        <ele>530.53</ele>
        <time>2017-06-20T17:27:53.999Z</time>
      </trkpt>
      <trkpt lat="45.17455" lon="5.20015">
        <ele>529.6</ele>
        <time>2017-06-20T17:27:54.999Z</time>
      </trkpt>
      <trkpt lat="45.17463" lon="5.20023">
        <ele>528.09</ele>
        <time>2017-06-20T17:27:55.999Z</time>
      </trkpt>
      <trkpt lat="45.17471" lon="5.20034">
        <ele>526.94</ele>
        <time>2017-06-20T17:27:56.999Z</time>
      </trkpt>
      <trkpt lat="45.1748" lon="5.20044">
        <ele>525.85</ele>
        <time>2017-06-20T17:27:57.999Z</time>
      </trkpt>
      <trkpt lat="45.17487" lon="5.20055">
        <ele>524.86</ele>
        <time>2017-06-20T17:27:58.999Z</time>
      </trkpt>
      <trkpt lat="45.17495" lon="5.20065">
        <ele>524.42</ele>
        <time>2017-06-20T17:27:59.999Z</time>
      </trkpt>
      <trkpt lat="45.17502" lon="5.20075">
        <ele>524.33</ele>
        <time>2017-06-20T17:28:00.999Z</time>
      </trkpt>
      <trkpt lat="45.1751" lon="5.20085">
        <ele>524.1</ele>
        <time>2017-06-20T17:28:01.999Z</time>
      </trkpt>
      <trkpt lat="45.17516" lon="5.20096">
        <ele>523.71</ele>
        <time>2017-06-20T17:28:02.999Z</time>
      </trkpt>
      <trkpt lat="45.17522" lon="5.20109">
        <ele>523.17</ele>
        <time>2017-06-20T17:28:03.999Z</time>
      </trkpt>
      <trkpt lat="45.17528" lon="5.20123">
        <ele>522.74</ele>
        <time>2017-06-20T17:28:04.999Z</time>
      </trkpt>
      <trkpt lat="45.17534" lon="5.20138">
        <ele>522.24</ele>
        <time>2017-06-20T17:28:05.999Z</time>
      </trkpt>
      <trkpt lat="45.17539" lon="5.20153">
        <ele>521.62</ele>
        <time>2017-06-20T17:28:06.999Z</time>
      </trkpt>
      <trkpt lat="45.17545" lon="5.20168">
        <ele>520.98</ele>
        <time>2017-06-20T17:28:07.999Z</time>
      </trkpt>
      <trkpt lat="45.17551" lon="5.20181">
        <ele>520.29</ele>
        <time>2017-06-20T17:28:08.999Z</time>
      </trkpt>
      <trkpt lat="45.17556" lon="5.20195">
        <ele>519.6</ele>
        <time>2017-06-20T17:28:09.999Z</time>
      </trkpt>
      <trkpt lat="45.17562" lon="5.2021">
        <ele>519.23</ele>
        <time>2017-06-20T17:28:10.999Z</time>
      </trkpt>
      <trkpt lat="45.17567" lon="5.20224">
        <ele>518.84</ele>
        <time>2017-06-20T17:28:11.999Z</time>
      </trkpt>
      <trkpt lat="45.17576" lon="5.20258">
        <ele>517.93</ele>
        <time>2017-06-20T17:28:13.999Z</time>
      </trkpt>
      <trkpt lat="45.17578" lon="5.20276">
        <ele>517.3</ele>
        <time>2017-06-20T17:28:14.999Z</time>
      </trkpt>
      <trkpt lat="45.17579" lon="5.20293">
        <ele>516.62</ele>
        <time>2017-06-20T17:28:15.999Z</time>
      </trkpt>
      <trkpt lat="45.17579" lon="5.20311">
        <ele>515.5</ele>
        <time>2017-06-20T17:28:16.999Z</time>
      </trkpt>
      <trkpt lat="45.17579" lon="5.20327">
        <ele>514.67</ele>
        <time>2017-06-20T17:28:17.999Z</time>
      </trkpt>
      <trkpt lat="45.17579" lon="5.20343">
        <ele>513.73</ele>
        <time>2017-06-20T17:28:18.999Z</time>
      </trkpt>
      <trkpt lat="45.17582" lon="5.20358">
        <ele>512.62</ele>
        <time>2017-06-20T17:28:19.999Z</time>
      </trkpt>
      <trkpt lat="45.17585" lon="5.20371">
        <ele>511.9</ele>
        <time>2017-06-20T17:28:20.999Z</time>
      </trkpt>
      <trkpt lat="45.1759" lon="5.20382">
        <ele>511.07</ele>
        <time>2017-06-20T17:28:21.999Z</time>
      </trkpt>
      <trkpt lat="45.17596" lon="5.20392">
        <ele>510.49</ele>
        <time>2017-06-20T17:28:22.999Z</time>
      </trkpt>
      <trkpt lat="45.17604" lon="5.20403">
        <ele>510.2</ele>
        <time>2017-06-20T17:28:23.999Z</time>
      </trkpt>
      <trkpt lat="45.17613" lon="5.20413">
        <ele>509.53</ele>
        <time>2017-06-20T17:28:24.999Z</time>
      </trkpt>
      <trkpt lat="45.17621" lon="5.20424">
        <ele>508.24</ele>
        <time>2017-06-20T17:28:25.999Z</time>
      </trkpt>
      <trkpt lat="45.17629" lon="5.20434">
        <ele>507.33</ele>
        <time>2017-06-20T17:28:26.999Z</time>
      </trkpt>
      <trkpt lat="45.17638" lon="5.20444">
        <ele>506.51</ele>
        <time>2017-06-20T17:28:27.999Z</time>
      </trkpt>
      <trkpt lat="45.17656" lon="5.20465">
        <ele>504.97</ele>
        <time>2017-06-20T17:28:29.999Z</time>
      </trkpt>
      <trkpt lat="45.17665" lon="5.20476">
        <ele>504.13</ele>
        <time>2017-06-20T17:28:30.999Z</time>
      </trkpt>
      <trkpt lat="45.17674" lon="5.20486">
        <ele>503.01</ele>
        <time>2017-06-20T17:28:31.999Z</time>
      </trkpt>
      <trkpt lat="45.17684" lon="5.20497">
        <ele>501.89</ele>
        <time>2017-06-20T17:28:32.999Z</time>
      </trkpt>
      <trkpt lat="45.17693" lon="5.20507">
        <ele>500.56</ele>
        <time>2017-06-20T17:28:33.999Z</time>
      </trkpt>
      <trkpt lat="45.17703" lon="5.20517">
        <ele>499.37</ele>
        <time>2017-06-20T17:28:34.999Z</time>
      </trkpt>
      <trkpt lat="45.17712" lon="5.20527">
        <ele>498.16</ele>
        <time>2017-06-20T17:28:35.999Z</time>
      </trkpt>
      <trkpt lat="45.17722" lon="5.20537">
        <ele>497.23</ele>
        <time>2017-06-20T17:28:36.999Z</time>
      </trkpt>
      <trkpt lat="45.17731" lon="5.20545">
        <ele>496.2</ele>
        <time>2017-06-20T17:28:37.999Z</time>
      </trkpt>
      <trkpt lat="45.17741" lon="5.20554">
        <ele>495.5</ele>
        <time>2017-06-20T17:28:38.999Z</time>
      </trkpt>
      <trkpt lat="45.1775" lon="5.20563">
        <ele>494.91</ele>
        <time>2017-06-20T17:28:39.999Z</time>
      </trkpt>
      <trkpt lat="45.17764" lon="5.20581">
        <ele>494.53</ele>
        <time>2017-06-20T17:28:41.999Z</time>
      </trkpt>
      <trkpt lat="45.17775" lon="5.20603">
        <ele>494.39</ele>
        <time>2017-06-20T17:28:43.999Z</time>
      </trkpt>
      <trkpt lat="45.17778" lon="5.20616">
        <ele>494.11</ele>
        <time>2017-06-20T17:28:44.999Z</time>
      </trkpt>
      <trkpt lat="45.17778" lon="5.20631">
        <ele>493.68</ele>
        <time>2017-06-20T17:28:45.999Z</time>
      </trkpt>
      <trkpt lat="45.17776" lon="5.20645">
        <ele>492.72</ele>
        <time>2017-06-20T17:28:46.999Z</time>
      </trkpt>
      <trkpt lat="45.17773" lon="5.20659">
        <ele>491.36</ele>
        <time>2017-06-20T17:28:47.999Z</time>
      </trkpt>
      <trkpt lat="45.1777" lon="5.20673">
        <ele>489.83</ele>
        <time>2017-06-20T17:28:48.999Z</time>
      </trkpt>
      <trkpt lat="45.17767" lon="5.20687">
        <ele>488.63</ele>
        <time>2017-06-20T17:28:49.999Z</time>
      </trkpt>
      <trkpt lat="45.17764" lon="5.207">
        <ele>487.74</ele>
        <time>2017-06-20T17:28:50.999Z</time>
      </trkpt>
      <trkpt lat="45.17761" lon="5.20713">
        <ele>486.81</ele>
        <time>2017-06-20T17:28:51.999Z</time>
      </trkpt>
      <trkpt lat="45.17758" lon="5.20728">
        <ele>485.86</ele>
        <time>2017-06-20T17:28:52.999Z</time>
      </trkpt>
      <trkpt lat="45.17755" lon="5.20743">
        <ele>485.24</ele>
        <time>2017-06-20T17:28:53.999Z</time>
      </trkpt>
      <trkpt lat="45.17753" lon="5.20759">
        <ele>484.33</ele>
        <time>2017-06-20T17:28:54.999Z</time>
      </trkpt>
      <trkpt lat="45.17753" lon="5.20775">
        <ele>483.04</ele>
        <time>2017-06-20T17:28:55.999Z</time>
      </trkpt>
      <trkpt lat="45.17754" lon="5.20792">
        <ele>481.79</ele>
        <time>2017-06-20T17:28:56.999Z</time>
      </trkpt>
      <trkpt lat="45.17754" lon="5.20809">
        <ele>480.46</ele>
        <time>2017-06-20T17:28:57.999Z</time>
      </trkpt>
      <trkpt lat="45.17755" lon="5.20825">
        <ele>479.11</ele>
        <time>2017-06-20T17:28:58.999Z</time>
      </trkpt>
      <trkpt lat="45.17759" lon="5.2084">
        <ele>477.72</ele>
        <time>2017-06-20T17:28:59.999Z</time>
      </trkpt>
      <trkpt lat="45.17766" lon="5.20854">
        <ele>476.39</ele>
        <time>2017-06-20T17:29:00.999Z</time>
      </trkpt>
      <trkpt lat="45.17775" lon="5.20867">
        <ele>475.64</ele>
        <time>2017-06-20T17:29:01.999Z</time>
      </trkpt>
      <trkpt lat="45.17784" lon="5.20876">
        <ele>474.96</ele>
        <time>2017-06-20T17:29:02.999Z</time>
      </trkpt>
      <trkpt lat="45.17794" lon="5.20885">
        <ele>474.13</ele>
        <time>2017-06-20T17:29:03.999Z</time>
      </trkpt>
      <trkpt lat="45.17805" lon="5.20894">
        <ele>473.39</ele>
        <time>2017-06-20T17:29:04.999Z</time>
      </trkpt>
      <trkpt lat="45.17815" lon="5.20904">
        <ele>472.59</ele>
        <time>2017-06-20T17:29:05.999Z</time>
      </trkpt>
      <trkpt lat="45.17825" lon="5.20913">
        <ele>471.6</ele>
        <time>2017-06-20T17:29:06.999Z</time>
      </trkpt>
      <trkpt lat="45.17834" lon="5.20924">
        <ele>470.64</ele>
        <time>2017-06-20T17:29:07.999Z</time>
      </trkpt>
      <trkpt lat="45.17841" lon="5.20939">
        <ele>469.93</ele>
        <time>2017-06-20T17:29:08.999Z</time>
      </trkpt>
      <trkpt lat="45.17847" lon="5.20954">
        <ele>468.84</ele>
        <time>2017-06-20T17:29:09.999Z</time>
      </trkpt>
      <trkpt lat="45.17854" lon="5.20969">
        <ele>468.04</ele>
        <time>2017-06-20T17:29:10.999Z</time>
      </trkpt>
      <trkpt lat="45.17861" lon="5.20985">
        <ele>467.1</ele>
        <time>2017-06-20T17:29:11.999Z</time>
      </trkpt>
      <trkpt lat="45.17867" lon="5.21">
        <ele>466.45</ele>
        <time>2017-06-20T17:29:12.999Z</time>
      </trkpt>
      <trkpt lat="45.17873" lon="5.21014">
        <ele>466.18</ele>
        <time>2017-06-20T17:29:13.999Z</time>
      </trkpt>
      <trkpt lat="45.17878" lon="5.21029">
        <ele>466.05</ele>
        <time>2017-06-20T17:29:14.999Z</time>
      </trkpt>
      <trkpt lat="45.17883" lon="5.21045">
        <ele>465.85</ele>
        <time>2017-06-20T17:29:15.999Z</time>
      </trkpt>
      <trkpt lat="45.17887" lon="5.21062">
        <ele>465</ele>
        <time>2017-06-20T17:29:16.999Z</time>
      </trkpt>
      <trkpt lat="45.17889" lon="5.21081">
        <ele>463.64</ele>
        <time>2017-06-20T17:29:17.999Z</time>
      </trkpt>
      <trkpt lat="45.1789" lon="5.21099">
        <ele>462.38</ele>
        <time>2017-06-20T17:29:18.999Z</time>
      </trkpt>
      <trkpt lat="45.1789" lon="5.21116">
        <ele>460.98</ele>
        <time>2017-06-20T17:29:19.999Z</time>
      </trkpt>
      <trkpt lat="45.17889" lon="5.21132">
        <ele>459.75</ele>
        <time>2017-06-20T17:29:20.999Z</time>
      </trkpt>
      <trkpt lat="45.17887" lon="5.21148">
        <ele>458.57</ele>
        <time>2017-06-20T17:29:21.999Z</time>
      </trkpt>
      <trkpt lat="45.17882" lon="5.2116">
        <ele>457.42</ele>
        <time>2017-06-20T17:29:22.999Z</time>
      </trkpt>
      <trkpt lat="45.17875" lon="5.2117">
        <ele>456.07</ele>
        <time>2017-06-20T17:29:23.999Z</time>
      </trkpt>
      <trkpt lat="45.17867" lon="5.21177">
        <ele>454.94</ele>
        <time>2017-06-20T17:29:24.999Z</time>
      </trkpt>
      <trkpt lat="45.17857" lon="5.21182">
        <ele>454.4</ele>
        <time>2017-06-20T17:29:25.999Z</time>
      </trkpt>
      <trkpt lat="45.17848" lon="5.21186">
        <ele>453.9</ele>
        <time>2017-06-20T17:29:26.999Z</time>
      </trkpt>
      <trkpt lat="45.17839" lon="5.2119">
        <ele>453.51</ele>
        <time>2017-06-20T17:29:27.999Z</time>
      </trkpt>
      <trkpt lat="45.17829" lon="5.21195">
        <ele>453.26</ele>
        <time>2017-06-20T17:29:28.999Z</time>
      </trkpt>
      <trkpt lat="45.17819" lon="5.21199">
        <ele>452.75</ele>
        <time>2017-06-20T17:29:29.999Z</time>
      </trkpt>
      <trkpt lat="45.17808" lon="5.21204">
        <ele>452.17</ele>
        <time>2017-06-20T17:29:30.999Z</time>
      </trkpt>
      <trkpt lat="45.17797" lon="5.21209">
        <ele>451.15</ele>
        <time>2017-06-20T17:29:31.999Z</time>
      </trkpt>
      <trkpt lat="45.17786" lon="5.21214">
        <ele>450.15</ele>
        <time>2017-06-20T17:29:32.999Z</time>
      </trkpt>
      <trkpt lat="45.17776" lon="5.2122">
        <ele>449.53</ele>
        <time>2017-06-20T17:29:33.999Z</time>
      </trkpt>
      <trkpt lat="45.17764" lon="5.21225">
        <ele>448.8</ele>
        <time>2017-06-20T17:29:34.999Z</time>
      </trkpt>
      <trkpt lat="45.17753" lon="5.21231">
        <ele>448.47</ele>
        <time>2017-06-20T17:29:35.999Z</time>
      </trkpt>
      <trkpt lat="45.17742" lon="5.21237">
        <ele>448.2</ele>
        <time>2017-06-20T17:29:36.999Z</time>
      </trkpt>
      <trkpt lat="45.17732" lon="5.21244">
        <ele>447.69</ele>
        <time>2017-06-20T17:29:37.999Z</time>
      </trkpt>
      <trkpt lat="45.17721" lon="5.21251">
        <ele>446.91</ele>
        <time>2017-06-20T17:29:38.999Z</time>
      </trkpt>
      <trkpt lat="45.17711" lon="5.21259">
        <ele>445.97</ele>
        <time>2017-06-20T17:29:39.999Z</time>
      </trkpt>
      <trkpt lat="45.177" lon="5.21267">
        <ele>444.96</ele>
        <time>2017-06-20T17:29:40.999Z</time>
      </trkpt>
      <trkpt lat="45.1769" lon="5.21276">
        <ele>443.98</ele>
        <time>2017-06-20T17:29:41.999Z</time>
      </trkpt>
      <trkpt lat="45.1768" lon="5.21285">
        <ele>443.2</ele>
        <time>2017-06-20T17:29:42.999Z</time>
      </trkpt>
      <trkpt lat="45.17669" lon="5.21293">
        <ele>442.61</ele>
        <time>2017-06-20T17:29:43.999Z</time>
      </trkpt>
      <trkpt lat="45.17658" lon="5.21302">
        <ele>441.69</ele>
        <time>2017-06-20T17:29:44.999Z</time>
      </trkpt>
      <trkpt lat="45.17647" lon="5.21311">
        <ele>440.45</ele>
        <time>2017-06-20T17:29:45.999Z</time>
      </trkpt>
      <trkpt lat="45.17636" lon="5.2132">
        <ele>438.93</ele>
        <time>2017-06-20T17:29:46.999Z</time>
      </trkpt>
      <trkpt lat="45.17626" lon="5.21329">
        <ele>437.25</ele>
        <time>2017-06-20T17:29:47.999Z</time>
      </trkpt>
      <trkpt lat="45.17615" lon="5.21337">
        <ele>435.67</ele>
        <time>2017-06-20T17:29:48.999Z</time>
      </trkpt>
      <trkpt lat="45.17603" lon="5.21346">
        <ele>433.73</ele>
        <time>2017-06-20T17:29:49.999Z</time>
      </trkpt>
      <trkpt lat="45.17591" lon="5.21356">
        <ele>431.41</ele>
        <time>2017-06-20T17:29:50.999Z</time>
      </trkpt>
      <trkpt lat="45.17579" lon="5.21365">
        <ele>429.35</ele>
        <time>2017-06-20T17:29:51.999Z</time>
      </trkpt>
      <trkpt lat="45.17568" lon="5.21374">
        <ele>428.04</ele>
        <time>2017-06-20T17:29:52.999Z</time>
      </trkpt>
      <trkpt lat="45.17556" lon="5.21382">
        <ele>427.07</ele>
        <time>2017-06-20T17:29:53.999Z</time>
      </trkpt>
      <trkpt lat="45.17545" lon="5.21389">
        <ele>426.03</ele>
        <time>2017-06-20T17:29:54.999Z</time>
      </trkpt>
      <trkpt lat="45.17532" lon="5.21395">
        <ele>425.27</ele>
        <time>2017-06-20T17:29:55.999Z</time>
      </trkpt>
      <trkpt lat="45.17519" lon="5.214">
        <ele>424.15</ele>
        <time>2017-06-20T17:29:56.999Z</time>
      </trkpt>
      <trkpt lat="45.17508" lon="5.21405">
        <ele>423.04</ele>
        <time>2017-06-20T17:29:57.999Z</time>
      </trkpt>
      <trkpt lat="45.17495" lon="5.21414">
        <ele>421.7</ele>
        <time>2017-06-20T17:29:58.999Z</time>
      </trkpt>
      <trkpt lat="45.17485" lon="5.21426">
        <ele>420.65</ele>
        <time>2017-06-20T17:29:59.999Z</time>
      </trkpt>
      <trkpt lat="45.17475" lon="5.21438">
        <ele>419.49</ele>
        <time>2017-06-20T17:30:00.999Z</time>
      </trkpt>
      <trkpt lat="45.17464" lon="5.21449">
        <ele>418.38</ele>
        <time>2017-06-20T17:30:01.999Z</time>
      </trkpt>
      <trkpt lat="45.17453" lon="5.21461">
        <ele>417.07</ele>
        <time>2017-06-20T17:30:02.999Z</time>
      </trkpt>
      <trkpt lat="45.17443" lon="5.2147">
        <ele>415.66</ele>
        <time>2017-06-20T17:30:03.999Z</time>
      </trkpt>
      <trkpt lat="45.17434" lon="5.21479">
        <ele>415.06</ele>
        <time>2017-06-20T17:30:04.999Z</time>
      </trkpt>
      <trkpt lat="45.17425" lon="5.21488">
        <ele>414.15</ele>
        <time>2017-06-20T17:30:05.999Z</time>
      </trkpt>
      <trkpt lat="45.17415" lon="5.21505">
        <ele>411.9</ele>
        <time>2017-06-20T17:30:07.999Z</time>
      </trkpt>
      <trkpt lat="45.17417" lon="5.21522">
        <ele>410.3</ele>
        <time>2017-06-20T17:30:09.999Z</time>
      </trkpt>
      <trkpt lat="45.17429" lon="5.21531">
        <ele>408.24</ele>
        <time>2017-06-20T17:30:11.999Z</time>
      </trkpt>
      <trkpt lat="45.17443" lon="5.21538">
        <ele>406.89</ele>
        <time>2017-06-20T17:30:13.999Z</time>
      </trkpt>
      <trkpt lat="45.17456" lon="5.21541">
        <ele>406.34</ele>
        <time>2017-06-20T17:30:15.999Z</time>
      </trkpt>
      <trkpt lat="45.17468" lon="5.21541">
        <ele>406.21</ele>
        <time>2017-06-20T17:30:17.999Z</time>
      </trkpt>
      <trkpt lat="45.1748" lon="5.21542">
        <ele>406.9</ele>
        <time>2017-06-20T17:30:20.999Z</time>
      </trkpt>
      <trkpt lat="45.17497" lon="5.21538">
        <ele>407.59</ele>
        <time>2017-06-20T17:31:25.999Z</time>
      </trkpt>
      <trkpt lat="45.17505" lon="5.21523">
        <ele>408.91</ele>
        <time>2017-06-20T17:31:28.999Z</time>
      </trkpt>
      <trkpt lat="45.17513" lon="5.21514">
        <ele>410.23</ele>
        <time>2017-06-20T17:31:30.999Z</time>
      </trkpt>
      <trkpt lat="45.17522" lon="5.21505">
        <ele>410.54</ele>
        <time>2017-06-20T17:31:33.999Z</time>
      </trkpt>
      <trkpt lat="45.17531" lon="5.21497">
        <ele>409.59</ele>
        <time>2017-06-20T17:31:35.999Z</time>
      </trkpt>
      <trkpt lat="45.1754" lon="5.2149">
        <ele>409.5</ele>
        <time>2017-06-20T17:31:37.999Z</time>
      </trkpt>
      <trkpt lat="45.17549" lon="5.21482">
        <ele>409.12</ele>
        <time>2017-06-20T17:31:39.999Z</time>
      </trkpt>
      <trkpt lat="45.17559" lon="5.21475">
        <ele>409.58</ele>
        <time>2017-06-20T17:31:42.999Z</time>
      </trkpt>
      <trkpt lat="45.17567" lon="5.21471">
        <ele>409.4</ele>
        <time>2017-06-20T17:31:45.999Z</time>
      </trkpt>
      <trkpt lat="45.17575" lon="5.21463">
        <ele>409.14</ele>
        <time>2017-06-20T17:31:49.999Z</time>
      </trkpt>
      <trkpt lat="45.17567" lon="5.21469">
        <ele>408.8</ele>
        <time>2017-06-20T17:31:57.999Z</time>
      </trkpt>
      <trkpt lat="45.17558" lon="5.21474">
        <ele>408.62</ele>
        <time>2017-06-20T17:32:00.999Z</time>
      </trkpt>
      <trkpt lat="45.17548" lon="5.21481">
        <ele>408.57</ele>
        <time>2017-06-20T17:32:04.999Z</time>
      </trkpt>
      <trkpt lat="45.17539" lon="5.2149">
        <ele>408.47</ele>
        <time>2017-06-20T17:32:08.999Z</time>
      </trkpt>
      <trkpt lat="45.1753" lon="5.21499">
        <ele>408.41</ele>
        <time>2017-06-20T17:32:11.999Z</time>
      </trkpt>
      <trkpt lat="45.17522" lon="5.2151">
        <ele>408.44</ele>
        <time>2017-06-20T17:32:15.999Z</time>
      </trkpt>
      <trkpt lat="45.17515" lon="5.21518">
        <ele>408.72</ele>
        <time>2017-06-20T17:32:18.999Z</time>
      </trkpt>
      <trkpt lat="45.17505" lon="5.21527">
        <ele>409.08</ele>
        <time>2017-06-20T17:32:22.999Z</time>
      </trkpt>
      <trkpt lat="45.175" lon="5.21539">
        <ele>410.13</ele>
        <time>2017-06-20T17:32:25.999Z</time>
      </trkpt>
      <trkpt lat="45.17493" lon="5.21548">
        <ele>410.45</ele>
        <time>2017-06-20T17:32:28.999Z</time>
      </trkpt>
      <trkpt lat="45.17485" lon="5.21557">
        <ele>410.78</ele>
        <time>2017-06-20T17:32:31.999Z</time>
      </trkpt>
      <trkpt lat="45.17476" lon="5.21569">
        <ele>411.21</ele>
        <time>2017-06-20T17:32:34.999Z</time>
      </trkpt>
      <trkpt lat="45.17468" lon="5.21582">
        <ele>411.46</ele>
        <time>2017-06-20T17:32:37.999Z</time>
      </trkpt>
      <trkpt lat="45.1746" lon="5.21595">
        <ele>411.39</ele>
        <time>2017-06-20T17:32:40.999Z</time>
      </trkpt>
      <trkpt lat="45.17455" lon="5.21611">
        <ele>410.43</ele>
        <time>2017-06-20T17:32:43.999Z</time>
      </trkpt>
      <trkpt lat="45.1745" lon="5.21624">
        <ele>410.23</ele>
        <time>2017-06-20T17:32:46.999Z</time>
      </trkpt>
      <trkpt lat="45.17442" lon="5.21631">
        <ele>410.03</ele>
        <time>2017-06-20T17:32:49.999Z</time>
      </trkpt>
      <trkpt lat="45.17437" lon="5.21642">
        <ele>409.97</ele>
        <time>2017-06-20T17:32:51.999Z</time>
      </trkpt>
      <trkpt lat="45.17431" lon="5.21657">
        <ele>410.01</ele>
        <time>2017-06-20T17:32:54.999Z</time>
      </trkpt>
      <trkpt lat="45.17424" lon="5.2167">
        <ele>410.23</ele>
        <time>2017-06-20T17:32:57.999Z</time>
      </trkpt>
      <trkpt lat="45.17417" lon="5.21686">
        <ele>408.15</ele>
        <time>2017-06-20T17:33:00.999Z</time>
      </trkpt>
      <trkpt lat="45.17412" lon="5.21697">
        <ele>406.11</ele>
        <time>2017-06-20T17:33:02.999Z</time>
      </trkpt>
      <trkpt lat="45.17404" lon="5.21709">
        <ele>402.77</ele>
        <time>2017-06-20T17:33:05.999Z</time>
      </trkpt>
      <trkpt lat="45.17398" lon="5.2172">
        <ele>401.85</ele>
        <time>2017-06-20T17:33:07.999Z</time>
      </trkpt>
      <trkpt lat="45.17391" lon="5.21731">
        <ele>401.28</ele>
        <time>2017-06-20T17:33:09.999Z</time>
      </trkpt>
      <trkpt lat="45.17385" lon="5.21744">
        <ele>401.29</ele>
        <time>2017-06-20T17:33:11.999Z</time>
      </trkpt>
      <trkpt lat="45.17379" lon="5.21756">
        <ele>401.57</ele>
        <time>2017-06-20T17:33:13.999Z</time>
      </trkpt>
      <trkpt lat="45.17373" lon="5.21767">
        <ele>402.4</ele>
        <time>2017-06-20T17:33:15.999Z</time>
      </trkpt>
      <trkpt lat="45.17366" lon="5.21783">
        <ele>405.57</ele>
        <time>2017-06-20T17:33:18.999Z</time>
      </trkpt>
      <trkpt lat="45.17361" lon="5.21796">
        <ele>406.41</ele>
        <time>2017-06-20T17:33:20.999Z</time>
      </trkpt>
      <trkpt lat="45.17355" lon="5.21812">
        <ele>407.42</ele>
        <time>2017-06-20T17:33:23.999Z</time>
      </trkpt>
      <trkpt lat="45.1735" lon="5.21827">
        <ele>407.5</ele>
        <time>2017-06-20T17:33:26.999Z</time>
      </trkpt>
      <trkpt lat="45.17346" lon="5.21841">
        <ele>407.19</ele>
        <time>2017-06-20T17:33:30.999Z</time>
      </trkpt>
      <trkpt lat="45.17342" lon="5.21853">
        <ele>406.88</ele>
        <time>2017-06-20T17:33:33.999Z</time>
      </trkpt>
      <trkpt lat="45.17338" lon="5.21869">
        <ele>406.04</ele>
        <time>2017-06-20T17:33:36.999Z</time>
      </trkpt>
      <trkpt lat="45.17335" lon="5.21885">
        <ele>404.5</ele>
        <time>2017-06-20T17:33:39.999Z</time>
      </trkpt>
      <trkpt lat="45.17334" lon="5.21903">
        <ele>402.93</ele>
        <time>2017-06-20T17:33:42.999Z</time>
      </trkpt>
      <trkpt lat="45.17334" lon="5.21916">
        <ele>403.28</ele>
        <time>2017-06-20T17:33:44.999Z</time>
      </trkpt>
      <trkpt lat="45.17335" lon="5.21929">
        <ele>403.25</ele>
        <time>2017-06-20T17:33:46.999Z</time>
      </trkpt>
      <trkpt lat="45.17337" lon="5.21941">
        <ele>403.1</ele>
        <time>2017-06-20T17:33:50.999Z</time>
      </trkpt>
      <trkpt lat="45.17339" lon="5.21926">
        <ele>403.14</ele>
        <time>2017-06-20T17:33:54.999Z</time>
      </trkpt>
      <trkpt lat="45.17338" lon="5.21911">
        <ele>403.3</ele>
        <time>2017-06-20T17:33:57.999Z</time>
      </trkpt>
      <trkpt lat="45.17337" lon="5.21896">
        <ele>403.49</ele>
        <time>2017-06-20T17:34:00.999Z</time>
      </trkpt>
      <trkpt lat="45.17338" lon="5.21881">
        <ele>404.07</ele>
        <time>2017-06-20T17:34:03.999Z</time>
      </trkpt>
      <trkpt lat="45.17339" lon="5.21864">
        <ele>405.49</ele>
        <time>2017-06-20T17:34:06.999Z</time>
      </trkpt>
      <trkpt lat="45.17343" lon="5.21847">
        <ele>406.36</ele>
        <time>2017-06-20T17:34:09.999Z</time>
      </trkpt>
      <trkpt lat="45.17348" lon="5.21833">
        <ele>407.13</ele>
        <time>2017-06-20T17:34:12.999Z</time>
      </trkpt>
      <trkpt lat="45.17354" lon="5.21822">
        <ele>407.22</ele>
        <time>2017-06-20T17:34:15.999Z</time>
      </trkpt>
      <trkpt lat="45.17359" lon="5.2181">
        <ele>407.79</ele>
        <time>2017-06-20T17:34:18.999Z</time>
      </trkpt>
      <trkpt lat="45.17366" lon="5.21797">
        <ele>408.15</ele>
        <time>2017-06-20T17:34:21.999Z</time>
      </trkpt>
      <trkpt lat="45.17372" lon="5.21784">
        <ele>408.18</ele>
        <time>2017-06-20T17:34:24.999Z</time>
      </trkpt>
      <trkpt lat="45.17379" lon="5.21773">
        <ele>408.23</ele>
        <time>2017-06-20T17:34:27.999Z</time>
      </trkpt>
      <trkpt lat="45.17386" lon="5.21761">
        <ele>408.18</ele>
        <time>2017-06-20T17:34:31.999Z</time>
      </trkpt>
      <trkpt lat="45.17392" lon="5.21748">
        <ele>408.28</ele>
        <time>2017-06-20T17:34:37.999Z</time>
      </trkpt>
      <trkpt lat="45.17383" lon="5.21763">
        <ele>408.38</ele>
        <time>2017-06-20T17:34:47.999Z</time>
      </trkpt>
      <trkpt lat="45.17376" lon="5.21778">
        <ele>406.89</ele>
        <time>2017-06-20T17:34:50.999Z</time>
      </trkpt>
      <trkpt lat="45.17369" lon="5.21794">
        <ele>405.75</ele>
        <time>2017-06-20T17:34:53.999Z</time>
      </trkpt>
      <trkpt lat="45.17363" lon="5.21805">
        <ele>405.96</ele>
        <time>2017-06-20T17:34:55.999Z</time>
      </trkpt>
      <trkpt lat="45.17357" lon="5.21818">
        <ele>405.95</ele>
        <time>2017-06-20T17:34:57.999Z</time>
      </trkpt>
      <trkpt lat="45.17349" lon="5.21833">
        <ele>405.09</ele>
        <time>2017-06-20T17:35:00.999Z</time>
      </trkpt>
      <trkpt lat="45.17342" lon="5.21846">
        <ele>404.53</ele>
        <time>2017-06-20T17:35:02.999Z</time>
      </trkpt>
      <trkpt lat="45.17338" lon="5.21858">
        <ele>403.65</ele>
        <time>2017-06-20T17:35:04.999Z</time>
      </trkpt>
      <trkpt lat="45.17335" lon="5.21874">
        <ele>403.39</ele>
        <time>2017-06-20T17:35:06.999Z</time>
      </trkpt>
      <trkpt lat="45.17334" lon="5.21888">
        <ele>403.7</ele>
        <time>2017-06-20T17:35:08.999Z</time>
      </trkpt>
      <trkpt lat="45.17335" lon="5.21904">
        <ele>403.31</ele>
        <time>2017-06-20T17:35:10.999Z</time>
      </trkpt>
      <trkpt lat="45.17336" lon="5.21918">
        <ele>403.33</ele>
        <time>2017-06-20T17:35:12.999Z</time>
      </trkpt>
      <trkpt lat="45.17336" lon="5.21933">
        <ele>403.37</ele>
        <time>2017-06-20T17:35:14.999Z</time>
      </trkpt>
      <trkpt lat="45.17337" lon="5.21949">
        <ele>403.45</ele>
        <time>2017-06-20T17:35:16.999Z</time>
      </trkpt>
      <trkpt lat="45.17338" lon="5.21965">
        <ele>403.34</ele>
        <time>2017-06-20T17:35:18.999Z</time>
      </trkpt>
      <trkpt lat="45.17338" lon="5.21981">
        <ele>403.29</ele>
        <time>2017-06-20T17:35:20.999Z</time>
      </trkpt>
      <trkpt lat="45.17339" lon="5.21997">
        <ele>403.31</ele>
        <time>2017-06-20T17:35:22.999Z</time>
      </trkpt>
      <trkpt lat="45.1734" lon="5.22012">
        <ele>403.23</ele>
        <time>2017-06-20T17:35:24.999Z</time>
      </trkpt>
      <trkpt lat="45.1734" lon="5.22029">
        <ele>402.63</ele>
        <time>2017-06-20T17:35:26.999Z</time>
      </trkpt>
      <trkpt lat="45.1734" lon="5.22045">
        <ele>402.18</ele>
        <time>2017-06-20T17:35:28.999Z</time>
      </trkpt>
      <trkpt lat="45.17339" lon="5.2206">
        <ele>401.42</ele>
        <time>2017-06-20T17:35:30.999Z</time>
      </trkpt>
      <trkpt lat="45.17339" lon="5.22074">
        <ele>400.78</ele>
        <time>2017-06-20T17:35:32.999Z</time>
      </trkpt>
      <trkpt lat="45.17339" lon="5.2209">
        <ele>400.78</ele>
        <time>2017-06-20T17:35:34.999Z</time>
      </trkpt>
      <trkpt lat="45.17339" lon="5.22105">
        <ele>400.63</ele>
        <time>2017-06-20T17:35:36.999Z</time>
      </trkpt>
      <trkpt lat="45.17339" lon="5.2212">
        <ele>401.26</ele>
        <time>2017-06-20T17:35:38.999Z</time>
      </trkpt>
      <trkpt lat="45.17339" lon="5.22135">
        <ele>401.08</ele>
        <time>2017-06-20T17:35:40.999Z</time>
      </trkpt>
      <trkpt lat="45.17339" lon="5.2215">
        <ele>400.5</ele>
        <time>2017-06-20T17:35:42.999Z</time>
      </trkpt>
      <trkpt lat="45.17339" lon="5.22164">
        <ele>399.87</ele>
        <time>2017-06-20T17:35:44.999Z</time>
      </trkpt>
      <trkpt lat="45.17339" lon="5.22182">
        <ele>400.21</ele>
        <time>2017-06-20T17:35:47.999Z</time>
      </trkpt>
      <trkpt lat="45.1734" lon="5.22196">
        <ele>400.88</ele>
        <time>2017-06-20T17:35:49.999Z</time>
      </trkpt>
      <trkpt lat="45.17341" lon="5.22212">
        <ele>400.77</ele>
        <time>2017-06-20T17:35:51.999Z</time>
      </trkpt>
      <trkpt lat="45.17342" lon="5.22225">
        <ele>400.44</ele>
        <time>2017-06-20T17:35:53.999Z</time>
      </trkpt>
      <trkpt lat="45.1735" lon="5.22235">
        <ele>399.31</ele>
        <time>2017-06-20T17:35:56.999Z</time>
      </trkpt>
      <trkpt lat="45.1736" lon="5.22231">
        <ele>399.03</ele>
        <time>2017-06-20T17:35:59.999Z</time>
      </trkpt>
      <trkpt lat="45.17366" lon="5.22219">
        <ele>399.31</ele>
        <time>2017-06-20T17:36:02.999Z</time>
      </trkpt>
      <trkpt lat="45.1737" lon="5.22202">
        <ele>402.91</ele>
        <time>2017-06-20T17:36:05.999Z</time>
      </trkpt>
      <trkpt lat="45.17373" lon="5.22189">
        <ele>404.53</ele>
        <time>2017-06-20T17:36:08.999Z</time>
      </trkpt>
      <trkpt lat="45.17376" lon="5.22173">
        <ele>404.87</ele>
        <time>2017-06-20T17:36:11.999Z</time>
      </trkpt>
      <trkpt lat="45.17378" lon="5.22158">
        <ele>405.08</ele>
        <time>2017-06-20T17:36:14.999Z</time>
      </trkpt>
      <trkpt lat="45.1738" lon="5.22142">
        <ele>405.34</ele>
        <time>2017-06-20T17:36:17.999Z</time>
      </trkpt>
      <trkpt lat="45.17382" lon="5.22127">
        <ele>405.5</ele>
        <time>2017-06-20T17:36:20.999Z</time>
      </trkpt>
      <trkpt lat="45.17384" lon="5.22113">
        <ele>405.72</ele>
        <time>2017-06-20T17:36:23.999Z</time>
      </trkpt>
      <trkpt lat="45.17387" lon="5.22095">
        <ele>406.06</ele>
        <time>2017-06-20T17:36:27.999Z</time>
      </trkpt>
      <trkpt lat="45.17389" lon="5.22079">
        <ele>406.3</ele>
        <time>2017-06-20T17:36:31.999Z</time>
      </trkpt>
      <trkpt lat="45.1739" lon="5.22066">
        <ele>406.52</ele>
        <time>2017-06-20T17:36:34.999Z</time>
      </trkpt>
      <trkpt lat="45.17392" lon="5.22051">
        <ele>406.78</ele>
        <time>2017-06-20T17:36:37.999Z</time>
      </trkpt>
      <trkpt lat="45.17392" lon="5.22038">
        <ele>407.04</ele>
        <time>2017-06-20T17:36:40.999Z</time>
      </trkpt>
      <trkpt lat="45.17392" lon="5.22022">
        <ele>407.38</ele>
        <time>2017-06-20T17:36:44.999Z</time>
      </trkpt>
      <trkpt lat="45.17395" lon="5.22005">
        <ele>407.8</ele>
        <time>2017-06-20T17:36:48.999Z</time>
      </trkpt>
      <trkpt lat="45.17396" lon="5.21992">
        <ele>408.13</ele>
        <time>2017-06-20T17:36:51.999Z</time>
      </trkpt>
      <trkpt lat="45.17399" lon="5.21977">
        <ele>408.56</ele>
        <time>2017-06-20T17:36:54.999Z</time>
      </trkpt>
      <trkpt lat="45.174" lon="5.21962">
        <ele>408.9</ele>
        <time>2017-06-20T17:36:57.999Z</time>
      </trkpt>
      <trkpt lat="45.17401" lon="5.21946">
        <ele>409.24</ele>
        <time>2017-06-20T17:37:00.999Z</time>
      </trkpt>
      <trkpt lat="45.17401" lon="5.21931">
        <ele>409.65</ele>
        <time>2017-06-20T17:37:03.999Z</time>
      </trkpt>
      <trkpt lat="45.17402" lon="5.21917">
        <ele>410.08</ele>
        <time>2017-06-20T17:37:06.999Z</time>
      </trkpt>
      <trkpt lat="45.17403" lon="5.21903">
        <ele>411.5</ele>
        <time>2017-06-20T17:37:09.999Z</time>
      </trkpt>
      <trkpt lat="45.17403" lon="5.2189">
        <ele>413.02</ele>
        <time>2017-06-20T17:37:12.999Z</time>
      </trkpt>
      <trkpt lat="45.17406" lon="5.21872">
        <ele>415.8</ele>
        <time>2017-06-20T17:37:15.999Z</time>
      </trkpt>
      <trkpt lat="45.17409" lon="5.21856">
        <ele>417.43</ele>
        <time>2017-06-20T17:37:18.999Z</time>
      </trkpt>
      <trkpt lat="45.17413" lon="5.21842">
        <ele>418.79</ele>
        <time>2017-06-20T17:37:21.999Z</time>
      </trkpt>
      <trkpt lat="45.17418" lon="5.21826">
        <ele>418.64</ele>
        <time>2017-06-20T17:37:24.999Z</time>
      </trkpt>
      <trkpt lat="45.17424" lon="5.21813">
        <ele>418.69</ele>
        <time>2017-06-20T17:37:27.999Z</time>
      </trkpt>
      <trkpt lat="45.1743" lon="5.21801">
        <ele>418.65</ele>
        <time>2017-06-20T17:37:30.999Z</time>
      </trkpt>
      <trkpt lat="45.17436" lon="5.21789">
        <ele>418.93</ele>
        <time>2017-06-20T17:37:34.999Z</time>
      </trkpt>
      <trkpt lat="45.17442" lon="5.21776">
        <ele>419.35</ele>
        <time>2017-06-20T17:37:38.999Z</time>
      </trkpt>
      <trkpt lat="45.17448" lon="5.21767">
        <ele>419.78</ele>
        <time>2017-06-20T17:37:41.999Z</time>
      </trkpt>
      <trkpt lat="45.17455" lon="5.21755">
        <ele>420.28</ele>
        <time>2017-06-20T17:37:45.999Z</time>
      </trkpt>
      <trkpt lat="45.17463" lon="5.21749">
        <ele>420.84</ele>
        <time>2017-06-20T17:37:50.999Z</time>
      </trkpt>
      <trkpt lat="45.17473" lon="5.21748">
        <ele>421.28</ele>
        <time>2017-06-20T17:37:54.999Z</time>
      </trkpt>
      <trkpt lat="45.17483" lon="5.21748">
        <ele>421.73</ele>
        <time>2017-06-20T17:37:59.999Z</time>
      </trkpt>
      <trkpt lat="45.17493" lon="5.2175">
        <ele>421.9</ele>
        <time>2017-06-20T17:38:04.999Z</time>
      </trkpt>
      <trkpt lat="45.17503" lon="5.21748">
        <ele>422.25</ele>
        <time>2017-06-20T17:38:09.999Z</time>
      </trkpt>
      <trkpt lat="45.17511" lon="5.2174">
        <ele>423.13</ele>
        <time>2017-06-20T17:38:15.999Z</time>
      </trkpt>
      <trkpt lat="45.17519" lon="5.21732">
        <ele>423.98</ele>
        <time>2017-06-20T17:38:20.999Z</time>
      </trkpt>
      <trkpt lat="45.17526" lon="5.21722">
        <ele>425.08</ele>
        <time>2017-06-20T17:38:26.999Z</time>
      </trkpt>
      <trkpt lat="45.17531" lon="5.21709">
        <ele>426.02</ele>
        <time>2017-06-20T17:38:31.999Z</time>
      </trkpt>
      <trkpt lat="45.17538" lon="5.21698">
        <ele>426.66</ele>
        <time>2017-06-20T17:38:35.999Z</time>
      </trkpt>
      <trkpt lat="45.17545" lon="5.21688">
        <ele>427.42</ele>
        <time>2017-06-20T17:38:40.999Z</time>
      </trkpt>
      <trkpt lat="45.17554" lon="5.21676">
        <ele>427.98</ele>
        <time>2017-06-20T17:38:44.999Z</time>
      </trkpt>
      <trkpt lat="45.1756" lon="5.21666">
        <ele>428.52</ele>
        <time>2017-06-20T17:38:48.999Z</time>
      </trkpt>
      <trkpt lat="45.17566" lon="5.21655">
        <ele>429.01</ele>
        <time>2017-06-20T17:38:52.999Z</time>
      </trkpt>
      <trkpt lat="45.17574" lon="5.21645">
        <ele>429.24</ele>
        <time>2017-06-20T17:38:57.999Z</time>
      </trkpt>
      <trkpt lat="45.17582" lon="5.21635">
        <ele>429.51</ele>
        <time>2017-06-20T17:39:02.999Z</time>
      </trkpt>
      <trkpt lat="45.17588" lon="5.21626">
        <ele>429.76</ele>
        <time>2017-06-20T17:39:06.999Z</time>
      </trkpt>
      <trkpt lat="45.17594" lon="5.21614">
        <ele>429.89</ele>
        <time>2017-06-20T17:39:10.999Z</time>
      </trkpt>
      <trkpt lat="45.17597" lon="5.216">
        <ele>430.38</ele>
        <time>2017-06-20T17:39:15.999Z</time>
      </trkpt>
      <trkpt lat="45.17603" lon="5.2159">
        <ele>431.67</ele>
        <time>2017-06-20T17:40:03.999Z</time>
      </trkpt>
      <trkpt lat="45.17608" lon="5.21578">
        <ele>432.19</ele>
        <time>2017-06-20T17:40:08.999Z</time>
      </trkpt>
      <trkpt lat="45.17617" lon="5.21571">
        <ele>432.4</ele>
        <time>2017-06-20T17:40:15.999Z</time>
      </trkpt>
      <trkpt lat="45.17627" lon="5.21568">
        <ele>432.57</ele>
        <time>2017-06-20T17:40:20.999Z</time>
      </trkpt>
      <trkpt lat="45.17618" lon="5.21575">
        <ele>432.65</ele>
        <time>2017-06-20T17:40:30.999Z</time>
      </trkpt>
      <trkpt lat="45.17608" lon="5.21577">
        <ele>433.01</ele>
        <time>2017-06-20T17:40:35.999Z</time>
      </trkpt>
      <trkpt lat="45.17598" lon="5.21577">
        <ele>431.63</ele>
        <time>2017-06-20T17:40:56.999Z</time>
      </trkpt>
      <trkpt lat="45.17589" lon="5.21579">
        <ele>430.46</ele>
        <time>2017-06-20T17:41:06.999Z</time>
      </trkpt>
      <trkpt lat="45.176" lon="5.21578">
        <ele>431.11</ele>
        <time>2017-06-20T17:41:18.999Z</time>
      </trkpt>
      <trkpt lat="45.17609" lon="5.2157">
        <ele>430.05</ele>
        <time>2017-06-20T17:41:21.999Z</time>
      </trkpt>
      <trkpt lat="45.17616" lon="5.2156">
        <ele>428.6</ele>
        <time>2017-06-20T17:41:23.999Z</time>
      </trkpt>
      <trkpt lat="45.17625" lon="5.21551">
        <ele>427.99</ele>
        <time>2017-06-20T17:41:25.999Z</time>
      </trkpt>
      <trkpt lat="45.17636" lon="5.21543">
        <ele>428.84</ele>
        <time>2017-06-20T17:41:28.999Z</time>
      </trkpt>
      <trkpt lat="45.17648" lon="5.21539">
        <ele>428.06</ele>
        <time>2017-06-20T17:41:31.999Z</time>
      </trkpt>
      <trkpt lat="45.17656" lon="5.21534">
        <ele>428.61</ele>
        <time>2017-06-20T17:41:33.999Z</time>
      </trkpt>
      <trkpt lat="45.17662" lon="5.21521">
        <ele>429.47</ele>
        <time>2017-06-20T17:41:35.999Z</time>
      </trkpt>
      <trkpt lat="45.17667" lon="5.21502">
        <ele>427.89</ele>
        <time>2017-06-20T17:41:38.999Z</time>
      </trkpt>
      <trkpt lat="45.17675" lon="5.21486">
        <ele>426.34</ele>
        <time>2017-06-20T17:41:40.999Z</time>
      </trkpt>
      <trkpt lat="45.17685" lon="5.21474">
        <ele>424.11</ele>
        <time>2017-06-20T17:41:42.999Z</time>
      </trkpt>
      <trkpt lat="45.17693" lon="5.21465">
        <ele>421.91</ele>
        <time>2017-06-20T17:41:44.999Z</time>
      </trkpt>
      <trkpt lat="45.17701" lon="5.21454">
        <ele>418.57</ele>
        <time>2017-06-20T17:41:47.999Z</time>
      </trkpt>
      <trkpt lat="45.17708" lon="5.21445">
        <ele>417.59</ele>
        <time>2017-06-20T17:41:49.999Z</time>
      </trkpt>
      <trkpt lat="45.17716" lon="5.21439">
        <ele>417.52</ele>
        <time>2017-06-20T17:41:51.999Z</time>
      </trkpt>
      <trkpt lat="45.17725" lon="5.21432">
        <ele>412.33</ele>
        <time>2017-06-20T17:43:02.999Z</time>
      </trkpt>
      <trkpt lat="45.17734" lon="5.21421">
        <ele>412.79</ele>
        <time>2017-06-20T17:43:06.999Z</time>
      </trkpt>
      <trkpt lat="45.17743" lon="5.21408">
        <ele>413.46</ele>
        <time>2017-06-20T17:43:10.999Z</time>
      </trkpt>
      <trkpt lat="45.17751" lon="5.21395">
        <ele>414.85</ele>
        <time>2017-06-20T17:43:13.999Z</time>
      </trkpt>
      <trkpt lat="45.17761" lon="5.21385">
        <ele>416.19</ele>
        <time>2017-06-20T17:43:15.999Z</time>
      </trkpt>
      <trkpt lat="45.1777" lon="5.21378">
        <ele>416</ele>
        <time>2017-06-20T17:43:17.999Z</time>
      </trkpt>
      <trkpt lat="45.17779" lon="5.21375">
        <ele>415.13</ele>
        <time>2017-06-20T17:43:19.999Z</time>
      </trkpt>
      <trkpt lat="45.17788" lon="5.21372">
        <ele>415.03</ele>
        <time>2017-06-20T17:43:21.999Z</time>
      </trkpt>
      <trkpt lat="45.17798" lon="5.21371">
        <ele>415.18</ele>
        <time>2017-06-20T17:43:23.999Z</time>
      </trkpt>
      <trkpt lat="45.17809" lon="5.21368">
        <ele>416.25</ele>
        <time>2017-06-20T17:43:25.999Z</time>
      </trkpt>
      <trkpt lat="45.17821" lon="5.21365">
        <ele>417.51</ele>
        <time>2017-06-20T17:43:28.999Z</time>
      </trkpt>
      <trkpt lat="45.1783" lon="5.21364">
        <ele>417.62</ele>
        <time>2017-06-20T17:43:30.999Z</time>
      </trkpt>
      <trkpt lat="45.17843" lon="5.21363">
        <ele>417.58</ele>
        <time>2017-06-20T17:43:33.999Z</time>
      </trkpt>
      <trkpt lat="45.17854" lon="5.2136">
        <ele>418.27</ele>
        <time>2017-06-20T17:43:36.999Z</time>
      </trkpt>
      <trkpt lat="45.17864" lon="5.21357">
        <ele>418.4</ele>
        <time>2017-06-20T17:43:39.999Z</time>
      </trkpt>
      <trkpt lat="45.17876" lon="5.21355">
        <ele>418.6</ele>
        <time>2017-06-20T17:43:42.999Z</time>
      </trkpt>
      <trkpt lat="45.17886" lon="5.21351">
        <ele>418.82</ele>
        <time>2017-06-20T17:43:45.999Z</time>
      </trkpt>
      <trkpt lat="45.17897" lon="5.21351">
        <ele>419.45</ele>
        <time>2017-06-20T17:43:49.999Z</time>
      </trkpt>
      <trkpt lat="45.17907" lon="5.21353">
        <ele>419.94</ele>
        <time>2017-06-20T17:43:52.999Z</time>
      </trkpt>
      <trkpt lat="45.17917" lon="5.21357">
        <ele>420.35</ele>
        <time>2017-06-20T17:43:55.999Z</time>
      </trkpt>
      <trkpt lat="45.17927" lon="5.21365">
        <ele>422.05</ele>
        <time>2017-06-20T17:43:58.999Z</time>
      </trkpt>
      <trkpt lat="45.17936" lon="5.21374">
        <ele>422.38</ele>
        <time>2017-06-20T17:44:01.999Z</time>
      </trkpt>
      <trkpt lat="45.17945" lon="5.21382">
        <ele>422.8</ele>
        <time>2017-06-20T17:44:04.999Z</time>
      </trkpt>
      <trkpt lat="45.17955" lon="5.21391">
        <ele>424.56</ele>
        <time>2017-06-20T17:44:07.999Z</time>
      </trkpt>
      <trkpt lat="45.17965" lon="5.21398">
        <ele>425.05</ele>
        <time>2017-06-20T17:44:10.999Z</time>
      </trkpt>
      <trkpt lat="45.17974" lon="5.21406">
        <ele>425.43</ele>
        <time>2017-06-20T17:44:13.999Z</time>
      </trkpt>
      <trkpt lat="45.17983" lon="5.21413">
        <ele>425.79</ele>
        <time>2017-06-20T17:44:16.999Z</time>
      </trkpt>
      <trkpt lat="45.17993" lon="5.2142">
        <ele>426.09</ele>
        <time>2017-06-20T17:44:19.999Z</time>
      </trkpt>
      <trkpt lat="45.18003" lon="5.21426">
        <ele>426.32</ele>
        <time>2017-06-20T17:44:22.999Z</time>
      </trkpt>
      <trkpt lat="45.18014" lon="5.21431">
        <ele>426.53</ele>
        <time>2017-06-20T17:44:25.999Z</time>
      </trkpt>
      <trkpt lat="45.18026" lon="5.21433">
        <ele>426.58</ele>
        <time>2017-06-20T17:44:28.999Z</time>
      </trkpt>
      <trkpt lat="45.18036" lon="5.21433">
        <ele>426.68</ele>
        <time>2017-06-20T17:44:31.999Z</time>
      </trkpt>
      <trkpt lat="45.18047" lon="5.21433">
        <ele>426.44</ele>
        <time>2017-06-20T17:44:34.999Z</time>
      </trkpt>
      <trkpt lat="45.18059" lon="5.2143">
        <ele>426.6</ele>
        <time>2017-06-20T17:44:37.999Z</time>
      </trkpt>
      <trkpt lat="45.1807" lon="5.21428">
        <ele>426.88</ele>
        <time>2017-06-20T17:44:41.999Z</time>
      </trkpt>
      <trkpt lat="45.18079" lon="5.21426">
        <ele>427.19</ele>
        <time>2017-06-20T17:44:44.999Z</time>
      </trkpt>
      <trkpt lat="45.1809" lon="5.21425">
        <ele>427.48</ele>
        <time>2017-06-20T17:44:47.999Z</time>
      </trkpt>
      <trkpt lat="45.18099" lon="5.21423">
        <ele>427.67</ele>
        <time>2017-06-20T17:44:50.999Z</time>
      </trkpt>
      <trkpt lat="45.18109" lon="5.21422">
        <ele>428.08</ele>
        <time>2017-06-20T17:44:53.999Z</time>
      </trkpt>
      <trkpt lat="45.18119" lon="5.21422">
        <ele>428.68</ele>
        <time>2017-06-20T17:44:56.999Z</time>
      </trkpt>
      <trkpt lat="45.18129" lon="5.21423">
        <ele>429.4</ele>
        <time>2017-06-20T17:44:59.999Z</time>
      </trkpt>
      <trkpt lat="45.18139" lon="5.21424">
        <ele>430.15</ele>
        <time>2017-06-20T17:45:02.999Z</time>
      </trkpt>
      <trkpt lat="45.18148" lon="5.21427">
        <ele>431</ele>
        <time>2017-06-20T17:45:05.999Z</time>
      </trkpt>
      <trkpt lat="45.18158" lon="5.2143">
        <ele>432.08</ele>
        <time>2017-06-20T17:45:08.999Z</time>
      </trkpt>
      <trkpt lat="45.18168" lon="5.21432">
        <ele>433.17</ele>
        <time>2017-06-20T17:45:11.999Z</time>
      </trkpt>
      <trkpt lat="45.18181" lon="5.21435">
        <ele>433.81</ele>
        <time>2017-06-20T17:45:14.999Z</time>
      </trkpt>
      <trkpt lat="45.18193" lon="5.21435">
        <ele>434.13</ele>
        <time>2017-06-20T17:45:17.999Z</time>
      </trkpt>
      <trkpt lat="45.18203" lon="5.21436">
        <ele>434.41</ele>
        <time>2017-06-20T17:45:20.999Z</time>
      </trkpt>
      <trkpt lat="45.18214" lon="5.21436">
        <ele>434.59</ele>
        <time>2017-06-20T17:45:23.999Z</time>
      </trkpt>
      <trkpt lat="45.18224" lon="5.21436">
        <ele>434.73</ele>
        <time>2017-06-20T17:45:26.999Z</time>
      </trkpt>
      <trkpt lat="45.18232" lon="5.21434">
        <ele>434.86</ele>
        <time>2017-06-20T17:45:29.999Z</time>
      </trkpt>
      <trkpt lat="45.18242" lon="5.21432">
        <ele>435.13</ele>
        <time>2017-06-20T17:45:32.999Z</time>
      </trkpt>
      <trkpt lat="45.18252" lon="5.21429">
        <ele>435.39</ele>
        <time>2017-06-20T17:45:35.999Z</time>
      </trkpt>
      <trkpt lat="45.18265" lon="5.21427">
        <ele>435.74</ele>
        <time>2017-06-20T17:45:39.999Z</time>
      </trkpt>
      <trkpt lat="45.18276" lon="5.21422">
        <ele>436.04</ele>
        <time>2017-06-20T17:45:42.999Z</time>
      </trkpt>
      <trkpt lat="45.18286" lon="5.2142">
        <ele>436.27</ele>
        <time>2017-06-20T17:45:46.999Z</time>
      </trkpt>
      <trkpt lat="45.18297" lon="5.21414">
        <ele>436.26</ele>
        <time>2017-06-20T17:45:50.999Z</time>
      </trkpt>
      <trkpt lat="45.18308" lon="5.2141">
        <ele>436.37</ele>
        <time>2017-06-20T17:45:54.999Z</time>
      </trkpt>
      <trkpt lat="45.18319" lon="5.21404">
        <ele>436.64</ele>
        <time>2017-06-20T17:45:58.999Z</time>
      </trkpt>
      <trkpt lat="45.18328" lon="5.214">
        <ele>436.76</ele>
        <time>2017-06-20T17:46:01.999Z</time>
      </trkpt>
      <trkpt lat="45.18337" lon="5.21396">
        <ele>436.88</ele>
        <time>2017-06-20T17:46:04.999Z</time>
      </trkpt>
      <trkpt lat="45.18345" lon="5.21392">
        <ele>437.02</ele>
        <time>2017-06-20T17:46:07.999Z</time>
      </trkpt>
      <trkpt lat="45.18354" lon="5.21386">
        <ele>437.13</ele>
        <time>2017-06-20T17:46:10.999Z</time>
      </trkpt>
      <trkpt lat="45.18363" lon="5.21381">
        <ele>437.2</ele>
        <time>2017-06-20T17:46:13.999Z</time>
      </trkpt>
      <trkpt lat="45.18374" lon="5.21376">
        <ele>437.44</ele>
        <time>2017-06-20T17:46:17.999Z</time>
      </trkpt>
      <trkpt lat="45.18383" lon="5.21371">
        <ele>437.83</ele>
        <time>2017-06-20T17:46:21.999Z</time>
      </trkpt>
      <trkpt lat="45.18392" lon="5.21365">
        <ele>438.14</ele>
        <time>2017-06-20T17:46:24.999Z</time>
      </trkpt>
      <trkpt lat="45.18402" lon="5.21359">
        <ele>438.7</ele>
        <time>2017-06-20T17:46:28.999Z</time>
      </trkpt>
      <trkpt lat="45.1841" lon="5.21354">
        <ele>439.16</ele>
        <time>2017-06-20T17:46:31.999Z</time>
      </trkpt>
      <trkpt lat="45.18422" lon="5.21346">
        <ele>439.63</ele>
        <time>2017-06-20T17:46:35.999Z</time>
      </trkpt>
      <trkpt lat="45.18431" lon="5.21341">
        <ele>439.88</ele>
        <time>2017-06-20T17:46:38.999Z</time>
      </trkpt>
      <trkpt lat="45.18442" lon="5.21334">
        <ele>440.25</ele>
        <time>2017-06-20T17:46:42.999Z</time>
      </trkpt>
      <trkpt lat="45.18452" lon="5.21328">
        <ele>440.78</ele>
        <time>2017-06-20T17:46:46.999Z</time>
      </trkpt>
      <trkpt lat="45.18462" lon="5.21322">
        <ele>441.38</ele>
        <time>2017-06-20T17:46:50.999Z</time>
      </trkpt>
      <trkpt lat="45.18471" lon="5.21317">
        <ele>441.86</ele>
        <time>2017-06-20T17:46:53.999Z</time>
      </trkpt>
      <trkpt lat="45.1848" lon="5.21312">
        <ele>442.34</ele>
        <time>2017-06-20T17:46:56.999Z</time>
      </trkpt>
      <trkpt lat="45.18489" lon="5.21307">
        <ele>442.79</ele>
        <time>2017-06-20T17:46:59.999Z</time>
      </trkpt>
      <trkpt lat="45.18499" lon="5.21301">
        <ele>443.44</ele>
        <time>2017-06-20T17:47:03.999Z</time>
      </trkpt>
      <trkpt lat="45.1851" lon="5.21295">
        <ele>444.18</ele>
        <time>2017-06-20T17:47:07.999Z</time>
      </trkpt>
      <trkpt lat="45.18521" lon="5.21289">
        <ele>445</ele>
        <time>2017-06-20T17:47:11.999Z</time>
      </trkpt>
      <trkpt lat="45.18529" lon="5.21285">
        <ele>445.98</ele>
        <time>2017-06-20T17:47:15.999Z</time>
      </trkpt>
      <trkpt lat="45.18538" lon="5.21278">
        <ele>447.08</ele>
        <time>2017-06-20T17:47:19.999Z</time>
      </trkpt>
      <trkpt lat="45.18548" lon="5.21271">
        <ele>448.15</ele>
        <time>2017-06-20T17:47:23.999Z</time>
      </trkpt>
      <trkpt lat="45.18559" lon="5.21265">
        <ele>449.24</ele>
        <time>2017-06-20T17:47:27.999Z</time>
      </trkpt>
      <trkpt lat="45.18568" lon="5.21261">
        <ele>449.9</ele>
        <time>2017-06-20T17:47:30.999Z</time>
      </trkpt>
      <trkpt lat="45.18578" lon="5.21254">
        <ele>450.57</ele>
        <time>2017-06-20T17:47:33.999Z</time>
      </trkpt>
      <trkpt lat="45.18588" lon="5.21248">
        <ele>451.16</ele>
        <time>2017-06-20T17:47:36.999Z</time>
      </trkpt>
      <trkpt lat="45.18597" lon="5.21243">
        <ele>451.91</ele>
        <time>2017-06-20T17:47:40.999Z</time>
      </trkpt>
      <trkpt lat="45.18606" lon="5.21238">
        <ele>452.45</ele>
        <time>2017-06-20T17:47:43.999Z</time>
      </trkpt>
      <trkpt lat="45.18616" lon="5.21232">
        <ele>452.9</ele>
        <time>2017-06-20T17:47:46.999Z</time>
      </trkpt>
      <trkpt lat="45.18626" lon="5.21227">
        <ele>453.48</ele>
        <time>2017-06-20T17:47:50.999Z</time>
      </trkpt>
      <trkpt lat="45.18634" lon="5.21221">
        <ele>453.91</ele>
        <time>2017-06-20T17:47:53.999Z</time>
      </trkpt>
      <trkpt lat="45.18644" lon="5.21215">
        <ele>454.42</ele>
        <time>2017-06-20T17:47:56.999Z</time>
      </trkpt>
      <trkpt lat="45.18652" lon="5.2121">
        <ele>454.83</ele>
        <time>2017-06-20T17:47:59.999Z</time>
      </trkpt>
      <trkpt lat="45.18662" lon="5.21205">
        <ele>455.13</ele>
        <time>2017-06-20T17:48:02.999Z</time>
      </trkpt>
      <trkpt lat="45.1867" lon="5.212">
        <ele>455.42</ele>
        <time>2017-06-20T17:48:05.999Z</time>
      </trkpt>
      <trkpt lat="45.18679" lon="5.21195">
        <ele>455.63</ele>
        <time>2017-06-20T17:48:08.999Z</time>
      </trkpt>
      <trkpt lat="45.18689" lon="5.21187">
        <ele>455.96</ele>
        <time>2017-06-20T17:48:12.999Z</time>
      </trkpt>
      <trkpt lat="45.187" lon="5.2118">
        <ele>456.28</ele>
        <time>2017-06-20T17:48:16.999Z</time>
      </trkpt>
      <trkpt lat="45.18709" lon="5.21175">
        <ele>456.54</ele>
        <time>2017-06-20T17:48:19.999Z</time>
      </trkpt>
      <trkpt lat="45.18721" lon="5.21171">
        <ele>457.02</ele>
        <time>2017-06-20T17:48:23.999Z</time>
      </trkpt>
      <trkpt lat="45.18731" lon="5.21165">
        <ele>457.8</ele>
        <time>2017-06-20T17:48:27.999Z</time>
      </trkpt>
      <trkpt lat="45.1874" lon="5.21159">
        <ele>459.33</ele>
        <time>2017-06-20T17:48:32.999Z</time>
      </trkpt>
      <trkpt lat="45.1875" lon="5.21154">
        <ele>460.25</ele>
        <time>2017-06-20T17:48:35.999Z</time>
      </trkpt>
      <trkpt lat="45.18761" lon="5.2115">
        <ele>461.03</ele>
        <time>2017-06-20T17:48:38.999Z</time>
      </trkpt>
      <trkpt lat="45.18772" lon="5.21147">
        <ele>462.08</ele>
        <time>2017-06-20T17:48:42.999Z</time>
      </trkpt>
      <trkpt lat="45.18784" lon="5.21144">
        <ele>463</ele>
        <time>2017-06-20T17:48:46.999Z</time>
      </trkpt>
      <trkpt lat="45.18795" lon="5.21143">
        <ele>463.81</ele>
        <time>2017-06-20T17:48:50.999Z</time>
      </trkpt>
      <trkpt lat="45.18806" lon="5.2114">
        <ele>464.85</ele>
        <time>2017-06-20T17:48:54.999Z</time>
      </trkpt>
      <trkpt lat="45.18816" lon="5.2114">
        <ele>465.99</ele>
        <time>2017-06-20T17:48:58.999Z</time>
      </trkpt>
      <trkpt lat="45.18826" lon="5.21139">
        <ele>466.71</ele>
        <time>2017-06-20T17:49:01.999Z</time>
      </trkpt>
      <trkpt lat="45.18835" lon="5.21133">
        <ele>467.33</ele>
        <time>2017-06-20T17:49:04.999Z</time>
      </trkpt>
      <trkpt lat="45.18846" lon="5.2113">
        <ele>468.55</ele>
        <time>2017-06-20T17:49:09.999Z</time>
      </trkpt>
      <trkpt lat="45.18856" lon="5.21127">
        <ele>469.27</ele>
        <time>2017-06-20T17:49:12.999Z</time>
      </trkpt>
      <trkpt lat="45.18866" lon="5.21125">
        <ele>469.88</ele>
        <time>2017-06-20T17:49:15.999Z</time>
      </trkpt>
      <trkpt lat="45.18876" lon="5.21121">
        <ele>470.35</ele>
        <time>2017-06-20T17:49:18.999Z</time>
      </trkpt>
      <trkpt lat="45.18887" lon="5.21118">
        <ele>470.93</ele>
        <time>2017-06-20T17:49:22.999Z</time>
      </trkpt>
      <trkpt lat="45.18898" lon="5.21114">
        <ele>471.51</ele>
        <time>2017-06-20T17:49:26.999Z</time>
      </trkpt>
      <trkpt lat="45.1891" lon="5.21109">
        <ele>472.19</ele>
        <time>2017-06-20T17:49:30.999Z</time>
      </trkpt>
      <trkpt lat="45.1892" lon="5.21104">
        <ele>472.84</ele>
        <time>2017-06-20T17:49:34.999Z</time>
      </trkpt>
      <trkpt lat="45.1893" lon="5.21099">
        <ele>473.54</ele>
        <time>2017-06-20T17:49:38.999Z</time>
      </trkpt>
      <trkpt lat="45.1894" lon="5.21095">
        <ele>474.24</ele>
        <time>2017-06-20T17:49:42.999Z</time>
      </trkpt>
      <trkpt lat="45.18949" lon="5.2109">
        <ele>474.69</ele>
        <time>2017-06-20T17:49:45.999Z</time>
      </trkpt>
      <trkpt lat="45.18958" lon="5.21086">
        <ele>475.12</ele>
        <time>2017-06-20T17:49:48.999Z</time>
      </trkpt>
      <trkpt lat="45.18967" lon="5.21079">
        <ele>475.65</ele>
        <time>2017-06-20T17:49:52.999Z</time>
      </trkpt>
      <trkpt lat="45.18976" lon="5.2107">
        <ele>476.27</ele>
        <time>2017-06-20T17:49:56.999Z</time>
      </trkpt>
      <trkpt lat="45.18984" lon="5.21061">
        <ele>476.95</ele>
        <time>2017-06-20T17:50:00.999Z</time>
      </trkpt>
      <trkpt lat="45.18992" lon="5.21052">
        <ele>477.74</ele>
        <time>2017-06-20T17:50:04.999Z</time>
      </trkpt>
      <trkpt lat="45.19001" lon="5.21043">
        <ele>478.24</ele>
        <time>2017-06-20T17:50:07.999Z</time>
      </trkpt>
      <trkpt lat="45.19011" lon="5.21034">
        <ele>478.86</ele>
        <time>2017-06-20T17:50:11.999Z</time>
      </trkpt>
      <trkpt lat="45.19019" lon="5.21025">
        <ele>479.27</ele>
        <time>2017-06-20T17:50:14.999Z</time>
      </trkpt>
      <trkpt lat="45.19027" lon="5.21018">
        <ele>479.64</ele>
        <time>2017-06-20T17:50:17.999Z</time>
      </trkpt>
      <trkpt lat="45.19036" lon="5.21009">
        <ele>480.14</ele>
        <time>2017-06-20T17:50:21.999Z</time>
      </trkpt>
      <trkpt lat="45.19043" lon="5.21001">
        <ele>480.5</ele>
        <time>2017-06-20T17:50:24.999Z</time>
      </trkpt>
      <trkpt lat="45.1905" lon="5.2099">
        <ele>481.08</ele>
        <time>2017-06-20T17:50:28.999Z</time>
      </trkpt>
      <trkpt lat="45.19054" lon="5.20979">
        <ele>481.58</ele>
        <time>2017-06-20T17:50:31.999Z</time>
      </trkpt>
      <trkpt lat="45.1906" lon="5.20966">
        <ele>482.3</ele>
        <time>2017-06-20T17:50:35.999Z</time>
      </trkpt>
      <trkpt lat="45.19065" lon="5.20955">
        <ele>482.94</ele>
        <time>2017-06-20T17:50:38.999Z</time>
      </trkpt>
      <trkpt lat="45.1907" lon="5.20942">
        <ele>483.51</ele>
        <time>2017-06-20T17:50:41.999Z</time>
      </trkpt>
      <trkpt lat="45.19075" lon="5.20928">
        <ele>484.16</ele>
        <time>2017-06-20T17:50:45.999Z</time>
      </trkpt>
      <trkpt lat="45.1908" lon="5.20913">
        <ele>485.01</ele>
        <time>2017-06-20T17:50:49.999Z</time>
      </trkpt>
      <trkpt lat="45.19083" lon="5.20901">
        <ele>485.76</ele>
        <time>2017-06-20T17:50:52.999Z</time>
      </trkpt>
      <trkpt lat="45.19087" lon="5.20889">
        <ele>486.47</ele>
        <time>2017-06-20T17:50:55.999Z</time>
      </trkpt>
      <trkpt lat="45.19091" lon="5.20877">
        <ele>487.1</ele>
        <time>2017-06-20T17:50:58.999Z</time>
      </trkpt>
      <trkpt lat="45.19097" lon="5.20864">
        <ele>487.98</ele>
        <time>2017-06-20T17:51:02.999Z</time>
      </trkpt>
      <trkpt lat="45.19104" lon="5.20852">
        <ele>488.52</ele>
        <time>2017-06-20T17:51:05.999Z</time>
      </trkpt>
      <trkpt lat="45.19111" lon="5.2084">
        <ele>489.06</ele>
        <time>2017-06-20T17:51:08.999Z</time>
      </trkpt>
      <trkpt lat="45.19119" lon="5.20831">
        <ele>489.57</ele>
        <time>2017-06-20T17:51:11.999Z</time>
      </trkpt>
      <trkpt lat="45.19127" lon="5.20822">
        <ele>489.98</ele>
        <time>2017-06-20T17:51:14.999Z</time>
      </trkpt>
      <trkpt lat="45.19134" lon="5.20813">
        <ele>490.38</ele>
        <time>2017-06-20T17:51:17.999Z</time>
      </trkpt>
      <trkpt lat="45.19142" lon="5.20805">
        <ele>490.82</ele>
        <time>2017-06-20T17:51:20.999Z</time>
      </trkpt>
      <trkpt lat="45.1915" lon="5.20797">
        <ele>491.24</ele>
        <time>2017-06-20T17:51:23.999Z</time>
      </trkpt>
      <trkpt lat="45.19159" lon="5.20788">
        <ele>491.55</ele>
        <time>2017-06-20T17:51:26.999Z</time>
      </trkpt>
      <trkpt lat="45.19168" lon="5.2078">
        <ele>491.79</ele>
        <time>2017-06-20T17:51:29.999Z</time>
      </trkpt>
      <trkpt lat="45.19176" lon="5.20772">
        <ele>492.05</ele>
        <time>2017-06-20T17:51:32.999Z</time>
      </trkpt>
      <trkpt lat="45.19184" lon="5.20765">
        <ele>492.35</ele>
        <time>2017-06-20T17:51:35.999Z</time>
      </trkpt>
      <trkpt lat="45.19193" lon="5.20757">
        <ele>492.63</ele>
        <time>2017-06-20T17:51:38.999Z</time>
      </trkpt>
      <trkpt lat="45.19201" lon="5.20749">
        <ele>492.91</ele>
        <time>2017-06-20T17:51:41.999Z</time>
      </trkpt>
      <trkpt lat="45.19208" lon="5.20741">
        <ele>493.19</ele>
        <time>2017-06-20T17:51:44.999Z</time>
      </trkpt>
      <trkpt lat="45.19216" lon="5.20734">
        <ele>493.5</ele>
        <time>2017-06-20T17:51:47.999Z</time>
      </trkpt>
      <trkpt lat="45.19223" lon="5.20726">
        <ele>493.84</ele>
        <time>2017-06-20T17:51:50.999Z</time>
      </trkpt>
      <trkpt lat="45.19231" lon="5.20718">
        <ele>494.13</ele>
        <time>2017-06-20T17:51:53.999Z</time>
      </trkpt>
      <trkpt lat="45.19239" lon="5.20711">
        <ele>494.39</ele>
        <time>2017-06-20T17:51:56.999Z</time>
      </trkpt>
      <trkpt lat="45.19247" lon="5.20704">
        <ele>494.73</ele>
        <time>2017-06-20T17:51:59.999Z</time>
      </trkpt>
      <trkpt lat="45.19255" lon="5.20696">
        <ele>494.99</ele>
        <time>2017-06-20T17:52:02.999Z</time>
      </trkpt>
      <trkpt lat="45.19264" lon="5.20689">
        <ele>495.2</ele>
        <time>2017-06-20T17:52:05.999Z</time>
      </trkpt>
      <trkpt lat="45.19273" lon="5.20683">
        <ele>495.51</ele>
        <time>2017-06-20T17:52:08.999Z</time>
      </trkpt>
      <trkpt lat="45.19282" lon="5.20679">
        <ele>495.85</ele>
        <time>2017-06-20T17:52:11.999Z</time>
      </trkpt>
      <trkpt lat="45.19303" lon="5.2067">
        <ele>496.79</ele>
        <time>2017-06-20T17:52:18.999Z</time>
      </trkpt>
      <trkpt lat="45.19313" lon="5.20668">
        <ele>497.24</ele>
        <time>2017-06-20T17:52:21.999Z</time>
      </trkpt>
      <trkpt lat="45.19322" lon="5.20665">
        <ele>497.79</ele>
        <time>2017-06-20T17:52:24.999Z</time>
      </trkpt>
      <trkpt lat="45.19334" lon="5.20661">
        <ele>498.74</ele>
        <time>2017-06-20T17:52:28.999Z</time>
      </trkpt>
      <trkpt lat="45.19344" lon="5.20659">
        <ele>499.53</ele>
        <time>2017-06-20T17:52:31.999Z</time>
      </trkpt>
      <trkpt lat="45.19355" lon="5.20656">
        <ele>500.7</ele>
        <time>2017-06-20T17:52:35.999Z</time>
      </trkpt>
      <trkpt lat="45.19367" lon="5.20651">
        <ele>501.41</ele>
        <time>2017-06-20T17:52:38.999Z</time>
      </trkpt>
      <trkpt lat="45.19376" lon="5.20648">
        <ele>502.45</ele>
        <time>2017-06-20T17:52:42.999Z</time>
      </trkpt>
      <trkpt lat="45.19388" lon="5.20645">
        <ele>503.5</ele>
        <time>2017-06-20T17:52:46.999Z</time>
      </trkpt>
      <trkpt lat="45.19397" lon="5.20643">
        <ele>504.06</ele>
        <time>2017-06-20T17:52:49.999Z</time>
      </trkpt>
      <trkpt lat="45.19408" lon="5.20642">
        <ele>504.95</ele>
        <time>2017-06-20T17:52:53.999Z</time>
      </trkpt>
      <trkpt lat="45.19418" lon="5.20639">
        <ele>505.56</ele>
        <time>2017-06-20T17:52:56.999Z</time>
      </trkpt>
      <trkpt lat="45.19428" lon="5.20636">
        <ele>506.06</ele>
        <time>2017-06-20T17:52:59.999Z</time>
      </trkpt>
      <trkpt lat="45.19438" lon="5.20631">
        <ele>506.53</ele>
        <time>2017-06-20T17:53:02.999Z</time>
      </trkpt>
      <trkpt lat="45.19447" lon="5.20626">
        <ele>506.85</ele>
        <time>2017-06-20T17:53:05.999Z</time>
      </trkpt>
      <trkpt lat="45.19456" lon="5.20621">
        <ele>507.02</ele>
        <time>2017-06-20T17:53:08.999Z</time>
      </trkpt>
      <trkpt lat="45.19466" lon="5.20613">
        <ele>507.15</ele>
        <time>2017-06-20T17:53:12.999Z</time>
      </trkpt>
      <trkpt lat="45.19474" lon="5.20607">
        <ele>507.17</ele>
        <time>2017-06-20T17:53:15.999Z</time>
      </trkpt>
      <trkpt lat="45.19484" lon="5.20599">
        <ele>507.23</ele>
        <time>2017-06-20T17:53:19.999Z</time>
      </trkpt>
      <trkpt lat="45.19494" lon="5.20589">
        <ele>507.32</ele>
        <time>2017-06-20T17:53:23.999Z</time>
      </trkpt>
      <trkpt lat="45.19502" lon="5.2058">
        <ele>507.51</ele>
        <time>2017-06-20T17:53:27.999Z</time>
      </trkpt>
      <trkpt lat="45.19508" lon="5.20571">
        <ele>507.68</ele>
        <time>2017-06-20T17:53:30.999Z</time>
      </trkpt>
      <trkpt lat="45.19516" lon="5.20559">
        <ele>508.02</ele>
        <time>2017-06-20T17:53:34.999Z</time>
      </trkpt>
      <trkpt lat="45.19521" lon="5.20546">
        <ele>508.41</ele>
        <time>2017-06-20T17:53:38.999Z</time>
      </trkpt>
      <trkpt lat="45.19526" lon="5.20535">
        <ele>508.64</ele>
        <time>2017-06-20T17:53:41.999Z</time>
      </trkpt>
      <trkpt lat="45.19531" lon="5.2052">
        <ele>508.99</ele>
        <time>2017-06-20T17:53:45.999Z</time>
      </trkpt>
      <trkpt lat="45.19535" lon="5.20505">
        <ele>509.54</ele>
        <time>2017-06-20T17:53:49.999Z</time>
      </trkpt>
      <trkpt lat="45.19537" lon="5.20491">
        <ele>510.36</ele>
        <time>2017-06-20T17:53:54.999Z</time>
      </trkpt>
      <trkpt lat="45.19539" lon="5.20474">
        <ele>511.15</ele>
        <time>2017-06-20T17:53:59.999Z</time>
      </trkpt>
      <trkpt lat="45.19539" lon="5.20458">
        <ele>511.58</ele>
        <time>2017-06-20T17:54:02.999Z</time>
      </trkpt>
      <trkpt lat="45.1954" lon="5.20444">
        <ele>512.34</ele>
        <time>2017-06-20T17:54:06.999Z</time>
      </trkpt>
      <trkpt lat="45.19541" lon="5.2043">
        <ele>513.22</ele>
        <time>2017-06-20T17:54:10.999Z</time>
      </trkpt>
      <trkpt lat="45.19542" lon="5.20415">
        <ele>514.12</ele>
        <time>2017-06-20T17:54:14.999Z</time>
      </trkpt>
      <trkpt lat="45.19544" lon="5.20399">
        <ele>514.95</ele>
        <time>2017-06-20T17:54:18.999Z</time>
      </trkpt>
      <trkpt lat="45.19545" lon="5.20384">
        <ele>515.69</ele>
        <time>2017-06-20T17:54:22.999Z</time>
      </trkpt>
      <trkpt lat="45.19548" lon="5.20368">
        <ele>516.43</ele>
        <time>2017-06-20T17:54:26.999Z</time>
      </trkpt>
      <trkpt lat="45.19552" lon="5.20354">
        <ele>517.05</ele>
        <time>2017-06-20T17:54:30.999Z</time>
      </trkpt>
      <trkpt lat="45.19556" lon="5.20341">
        <ele>517.61</ele>
        <time>2017-06-20T17:54:34.999Z</time>
      </trkpt>
      <trkpt lat="45.19563" lon="5.20327">
        <ele>518.18</ele>
        <time>2017-06-20T17:54:38.999Z</time>
      </trkpt>
      <trkpt lat="45.19566" lon="5.20315">
        <ele>518.9</ele>
        <time>2017-06-20T17:54:42.999Z</time>
      </trkpt>
      <trkpt lat="45.19571" lon="5.20303">
        <ele>519.93</ele>
        <time>2017-06-20T17:54:46.999Z</time>
      </trkpt>
      <trkpt lat="45.19578" lon="5.20291">
        <ele>520.86</ele>
        <time>2017-06-20T17:54:50.999Z</time>
      </trkpt>
      <trkpt lat="45.19584" lon="5.20277">
        <ele>521.77</ele>
        <time>2017-06-20T17:54:54.999Z</time>
      </trkpt>
      <trkpt lat="45.19591" lon="5.20266">
        <ele>522.87</ele>
        <time>2017-06-20T17:54:58.999Z</time>
      </trkpt>
      <trkpt lat="45.19599" lon="5.20254">
        <ele>523.75</ele>
        <time>2017-06-20T17:55:02.999Z</time>
      </trkpt>
      <trkpt lat="45.19606" lon="5.20244">
        <ele>524.56</ele>
        <time>2017-06-20T17:55:06.999Z</time>
      </trkpt>
      <trkpt lat="45.19615" lon="5.20238">
        <ele>525.42</ele>
        <time>2017-06-20T17:55:10.999Z</time>
      </trkpt>
      <trkpt lat="45.19623" lon="5.20234">
        <ele>526.56</ele>
        <time>2017-06-20T17:55:14.999Z</time>
      </trkpt>
      <trkpt lat="45.19634" lon="5.20231">
        <ele>527.84</ele>
        <time>2017-06-20T17:55:18.999Z</time>
      </trkpt>
      <trkpt lat="45.19643" lon="5.20229">
        <ele>528.65</ele>
        <time>2017-06-20T17:55:21.999Z</time>
      </trkpt>
      <trkpt lat="45.19655" lon="5.20225">
        <ele>529.93</ele>
        <time>2017-06-20T17:55:26.999Z</time>
      </trkpt>
      <trkpt lat="45.19672" lon="5.20189">
        <ele>532.99</ele>
        <time>2017-06-20T17:55:40.999Z</time>
      </trkpt>
      <trkpt lat="45.19667" lon="5.20175">
        <ele>534.28</ele>
        <time>2017-06-20T17:55:45.999Z</time>
      </trkpt>
      <trkpt lat="45.19659" lon="5.20164">
        <ele>535.32</ele>
        <time>2017-06-20T17:55:49.999Z</time>
      </trkpt>
      <trkpt lat="45.19651" lon="5.20153">
        <ele>536.24</ele>
        <time>2017-06-20T17:55:53.999Z</time>
      </trkpt>
      <trkpt lat="45.19645" lon="5.20141">
        <ele>536.86</ele>
        <time>2017-06-20T17:55:57.999Z</time>
      </trkpt>
      <trkpt lat="45.1964" lon="5.20128">
        <ele>537.24</ele>
        <time>2017-06-20T17:56:01.999Z</time>
      </trkpt>
      <trkpt lat="45.19636" lon="5.20112">
        <ele>537.77</ele>
        <time>2017-06-20T17:56:05.999Z</time>
      </trkpt>
      <trkpt lat="45.19634" lon="5.20097">
        <ele>538.4</ele>
        <time>2017-06-20T17:56:09.999Z</time>
      </trkpt>
      <trkpt lat="45.19632" lon="5.20082">
        <ele>539.05</ele>
        <time>2017-06-20T17:56:13.999Z</time>
      </trkpt>
      <trkpt lat="45.19632" lon="5.20068">
        <ele>539.82</ele>
        <time>2017-06-20T17:56:17.999Z</time>
      </trkpt>
      <trkpt lat="45.19632" lon="5.20052">
        <ele>540.47</ele>
        <time>2017-06-20T17:56:21.999Z</time>
      </trkpt>
      <trkpt lat="45.19634" lon="5.20039">
        <ele>540.69</ele>
        <time>2017-06-20T17:56:24.999Z</time>
      </trkpt>
      <trkpt lat="45.19634" lon="5.20024">
        <ele>541.01</ele>
        <time>2017-06-20T17:56:28.999Z</time>
      </trkpt>
      <trkpt lat="45.19634" lon="5.20009">
        <ele>541.45</ele>
        <time>2017-06-20T17:56:32.999Z</time>
      </trkpt>
      <trkpt lat="45.19633" lon="5.19995">
        <ele>541.69</ele>
        <time>2017-06-20T17:56:36.999Z</time>
      </trkpt>
      <trkpt lat="45.19634" lon="5.19979">
        <ele>542.06</ele>
        <time>2017-06-20T17:56:40.999Z</time>
      </trkpt>
      <trkpt lat="45.19635" lon="5.19964">
        <ele>542.36</ele>
        <time>2017-06-20T17:56:43.999Z</time>
      </trkpt>
      <trkpt lat="45.19635" lon="5.19948">
        <ele>542.52</ele>
        <time>2017-06-20T17:56:46.999Z</time>
      </trkpt>
      <trkpt lat="45.19634" lon="5.19933">
        <ele>544.43</ele>
        <time>2017-06-20T17:56:49.999Z</time>
      </trkpt>
      <trkpt lat="45.19634" lon="5.19916">
        <ele>546.18</ele>
        <time>2017-06-20T17:56:52.999Z</time>
      </trkpt>
      <trkpt lat="45.19634" lon="5.19898">
        <ele>547.42</ele>
        <time>2017-06-20T17:56:55.999Z</time>
      </trkpt>
      <trkpt lat="45.19633" lon="5.1988">
        <ele>549.21</ele>
        <time>2017-06-20T17:56:58.999Z</time>
      </trkpt>
      <trkpt lat="45.19631" lon="5.19863">
        <ele>549.56</ele>
        <time>2017-06-20T17:57:01.999Z</time>
      </trkpt>
      <trkpt lat="45.19629" lon="5.19847">
        <ele>549.49</ele>
        <time>2017-06-20T17:57:04.999Z</time>
      </trkpt>
      <trkpt lat="45.19627" lon="5.19833">
        <ele>549.19</ele>
        <time>2017-06-20T17:57:06.999Z</time>
      </trkpt>
      <trkpt lat="45.19625" lon="5.1982">
        <ele>549.45</ele>
        <time>2017-06-20T17:57:08.999Z</time>
      </trkpt>
      <trkpt lat="45.19623" lon="5.19807">
        <ele>549.37</ele>
        <time>2017-06-20T17:57:10.999Z</time>
      </trkpt>
      <trkpt lat="45.19621" lon="5.19794">
        <ele>548.78</ele>
        <time>2017-06-20T17:57:12.999Z</time>
      </trkpt>
      <trkpt lat="45.1962" lon="5.1978">
        <ele>548.28</ele>
        <time>2017-06-20T17:57:14.999Z</time>
      </trkpt>
      <trkpt lat="45.19618" lon="5.19765">
        <ele>548.32</ele>
        <time>2017-06-20T17:57:16.999Z</time>
      </trkpt>
      <trkpt lat="45.19616" lon="5.19751">
        <ele>548.7</ele>
        <time>2017-06-20T17:57:18.999Z</time>
      </trkpt>
      <trkpt lat="45.19614" lon="5.19737">
        <ele>548.77</ele>
        <time>2017-06-20T17:57:20.999Z</time>
      </trkpt>
      <trkpt lat="45.19613" lon="5.19722">
        <ele>548.29</ele>
        <time>2017-06-20T17:57:22.999Z</time>
      </trkpt>
      <trkpt lat="45.19613" lon="5.19707">
        <ele>548.1</ele>
        <time>2017-06-20T17:57:24.999Z</time>
      </trkpt>
      <trkpt lat="45.19613" lon="5.19693">
        <ele>547.94</ele>
        <time>2017-06-20T17:57:26.999Z</time>
      </trkpt>
      <trkpt lat="45.19612" lon="5.19678">
        <ele>547.62</ele>
        <time>2017-06-20T17:57:28.999Z</time>
      </trkpt>
      <trkpt lat="45.19611" lon="5.19662">
        <ele>546.86</ele>
        <time>2017-06-20T17:57:30.999Z</time>
      </trkpt>
      <trkpt lat="45.19612" lon="5.19646">
        <ele>545.8</ele>
        <time>2017-06-20T17:57:32.999Z</time>
      </trkpt>
      <trkpt lat="45.19611" lon="5.19631">
        <ele>545.28</ele>
        <time>2017-06-20T17:57:34.999Z</time>
      </trkpt>
      <trkpt lat="45.19611" lon="5.19615">
        <ele>545.41</ele>
        <time>2017-06-20T17:57:36.999Z</time>
      </trkpt>
      <trkpt lat="45.19611" lon="5.19598">
        <ele>545.46</ele>
        <time>2017-06-20T17:57:38.999Z</time>
      </trkpt>
      <trkpt lat="45.19611" lon="5.19582">
        <ele>544.98</ele>
        <time>2017-06-20T17:57:40.999Z</time>
      </trkpt>
      <trkpt lat="45.19612" lon="5.19565">
        <ele>544.64</ele>
        <time>2017-06-20T17:57:42.999Z</time>
      </trkpt>
      <trkpt lat="45.19613" lon="5.1955">
        <ele>543.8</ele>
        <time>2017-06-20T17:57:44.999Z</time>
      </trkpt>
      <trkpt lat="45.19613" lon="5.19532">
        <ele>542.34</ele>
        <time>2017-06-20T17:57:46.999Z</time>
      </trkpt>
      <trkpt lat="45.19613" lon="5.19514">
        <ele>541.33</ele>
        <time>2017-06-20T17:57:48.999Z</time>
      </trkpt>
      <trkpt lat="45.19613" lon="5.19499">
        <ele>541.28</ele>
        <time>2017-06-20T17:57:50.999Z</time>
      </trkpt>
      <trkpt lat="45.19613" lon="5.19485">
        <ele>541.2</ele>
        <time>2017-06-20T17:57:52.999Z</time>
      </trkpt>
      <trkpt lat="45.19613" lon="5.19472">
        <ele>540.8</ele>
        <time>2017-06-20T17:57:54.999Z</time>
      </trkpt>
      <trkpt lat="45.19614" lon="5.19458">
        <ele>540.3</ele>
        <time>2017-06-20T17:57:56.999Z</time>
      </trkpt>
      <trkpt lat="45.19614" lon="5.19444">
        <ele>540.75</ele>
        <time>2017-06-20T17:57:58.999Z</time>
      </trkpt>
      <trkpt lat="45.19614" lon="5.19429">
        <ele>541.13</ele>
        <time>2017-06-20T17:58:00.999Z</time>
      </trkpt>
      <trkpt lat="45.19615" lon="5.19415">
        <ele>541.47</ele>
        <time>2017-06-20T17:58:02.999Z</time>
      </trkpt>
      <trkpt lat="45.19614" lon="5.19402">
        <ele>541.84</ele>
        <time>2017-06-20T17:58:04.999Z</time>
      </trkpt>
      <trkpt lat="45.19614" lon="5.19389">
        <ele>542.53</ele>
        <time>2017-06-20T17:58:06.999Z</time>
      </trkpt>
      <trkpt lat="45.19614" lon="5.1937">
        <ele>542.67</ele>
        <time>2017-06-20T17:58:09.999Z</time>
      </trkpt>
      <trkpt lat="45.19613" lon="5.19356">
        <ele>542.4</ele>
        <time>2017-06-20T17:58:11.999Z</time>
      </trkpt>
      <trkpt lat="45.19613" lon="5.19341">
        <ele>542.2</ele>
        <time>2017-06-20T17:58:14.999Z</time>
      </trkpt>
      <trkpt lat="45.19615" lon="5.19325">
        <ele>542.31</ele>
        <time>2017-06-20T17:58:17.999Z</time>
      </trkpt>
      <trkpt lat="45.19616" lon="5.19312">
        <ele>542.65</ele>
        <time>2017-06-20T17:58:19.999Z</time>
      </trkpt>
      <trkpt lat="45.19616" lon="5.19294">
        <ele>544.23</ele>
        <time>2017-06-20T17:58:22.999Z</time>
      </trkpt>
      <trkpt lat="45.19617" lon="5.19281">
        <ele>544.83</ele>
        <time>2017-06-20T17:58:24.999Z</time>
      </trkpt>
      <trkpt lat="45.19617" lon="5.19265">
        <ele>544.66</ele>
        <time>2017-06-20T17:58:26.999Z</time>
      </trkpt>
      <trkpt lat="45.19618" lon="5.1925">
        <ele>544.71</ele>
        <time>2017-06-20T17:58:28.999Z</time>
      </trkpt>
      <trkpt lat="45.1962" lon="5.19232">
        <ele>544.82</ele>
        <time>2017-06-20T17:58:30.999Z</time>
      </trkpt>
      <trkpt lat="45.19622" lon="5.19214">
        <ele>543.88</ele>
        <time>2017-06-20T17:58:32.999Z</time>
      </trkpt>
      <trkpt lat="45.19624" lon="5.19194">
        <ele>543.07</ele>
        <time>2017-06-20T17:58:34.999Z</time>
      </trkpt>
      <trkpt lat="45.19626" lon="5.19174">
        <ele>541.42</ele>
        <time>2017-06-20T17:58:36.999Z</time>
      </trkpt>
      <trkpt lat="45.19627" lon="5.19154">
        <ele>540.12</ele>
        <time>2017-06-20T17:58:38.999Z</time>
      </trkpt>
      <trkpt lat="45.19629" lon="5.19134">
        <ele>539.31</ele>
        <time>2017-06-20T17:58:40.999Z</time>
      </trkpt>
      <trkpt lat="45.19631" lon="5.19114">
        <ele>538.95</ele>
        <time>2017-06-20T17:58:42.999Z</time>
      </trkpt>
      <trkpt lat="45.19633" lon="5.19094">
        <ele>538.46</ele>
        <time>2017-06-20T17:58:44.999Z</time>
      </trkpt>
      <trkpt lat="45.19635" lon="5.19074">
        <ele>538.1</ele>
        <time>2017-06-20T17:58:46.999Z</time>
      </trkpt>
      <trkpt lat="45.19637" lon="5.19053">
        <ele>537.71</ele>
        <time>2017-06-20T17:58:48.999Z</time>
      </trkpt>
      <trkpt lat="45.19639" lon="5.19031">
        <ele>536.66</ele>
        <time>2017-06-20T17:58:50.999Z</time>
      </trkpt>
      <trkpt lat="45.19641" lon="5.19009">
        <ele>535.65</ele>
        <time>2017-06-20T17:58:52.999Z</time>
      </trkpt>
      <trkpt lat="45.19643" lon="5.18988">
        <ele>534.55</ele>
        <time>2017-06-20T17:58:54.999Z</time>
      </trkpt>
      <trkpt lat="45.19645" lon="5.18967">
        <ele>533</ele>
        <time>2017-06-20T17:58:56.999Z</time>
      </trkpt>
      <trkpt lat="45.19645" lon="5.18947">
        <ele>531.7</ele>
        <time>2017-06-20T17:58:58.999Z</time>
      </trkpt>
      <trkpt lat="45.19645" lon="5.18926">
        <ele>531.63</ele>
        <time>2017-06-20T17:59:00.999Z</time>
      </trkpt>
      <trkpt lat="45.19646" lon="5.18906">
        <ele>531.67</ele>
        <time>2017-06-20T17:59:02.999Z</time>
      </trkpt>
      <trkpt lat="45.19648" lon="5.18885">
        <ele>531.72</ele>
        <time>2017-06-20T17:59:04.999Z</time>
      </trkpt>
      <trkpt lat="45.1965" lon="5.18866">
        <ele>532.11</ele>
        <time>2017-06-20T17:59:06.999Z</time>
      </trkpt>
      <trkpt lat="45.19655" lon="5.18847">
        <ele>533.28</ele>
        <time>2017-06-20T17:59:08.999Z</time>
      </trkpt>
      <trkpt lat="45.19659" lon="5.18827">
        <ele>533.26</ele>
        <time>2017-06-20T17:59:10.999Z</time>
      </trkpt>
      <trkpt lat="45.19663" lon="5.18807">
        <ele>532.4</ele>
        <time>2017-06-20T17:59:12.999Z</time>
      </trkpt>
      <trkpt lat="45.19665" lon="5.18788">
        <ele>532.29</ele>
        <time>2017-06-20T17:59:14.999Z</time>
      </trkpt>
      <trkpt lat="45.19666" lon="5.18767">
        <ele>531.35</ele>
        <time>2017-06-20T17:59:16.999Z</time>
      </trkpt>
      <trkpt lat="45.19666" lon="5.18754">
        <ele>529.89</ele>
        <time>2017-06-20T17:59:17.999Z</time>
      </trkpt>
      <trkpt lat="45.19664" lon="5.1873">
        <ele>526.96</ele>
        <time>2017-06-20T17:59:19.999Z</time>
      </trkpt>
      <trkpt lat="45.19663" lon="5.18708">
        <ele>525.33</ele>
        <time>2017-06-20T17:59:21.999Z</time>
      </trkpt>
      <trkpt lat="45.1966" lon="5.18687">
        <ele>523.87</ele>
        <time>2017-06-20T17:59:23.999Z</time>
      </trkpt>
      <trkpt lat="45.19658" lon="5.18666">
        <ele>522.64</ele>
        <time>2017-06-20T17:59:25.999Z</time>
      </trkpt>
      <trkpt lat="45.19658" lon="5.18645">
        <ele>521.89</ele>
        <time>2017-06-20T17:59:27.999Z</time>
      </trkpt>
      <trkpt lat="45.19657" lon="5.18623">
        <ele>521.26</ele>
        <time>2017-06-20T17:59:29.999Z</time>
      </trkpt>
      <trkpt lat="45.19658" lon="5.18602">
        <ele>520.22</ele>
        <time>2017-06-20T17:59:31.999Z</time>
      </trkpt>
      <trkpt lat="45.19658" lon="5.18581">
        <ele>519.71</ele>
        <time>2017-06-20T17:59:33.999Z</time>
      </trkpt>
      <trkpt lat="45.19659" lon="5.18561">
        <ele>519.22</ele>
        <time>2017-06-20T17:59:35.999Z</time>
      </trkpt>
      <trkpt lat="45.1966" lon="5.1854">
        <ele>518.57</ele>
        <time>2017-06-20T17:59:37.999Z</time>
      </trkpt>
      <trkpt lat="45.19661" lon="5.18519">
        <ele>517.66</ele>
        <time>2017-06-20T17:59:39.999Z</time>
      </trkpt>
      <trkpt lat="45.19663" lon="5.18498">
        <ele>517.01</ele>
        <time>2017-06-20T17:59:41.999Z</time>
      </trkpt>
      <trkpt lat="45.19663" lon="5.18478">
        <ele>516.45</ele>
        <time>2017-06-20T17:59:43.999Z</time>
      </trkpt>
      <trkpt lat="45.19664" lon="5.18457">
        <ele>515.89</ele>
        <time>2017-06-20T17:59:45.999Z</time>
      </trkpt>
      <trkpt lat="45.19666" lon="5.18436">
        <ele>515.6</ele>
        <time>2017-06-20T17:59:47.999Z</time>
      </trkpt>
      <trkpt lat="45.19669" lon="5.18415">
        <ele>515.47</ele>
        <time>2017-06-20T17:59:49.999Z</time>
      </trkpt>
      <trkpt lat="45.19675" lon="5.18396">
        <ele>515.61</ele>
        <time>2017-06-20T17:59:51.999Z</time>
      </trkpt>
      <trkpt lat="45.19682" lon="5.18377">
        <ele>515.51</ele>
        <time>2017-06-20T17:59:53.999Z</time>
      </trkpt>
      <trkpt lat="45.1969" lon="5.18358">
        <ele>515.1</ele>
        <time>2017-06-20T17:59:55.999Z</time>
      </trkpt>
      <trkpt lat="45.19697" lon="5.18338">
        <ele>514.52</ele>
        <time>2017-06-20T17:59:57.999Z</time>
      </trkpt>
      <trkpt lat="45.19703" lon="5.18318">
        <ele>513.99</ele>
        <time>2017-06-20T17:59:59.999Z</time>
      </trkpt>
      <trkpt lat="45.19708" lon="5.18298">
        <ele>513.49</ele>
        <time>2017-06-20T18:00:01.999Z</time>
      </trkpt>
      <trkpt lat="45.19712" lon="5.18277">
        <ele>512.92</ele>
        <time>2017-06-20T18:00:03.999Z</time>
      </trkpt>
      <trkpt lat="45.19717" lon="5.18255">
        <ele>512.13</ele>
        <time>2017-06-20T18:00:05.999Z</time>
      </trkpt>
      <trkpt lat="45.19721" lon="5.18233">
        <ele>511.24</ele>
        <time>2017-06-20T18:00:07.999Z</time>
      </trkpt>
      <trkpt lat="45.19723" lon="5.18212">
        <ele>510.79</ele>
        <time>2017-06-20T18:00:09.999Z</time>
      </trkpt>
      <trkpt lat="45.19725" lon="5.18192">
        <ele>510.65</ele>
        <time>2017-06-20T18:00:11.999Z</time>
      </trkpt>
      <trkpt lat="45.19727" lon="5.1817">
        <ele>510.49</ele>
        <time>2017-06-20T18:00:13.999Z</time>
      </trkpt>
      <trkpt lat="45.19729" lon="5.18148">
        <ele>509.92</ele>
        <time>2017-06-20T18:00:15.999Z</time>
      </trkpt>
      <trkpt lat="45.1973" lon="5.18126">
        <ele>509.53</ele>
        <time>2017-06-20T18:00:17.999Z</time>
      </trkpt>
      <trkpt lat="45.19732" lon="5.18104">
        <ele>508.96</ele>
        <time>2017-06-20T18:00:19.999Z</time>
      </trkpt>
      <trkpt lat="45.19733" lon="5.18083">
        <ele>509.1</ele>
        <time>2017-06-20T18:00:21.999Z</time>
      </trkpt>
      <trkpt lat="45.19735" lon="5.1807">
        <ele>508.69</ele>
        <time>2017-06-20T18:00:22.999Z</time>
      </trkpt>
      <trkpt lat="45.19735" lon="5.18049">
        <ele>507.4</ele>
        <time>2017-06-20T18:00:24.999Z</time>
      </trkpt>
      <trkpt lat="45.19736" lon="5.18027">
        <ele>507.13</ele>
        <time>2017-06-20T18:00:26.999Z</time>
      </trkpt>
      <trkpt lat="45.19736" lon="5.18006">
        <ele>506.69</ele>
        <time>2017-06-20T18:00:28.999Z</time>
      </trkpt>
      <trkpt lat="45.19735" lon="5.17984">
        <ele>505.92</ele>
        <time>2017-06-20T18:00:30.999Z</time>
      </trkpt>
      <trkpt lat="45.19735" lon="5.17962">
        <ele>504.89</ele>
        <time>2017-06-20T18:00:32.999Z</time>
      </trkpt>
      <trkpt lat="45.19734" lon="5.1794">
        <ele>504.99</ele>
        <time>2017-06-20T18:00:34.999Z</time>
      </trkpt>
      <trkpt lat="45.19729" lon="5.17919">
        <ele>506.1</ele>
        <time>2017-06-20T18:00:36.999Z</time>
      </trkpt>
      <trkpt lat="45.19723" lon="5.17904">
        <ele>505.57</ele>
        <time>2017-06-20T18:00:38.999Z</time>
      </trkpt>
      <trkpt lat="45.19717" lon="5.17888">
        <ele>504.59</ele>
        <time>2017-06-20T18:00:40.999Z</time>
      </trkpt>
      <trkpt lat="45.19714" lon="5.17866">
        <ele>503.06</ele>
        <time>2017-06-20T18:00:42.999Z</time>
      </trkpt>
      <trkpt lat="45.19716" lon="5.17844">
        <ele>502.75</ele>
        <time>2017-06-20T18:00:44.999Z</time>
      </trkpt>
      <trkpt lat="45.19722" lon="5.17825">
        <ele>502.78</ele>
        <time>2017-06-20T18:00:46.999Z</time>
      </trkpt>
      <trkpt lat="45.19728" lon="5.17806">
        <ele>502.49</ele>
        <time>2017-06-20T18:00:48.999Z</time>
      </trkpt>
      <trkpt lat="45.19734" lon="5.17788">
        <ele>501.59</ele>
        <time>2017-06-20T18:00:50.999Z</time>
      </trkpt>
      <trkpt lat="45.19739" lon="5.17769">
        <ele>500.95</ele>
        <time>2017-06-20T18:00:52.999Z</time>
      </trkpt>
      <trkpt lat="45.19744" lon="5.1775">
        <ele>500.73</ele>
        <time>2017-06-20T18:00:54.999Z</time>
      </trkpt>
      <trkpt lat="45.19749" lon="5.17732">
        <ele>500.96</ele>
        <time>2017-06-20T18:00:56.999Z</time>
      </trkpt>
      <trkpt lat="45.19752" lon="5.17713">
        <ele>501.41</ele>
        <time>2017-06-20T18:00:58.999Z</time>
      </trkpt>
      <trkpt lat="45.19755" lon="5.17697">
        <ele>501.83</ele>
        <time>2017-06-20T18:01:00.999Z</time>
      </trkpt>
      <trkpt lat="45.19759" lon="5.1768">
        <ele>501.59</ele>
        <time>2017-06-20T18:01:02.999Z</time>
      </trkpt>
      <trkpt lat="45.19763" lon="5.17664">
        <ele>501.68</ele>
        <time>2017-06-20T18:01:04.999Z</time>
      </trkpt>
      <trkpt lat="45.19771" lon="5.17649">
        <ele>501.9</ele>
        <time>2017-06-20T18:01:06.999Z</time>
      </trkpt>
      <trkpt lat="45.19777" lon="5.17636">
        <ele>502.13</ele>
        <time>2017-06-20T18:01:08.999Z</time>
      </trkpt>
      <trkpt lat="45.19783" lon="5.1762">
        <ele>502.1</ele>
        <time>2017-06-20T18:01:10.999Z</time>
      </trkpt>
      <trkpt lat="45.19784" lon="5.17604">
        <ele>502.15</ele>
        <time>2017-06-20T18:01:12.999Z</time>
      </trkpt>
      <trkpt lat="45.19785" lon="5.17588">
        <ele>502.28</ele>
        <time>2017-06-20T18:01:14.999Z</time>
      </trkpt>
      <trkpt lat="45.19784" lon="5.17571">
        <ele>501.3</ele>
        <time>2017-06-20T18:01:16.999Z</time>
      </trkpt>
      <trkpt lat="45.19782" lon="5.17558">
        <ele>500.4</ele>
        <time>2017-06-20T18:01:18.999Z</time>
      </trkpt>
      <trkpt lat="45.19781" lon="5.17544">
        <ele>498.51</ele>
        <time>2017-06-20T18:01:20.999Z</time>
      </trkpt>
      <trkpt lat="45.19781" lon="5.17529">
        <ele>497.77</ele>
        <time>2017-06-20T18:01:22.999Z</time>
      </trkpt>
      <trkpt lat="45.19783" lon="5.17514">
        <ele>496.61</ele>
        <time>2017-06-20T18:01:24.999Z</time>
      </trkpt>
      <trkpt lat="45.19786" lon="5.17499">
        <ele>496.29</ele>
        <time>2017-06-20T18:01:26.999Z</time>
      </trkpt>
      <trkpt lat="45.19788" lon="5.17484">
        <ele>497.15</ele>
        <time>2017-06-20T18:01:28.999Z</time>
      </trkpt>
      <trkpt lat="45.19791" lon="5.17469">
        <ele>498.5</ele>
        <time>2017-06-20T18:01:30.999Z</time>
      </trkpt>
      <trkpt lat="45.19795" lon="5.17454">
        <ele>499.18</ele>
        <time>2017-06-20T18:01:32.999Z</time>
      </trkpt>
      <trkpt lat="45.19799" lon="5.17442">
        <ele>499.46</ele>
        <time>2017-06-20T18:01:34.999Z</time>
      </trkpt>
      <trkpt lat="45.19805" lon="5.17429">
        <ele>500.81</ele>
        <time>2017-06-20T18:01:36.999Z</time>
      </trkpt>
      <trkpt lat="45.19811" lon="5.17415">
        <ele>501.31</ele>
        <time>2017-06-20T18:01:38.999Z</time>
      </trkpt>
      <trkpt lat="45.19815" lon="5.17403">
        <ele>501.68</ele>
        <time>2017-06-20T18:01:40.999Z</time>
      </trkpt>
      <trkpt lat="45.19822" lon="5.17389">
        <ele>501.28</ele>
        <time>2017-06-20T18:01:42.999Z</time>
      </trkpt>
      <trkpt lat="45.19829" lon="5.17372">
        <ele>499.6</ele>
        <time>2017-06-20T18:01:44.999Z</time>
      </trkpt>
      <trkpt lat="45.19835" lon="5.17356">
        <ele>498.3</ele>
        <time>2017-06-20T18:01:46.999Z</time>
      </trkpt>
      <trkpt lat="45.19841" lon="5.17339">
        <ele>498.38</ele>
        <time>2017-06-20T18:01:48.999Z</time>
      </trkpt>
      <trkpt lat="45.19847" lon="5.17328">
        <ele>498.86</ele>
        <time>2017-06-20T18:01:50.999Z</time>
      </trkpt>
      <trkpt lat="45.19852" lon="5.17314">
        <ele>499.86</ele>
        <time>2017-06-20T18:01:52.999Z</time>
      </trkpt>
      <trkpt lat="45.19859" lon="5.17299">
        <ele>498.93</ele>
        <time>2017-06-20T18:01:54.999Z</time>
      </trkpt>
      <trkpt lat="45.19864" lon="5.17286">
        <ele>499.14</ele>
        <time>2017-06-20T18:01:56.999Z</time>
      </trkpt>
      <trkpt lat="45.1987" lon="5.1727">
        <ele>498.44</ele>
        <time>2017-06-20T18:01:58.999Z</time>
      </trkpt>
      <trkpt lat="45.19875" lon="5.17255">
        <ele>498.44</ele>
        <time>2017-06-20T18:02:00.999Z</time>
      </trkpt>
      <trkpt lat="45.19878" lon="5.17237">
        <ele>499.65</ele>
        <time>2017-06-20T18:02:02.999Z</time>
      </trkpt>
      <trkpt lat="45.1988" lon="5.17217">
        <ele>500.49</ele>
        <time>2017-06-20T18:02:05.999Z</time>
      </trkpt>
      <trkpt lat="45.19878" lon="5.17202">
        <ele>501.42</ele>
        <time>2017-06-20T18:02:07.999Z</time>
      </trkpt>
      <trkpt lat="45.19878" lon="5.17184">
        <ele>500.79</ele>
        <time>2017-06-20T18:02:09.999Z</time>
      </trkpt>
      <trkpt lat="45.19878" lon="5.17168">
        <ele>500.22</ele>
        <time>2017-06-20T18:02:11.999Z</time>
      </trkpt>
      <trkpt lat="45.19877" lon="5.17154">
        <ele>500.26</ele>
        <time>2017-06-20T18:02:13.999Z</time>
      </trkpt>
      <trkpt lat="45.19876" lon="5.17136">
        <ele>500.9</ele>
        <time>2017-06-20T18:02:15.999Z</time>
      </trkpt>
      <trkpt lat="45.19877" lon="5.17116">
        <ele>503.05</ele>
        <time>2017-06-20T18:02:17.999Z</time>
      </trkpt>
      <trkpt lat="45.19879" lon="5.17097">
        <ele>504.04</ele>
        <time>2017-06-20T18:02:19.999Z</time>
      </trkpt>
      <trkpt lat="45.1988" lon="5.17075">
        <ele>503.14</ele>
        <time>2017-06-20T18:02:21.999Z</time>
      </trkpt>
      <trkpt lat="45.19881" lon="5.17053">
        <ele>501.89</ele>
        <time>2017-06-20T18:02:23.999Z</time>
      </trkpt>
      <trkpt lat="45.19882" lon="5.17032">
        <ele>500.03</ele>
        <time>2017-06-20T18:02:25.999Z</time>
      </trkpt>
      <trkpt lat="45.19883" lon="5.17014">
        <ele>498.12</ele>
        <time>2017-06-20T18:02:27.999Z</time>
      </trkpt>
      <trkpt lat="45.19885" lon="5.16995">
        <ele>497.45</ele>
        <time>2017-06-20T18:02:29.999Z</time>
      </trkpt>
      <trkpt lat="45.19887" lon="5.16974">
        <ele>496.29</ele>
        <time>2017-06-20T18:02:31.999Z</time>
      </trkpt>
      <trkpt lat="45.19889" lon="5.16955">
        <ele>496.37</ele>
        <time>2017-06-20T18:02:33.999Z</time>
      </trkpt>
      <trkpt lat="45.1989" lon="5.16933">
        <ele>495.83</ele>
        <time>2017-06-20T18:02:35.999Z</time>
      </trkpt>
      <trkpt lat="45.19892" lon="5.16913">
        <ele>492.96</ele>
        <time>2017-06-20T18:02:37.999Z</time>
      </trkpt>
      <trkpt lat="45.19893" lon="5.16894">
        <ele>489.82</ele>
        <time>2017-06-20T18:02:39.999Z</time>
      </trkpt>
      <trkpt lat="45.19892" lon="5.16875">
        <ele>488.33</ele>
        <time>2017-06-20T18:02:41.999Z</time>
      </trkpt>
      <trkpt lat="45.1989" lon="5.16853">
        <ele>487.7</ele>
        <time>2017-06-20T18:02:43.999Z</time>
      </trkpt>
      <trkpt lat="45.19886" lon="5.16833">
        <ele>487.05</ele>
        <time>2017-06-20T18:02:45.999Z</time>
      </trkpt>
      <trkpt lat="45.19878" lon="5.16815">
        <ele>486.02</ele>
        <time>2017-06-20T18:02:47.999Z</time>
      </trkpt>
      <trkpt lat="45.19869" lon="5.16796">
        <ele>485.05</ele>
        <time>2017-06-20T18:02:49.999Z</time>
      </trkpt>
      <trkpt lat="45.19861" lon="5.16779">
        <ele>484.46</ele>
        <time>2017-06-20T18:02:51.999Z</time>
      </trkpt>
      <trkpt lat="45.19853" lon="5.16761">
        <ele>484.59</ele>
        <time>2017-06-20T18:02:53.999Z</time>
      </trkpt>
      <trkpt lat="45.19846" lon="5.16746">
        <ele>483.21</ele>
        <time>2017-06-20T18:02:55.999Z</time>
      </trkpt>
      <trkpt lat="45.1984" lon="5.1673">
        <ele>481.38</ele>
        <time>2017-06-20T18:02:57.999Z</time>
      </trkpt>
      <trkpt lat="45.19833" lon="5.16713">
        <ele>479.93</ele>
        <time>2017-06-20T18:02:59.999Z</time>
      </trkpt>
      <trkpt lat="45.19827" lon="5.16696">
        <ele>478.9</ele>
        <time>2017-06-20T18:03:01.999Z</time>
      </trkpt>
      <trkpt lat="45.19821" lon="5.16679">
        <ele>478.82</ele>
        <time>2017-06-20T18:03:03.999Z</time>
      </trkpt>
      <trkpt lat="45.19815" lon="5.16662">
        <ele>478.89</ele>
        <time>2017-06-20T18:03:05.999Z</time>
      </trkpt>
      <trkpt lat="45.19811" lon="5.16645">
        <ele>478.82</ele>
        <time>2017-06-20T18:03:07.999Z</time>
      </trkpt>
      <trkpt lat="45.19805" lon="5.16626">
        <ele>478</ele>
        <time>2017-06-20T18:03:09.999Z</time>
      </trkpt>
      <trkpt lat="45.19798" lon="5.16605">
        <ele>477.27</ele>
        <time>2017-06-20T18:03:11.999Z</time>
      </trkpt>
      <trkpt lat="45.19793" lon="5.16585">
        <ele>476.85</ele>
        <time>2017-06-20T18:03:13.999Z</time>
      </trkpt>
      <trkpt lat="45.19788" lon="5.16564">
        <ele>476.4</ele>
        <time>2017-06-20T18:03:15.999Z</time>
      </trkpt>
      <trkpt lat="45.19787" lon="5.16542">
        <ele>475.83</ele>
        <time>2017-06-20T18:03:17.999Z</time>
      </trkpt>
      <trkpt lat="45.19789" lon="5.16519">
        <ele>474.98</ele>
        <time>2017-06-20T18:03:19.999Z</time>
      </trkpt>
      <trkpt lat="45.19791" lon="5.16495">
        <ele>475.2</ele>
        <time>2017-06-20T18:03:21.999Z</time>
      </trkpt>
      <trkpt lat="45.19793" lon="5.16482">
        <ele>475.82</ele>
        <time>2017-06-20T18:03:22.999Z</time>
      </trkpt>
      <trkpt lat="45.19797" lon="5.16458">
        <ele>476.37</ele>
        <time>2017-06-20T18:03:24.999Z</time>
      </trkpt>
      <trkpt lat="45.19801" lon="5.16435">
        <ele>476.85</ele>
        <time>2017-06-20T18:03:26.999Z</time>
      </trkpt>
      <trkpt lat="45.19804" lon="5.16411">
        <ele>477.17</ele>
        <time>2017-06-20T18:03:28.999Z</time>
      </trkpt>
      <trkpt lat="45.19806" lon="5.16387">
        <ele>477.3</ele>
        <time>2017-06-20T18:03:30.999Z</time>
      </trkpt>
      <trkpt lat="45.19809" lon="5.16363">
        <ele>477.21</ele>
        <time>2017-06-20T18:03:32.999Z</time>
      </trkpt>
      <trkpt lat="45.19809" lon="5.1635">
        <ele>477.2</ele>
        <time>2017-06-20T18:03:33.999Z</time>
      </trkpt>
      <trkpt lat="45.1981" lon="5.16336">
        <ele>476.89</ele>
        <time>2017-06-20T18:03:34.999Z</time>
      </trkpt>
      <trkpt lat="45.19811" lon="5.16323">
        <ele>476.6</ele>
        <time>2017-06-20T18:03:35.999Z</time>
      </trkpt>
      <trkpt lat="45.19812" lon="5.1631">
        <ele>476.13</ele>
        <time>2017-06-20T18:03:36.999Z</time>
      </trkpt>
      <trkpt lat="45.19812" lon="5.16297">
        <ele>475.64</ele>
        <time>2017-06-20T18:03:37.999Z</time>
      </trkpt>
      <trkpt lat="45.19814" lon="5.16282">
        <ele>474.87</ele>
        <time>2017-06-20T18:03:38.999Z</time>
      </trkpt>
      <trkpt lat="45.19816" lon="5.16269">
        <ele>474.65</ele>
        <time>2017-06-20T18:03:39.999Z</time>
      </trkpt>
      <trkpt lat="45.19819" lon="5.16256">
        <ele>474.42</ele>
        <time>2017-06-20T18:03:40.999Z</time>
      </trkpt>
      <trkpt lat="45.19824" lon="5.16232">
        <ele>474.83</ele>
        <time>2017-06-20T18:03:42.999Z</time>
      </trkpt>
      <trkpt lat="45.1983" lon="5.1621">
        <ele>475.27</ele>
        <time>2017-06-20T18:03:44.999Z</time>
      </trkpt>
      <trkpt lat="45.19838" lon="5.16189">
        <ele>475.59</ele>
        <time>2017-06-20T18:03:46.999Z</time>
      </trkpt>
      <trkpt lat="45.19845" lon="5.16169">
        <ele>476.22</ele>
        <time>2017-06-20T18:03:48.999Z</time>
      </trkpt>
      <trkpt lat="45.19852" lon="5.1615">
        <ele>476.2</ele>
        <time>2017-06-20T18:03:50.999Z</time>
      </trkpt>
      <trkpt lat="45.1986" lon="5.1613">
        <ele>475.9</ele>
        <time>2017-06-20T18:03:52.999Z</time>
      </trkpt>
      <trkpt lat="45.19867" lon="5.16112">
        <ele>475.7</ele>
        <time>2017-06-20T18:03:54.999Z</time>
      </trkpt>
      <trkpt lat="45.19873" lon="5.16093">
        <ele>475.64</ele>
        <time>2017-06-20T18:03:56.999Z</time>
      </trkpt>
      <trkpt lat="45.1988" lon="5.16075">
        <ele>475.49</ele>
        <time>2017-06-20T18:03:58.999Z</time>
      </trkpt>
      <trkpt lat="45.19885" lon="5.16057">
        <ele>476</ele>
        <time>2017-06-20T18:04:00.999Z</time>
      </trkpt>
      <trkpt lat="45.1989" lon="5.16038">
        <ele>476.64</ele>
        <time>2017-06-20T18:04:02.999Z</time>
      </trkpt>
      <trkpt lat="45.19894" lon="5.1602">
        <ele>477.28</ele>
        <time>2017-06-20T18:04:04.999Z</time>
      </trkpt>
      <trkpt lat="45.19899" lon="5.16002">
        <ele>477.64</ele>
        <time>2017-06-20T18:04:06.999Z</time>
      </trkpt>
      <trkpt lat="45.19902" lon="5.15984">
        <ele>477.21</ele>
        <time>2017-06-20T18:04:08.999Z</time>
      </trkpt>
      <trkpt lat="45.19904" lon="5.15967">
        <ele>477.05</ele>
        <time>2017-06-20T18:04:10.999Z</time>
      </trkpt>
      <trkpt lat="45.19906" lon="5.1595">
        <ele>476.75</ele>
        <time>2017-06-20T18:04:12.999Z</time>
      </trkpt>
      <trkpt lat="45.19906" lon="5.15935">
        <ele>477.32</ele>
        <time>2017-06-20T18:04:14.999Z</time>
      </trkpt>
      <trkpt lat="45.19907" lon="5.15918">
        <ele>477.8</ele>
        <time>2017-06-20T18:04:16.999Z</time>
      </trkpt>
      <trkpt lat="45.19907" lon="5.15903">
        <ele>477.32</ele>
        <time>2017-06-20T18:04:18.999Z</time>
      </trkpt>
      <trkpt lat="45.19908" lon="5.15886">
        <ele>477.26</ele>
        <time>2017-06-20T18:04:20.999Z</time>
      </trkpt>
      <trkpt lat="45.19909" lon="5.1587">
        <ele>476.49</ele>
        <time>2017-06-20T18:04:22.999Z</time>
      </trkpt>
      <trkpt lat="45.19909" lon="5.15856">
        <ele>476.28</ele>
        <time>2017-06-20T18:04:24.999Z</time>
      </trkpt>
      <trkpt lat="45.19909" lon="5.15842">
        <ele>476.63</ele>
        <time>2017-06-20T18:04:26.999Z</time>
      </trkpt>
      <trkpt lat="45.1991" lon="5.15825">
        <ele>476.68</ele>
        <time>2017-06-20T18:04:28.999Z</time>
      </trkpt>
      <trkpt lat="45.1991" lon="5.15809">
        <ele>476.25</ele>
        <time>2017-06-20T18:04:30.999Z</time>
      </trkpt>
      <trkpt lat="45.19911" lon="5.15794">
        <ele>475.83</ele>
        <time>2017-06-20T18:04:32.999Z</time>
      </trkpt>
      <trkpt lat="45.19911" lon="5.15779">
        <ele>475.74</ele>
        <time>2017-06-20T18:04:34.999Z</time>
      </trkpt>
      <trkpt lat="45.19911" lon="5.15764">
        <ele>475.63</ele>
        <time>2017-06-20T18:04:36.999Z</time>
      </trkpt>
      <trkpt lat="45.19911" lon="5.15749">
        <ele>475.7</ele>
        <time>2017-06-20T18:04:38.999Z</time>
      </trkpt>
      <trkpt lat="45.1991" lon="5.15734">
        <ele>476.34</ele>
        <time>2017-06-20T18:04:40.999Z</time>
      </trkpt>
      <trkpt lat="45.19909" lon="5.15718">
        <ele>476.79</ele>
        <time>2017-06-20T18:04:42.999Z</time>
      </trkpt>
      <trkpt lat="45.19908" lon="5.15704">
        <ele>476.98</ele>
        <time>2017-06-20T18:04:44.999Z</time>
      </trkpt>
      <trkpt lat="45.19907" lon="5.15689">
        <ele>476.85</ele>
        <time>2017-06-20T18:04:46.999Z</time>
      </trkpt>
      <trkpt lat="45.19904" lon="5.15674">
        <ele>476.78</ele>
        <time>2017-06-20T18:04:48.999Z</time>
      </trkpt>
      <trkpt lat="45.19902" lon="5.15658">
        <ele>477.18</ele>
        <time>2017-06-20T18:04:50.999Z</time>
      </trkpt>
      <trkpt lat="45.19901" lon="5.15642">
        <ele>477.47</ele>
        <time>2017-06-20T18:04:52.999Z</time>
      </trkpt>
      <trkpt lat="45.19898" lon="5.15626">
        <ele>477.44</ele>
        <time>2017-06-20T18:04:54.999Z</time>
      </trkpt>
      <trkpt lat="45.19896" lon="5.15611">
        <ele>477.88</ele>
        <time>2017-06-20T18:04:56.999Z</time>
      </trkpt>
      <trkpt lat="45.19893" lon="5.15596">
        <ele>477.75</ele>
        <time>2017-06-20T18:04:58.999Z</time>
      </trkpt>
      <trkpt lat="45.19891" lon="5.15579">
        <ele>477.41</ele>
        <time>2017-06-20T18:05:00.999Z</time>
      </trkpt>
      <trkpt lat="45.19887" lon="5.15562">
        <ele>477.61</ele>
        <time>2017-06-20T18:05:02.999Z</time>
      </trkpt>
      <trkpt lat="45.19883" lon="5.15547">
        <ele>477.58</ele>
        <time>2017-06-20T18:05:04.999Z</time>
      </trkpt>
      <trkpt lat="45.19879" lon="5.15532">
        <ele>477.95</ele>
        <time>2017-06-20T18:05:06.999Z</time>
      </trkpt>
      <trkpt lat="45.19874" lon="5.15516">
        <ele>477.87</ele>
        <time>2017-06-20T18:05:08.999Z</time>
      </trkpt>
      <trkpt lat="45.19869" lon="5.15499">
        <ele>477.56</ele>
        <time>2017-06-20T18:05:10.999Z</time>
      </trkpt>
      <trkpt lat="45.19864" lon="5.15482">
        <ele>477.04</ele>
        <time>2017-06-20T18:05:12.999Z</time>
      </trkpt>
      <trkpt lat="45.19858" lon="5.15463">
        <ele>477.39</ele>
        <time>2017-06-20T18:05:14.999Z</time>
      </trkpt>
      <trkpt lat="45.19853" lon="5.15447">
        <ele>477.24</ele>
        <time>2017-06-20T18:05:16.999Z</time>
      </trkpt>
      <trkpt lat="45.19848" lon="5.15429">
        <ele>476.98</ele>
        <time>2017-06-20T18:05:18.999Z</time>
      </trkpt>
      <trkpt lat="45.19843" lon="5.15413">
        <ele>477.27</ele>
        <time>2017-06-20T18:05:20.999Z</time>
      </trkpt>
      <trkpt lat="45.19837" lon="5.15395">
        <ele>478.41</ele>
        <time>2017-06-20T18:05:22.999Z</time>
      </trkpt>
      <trkpt lat="45.19832" lon="5.15378">
        <ele>478.96</ele>
        <time>2017-06-20T18:05:24.999Z</time>
      </trkpt>
      <trkpt lat="45.19827" lon="5.15362">
        <ele>478.24</ele>
        <time>2017-06-20T18:05:26.999Z</time>
      </trkpt>
      <trkpt lat="45.19822" lon="5.15345">
        <ele>478.28</ele>
        <time>2017-06-20T18:05:28.999Z</time>
      </trkpt>
      <trkpt lat="45.19816" lon="5.15328">
        <ele>478.08</ele>
        <time>2017-06-20T18:05:30.999Z</time>
      </trkpt>
      <trkpt lat="45.19812" lon="5.15311">
        <ele>477.45</ele>
        <time>2017-06-20T18:05:32.999Z</time>
      </trkpt>
      <trkpt lat="45.19807" lon="5.15294">
        <ele>476.79</ele>
        <time>2017-06-20T18:05:34.999Z</time>
      </trkpt>
      <trkpt lat="45.19802" lon="5.15277">
        <ele>476.31</ele>
        <time>2017-06-20T18:05:36.999Z</time>
      </trkpt>
      <trkpt lat="45.19796" lon="5.15259">
        <ele>475.88</ele>
        <time>2017-06-20T18:05:38.999Z</time>
      </trkpt>
      <trkpt lat="45.1979" lon="5.15241">
        <ele>474.42</ele>
        <time>2017-06-20T18:05:40.999Z</time>
      </trkpt>
      <trkpt lat="45.19785" lon="5.15224">
        <ele>473.72</ele>
        <time>2017-06-20T18:05:42.999Z</time>
      </trkpt>
      <trkpt lat="45.19781" lon="5.15208">
        <ele>474.09</ele>
        <time>2017-06-20T18:05:44.999Z</time>
      </trkpt>
      <trkpt lat="45.19775" lon="5.15192">
        <ele>474.83</ele>
        <time>2017-06-20T18:05:46.999Z</time>
      </trkpt>
      <trkpt lat="45.1977" lon="5.15174">
        <ele>474.94</ele>
        <time>2017-06-20T18:05:48.999Z</time>
      </trkpt>
      <trkpt lat="45.19765" lon="5.15157">
        <ele>474.86</ele>
        <time>2017-06-20T18:05:50.999Z</time>
      </trkpt>
      <trkpt lat="45.1976" lon="5.15139">
        <ele>474.21</ele>
        <time>2017-06-20T18:05:52.999Z</time>
      </trkpt>
      <trkpt lat="45.19756" lon="5.1512">
        <ele>474.71</ele>
        <time>2017-06-20T18:05:54.999Z</time>
      </trkpt>
      <trkpt lat="45.19753" lon="5.15101">
        <ele>474.83</ele>
        <time>2017-06-20T18:05:56.999Z</time>
      </trkpt>
      <trkpt lat="45.1975" lon="5.15082">
        <ele>474.52</ele>
        <time>2017-06-20T18:05:58.999Z</time>
      </trkpt>
      <trkpt lat="45.19747" lon="5.15061">
        <ele>474.27</ele>
        <time>2017-06-20T18:06:00.999Z</time>
      </trkpt>
      <trkpt lat="45.19744" lon="5.1504">
        <ele>473.16</ele>
        <time>2017-06-20T18:06:02.999Z</time>
      </trkpt>
      <trkpt lat="45.19742" lon="5.15019">
        <ele>472.81</ele>
        <time>2017-06-20T18:06:04.999Z</time>
      </trkpt>
      <trkpt lat="45.1974" lon="5.14998">
        <ele>471.9</ele>
        <time>2017-06-20T18:06:06.999Z</time>
      </trkpt>
      <trkpt lat="45.19737" lon="5.14978">
        <ele>471.98</ele>
        <time>2017-06-20T18:06:08.999Z</time>
      </trkpt>
      <trkpt lat="45.19734" lon="5.14958">
        <ele>472.24</ele>
        <time>2017-06-20T18:06:10.999Z</time>
      </trkpt>
      <trkpt lat="45.19733" lon="5.14938">
        <ele>471.62</ele>
        <time>2017-06-20T18:06:12.999Z</time>
      </trkpt>
      <trkpt lat="45.19732" lon="5.1492">
        <ele>471.04</ele>
        <time>2017-06-20T18:06:14.999Z</time>
      </trkpt>
      <trkpt lat="45.19732" lon="5.14901">
        <ele>470.73</ele>
        <time>2017-06-20T18:06:16.999Z</time>
      </trkpt>
      <trkpt lat="45.19732" lon="5.14885">
        <ele>469.94</ele>
        <time>2017-06-20T18:06:18.999Z</time>
      </trkpt>
      <trkpt lat="45.19732" lon="5.14867">
        <ele>468.49</ele>
        <time>2017-06-20T18:06:20.999Z</time>
      </trkpt>
      <trkpt lat="45.19731" lon="5.14852">
        <ele>468.02</ele>
        <time>2017-06-20T18:06:22.999Z</time>
      </trkpt>
      <trkpt lat="45.1973" lon="5.14836">
        <ele>468.46</ele>
        <time>2017-06-20T18:06:24.999Z</time>
      </trkpt>
      <trkpt lat="45.19732" lon="5.1482">
        <ele>469.19</ele>
        <time>2017-06-20T18:06:26.999Z</time>
      </trkpt>
      <trkpt lat="45.1973" lon="5.14803">
        <ele>469.72</ele>
        <time>2017-06-20T18:06:28.999Z</time>
      </trkpt>
      <trkpt lat="45.19727" lon="5.14787">
        <ele>469.94</ele>
        <time>2017-06-20T18:06:30.999Z</time>
      </trkpt>
      <trkpt lat="45.19722" lon="5.14771">
        <ele>468.89</ele>
        <time>2017-06-20T18:06:32.999Z</time>
      </trkpt>
      <trkpt lat="45.19717" lon="5.14756">
        <ele>468.32</ele>
        <time>2017-06-20T18:06:34.999Z</time>
      </trkpt>
      <trkpt lat="45.19711" lon="5.14742">
        <ele>468.02</ele>
        <time>2017-06-20T18:06:36.999Z</time>
      </trkpt>
      <trkpt lat="45.19702" lon="5.14729">
        <ele>468.07</ele>
        <time>2017-06-20T18:06:38.999Z</time>
      </trkpt>
      <trkpt lat="45.19692" lon="5.1472">
        <ele>467.89</ele>
        <time>2017-06-20T18:06:40.999Z</time>
      </trkpt>
      <trkpt lat="45.19676" lon="5.14709">
        <ele>466.95</ele>
        <time>2017-06-20T18:06:43.999Z</time>
      </trkpt>
      <trkpt lat="45.19665" lon="5.14702">
        <ele>465.61</ele>
        <time>2017-06-20T18:06:45.999Z</time>
      </trkpt>
      <trkpt lat="45.19654" lon="5.14692">
        <ele>464.25</ele>
        <time>2017-06-20T18:06:47.999Z</time>
      </trkpt>
      <trkpt lat="45.19642" lon="5.14682">
        <ele>463.68</ele>
        <time>2017-06-20T18:06:49.999Z</time>
      </trkpt>
      <trkpt lat="45.19631" lon="5.14671">
        <ele>463.51</ele>
        <time>2017-06-20T18:06:51.999Z</time>
      </trkpt>
      <trkpt lat="45.1962" lon="5.1466">
        <ele>463.43</ele>
        <time>2017-06-20T18:06:53.999Z</time>
      </trkpt>
      <trkpt lat="45.19612" lon="5.14647">
        <ele>463.77</ele>
        <time>2017-06-20T18:06:55.999Z</time>
      </trkpt>
      <trkpt lat="45.19605" lon="5.14635">
        <ele>464.18</ele>
        <time>2017-06-20T18:06:57.999Z</time>
      </trkpt>
      <trkpt lat="45.19601" lon="5.1462">
        <ele>464.75</ele>
        <time>2017-06-20T18:06:59.999Z</time>
      </trkpt>
      <trkpt lat="45.19598" lon="5.14606">
        <ele>465.05</ele>
        <time>2017-06-20T18:07:01.999Z</time>
      </trkpt>
      <trkpt lat="45.19598" lon="5.14588">
        <ele>465.53</ele>
        <time>2017-06-20T18:07:04.999Z</time>
      </trkpt>
      <trkpt lat="45.19597" lon="5.14569">
        <ele>465.74</ele>
        <time>2017-06-20T18:07:07.999Z</time>
      </trkpt>
      <trkpt lat="45.19597" lon="5.14555">
        <ele>465.41</ele>
        <time>2017-06-20T18:07:09.999Z</time>
      </trkpt>
      <trkpt lat="45.19598" lon="5.14538">
        <ele>465.62</ele>
        <time>2017-06-20T18:07:12.999Z</time>
      </trkpt>
      <trkpt lat="45.19598" lon="5.14525">
        <ele>465.81</ele>
        <time>2017-06-20T18:07:14.999Z</time>
      </trkpt>
      <trkpt lat="45.19597" lon="5.14507">
        <ele>467.28</ele>
        <time>2017-06-20T18:07:17.999Z</time>
      </trkpt>
      <trkpt lat="45.19597" lon="5.14494">
        <ele>468.38</ele>
        <time>2017-06-20T18:07:19.999Z</time>
      </trkpt>
      <trkpt lat="45.19596" lon="5.14479">
        <ele>469.01</ele>
        <time>2017-06-20T18:07:21.999Z</time>
      </trkpt>
      <trkpt lat="45.19594" lon="5.14463">
        <ele>469</ele>
        <time>2017-06-20T18:07:23.999Z</time>
      </trkpt>
      <trkpt lat="45.1959" lon="5.14448">
        <ele>468.6</ele>
        <time>2017-06-20T18:07:25.999Z</time>
      </trkpt>
      <trkpt lat="45.19584" lon="5.14431">
        <ele>467.89</ele>
        <time>2017-06-20T18:07:27.999Z</time>
      </trkpt>
      <trkpt lat="45.19575" lon="5.14417">
        <ele>466.99</ele>
        <time>2017-06-20T18:07:29.999Z</time>
      </trkpt>
      <trkpt lat="45.19564" lon="5.14405">
        <ele>466.14</ele>
        <time>2017-06-20T18:07:31.999Z</time>
      </trkpt>
      <trkpt lat="45.19551" lon="5.14393">
        <ele>465.7</ele>
        <time>2017-06-20T18:07:33.999Z</time>
      </trkpt>
      <trkpt lat="45.19537" lon="5.1438">
        <ele>464.69</ele>
        <time>2017-06-20T18:07:35.999Z</time>
      </trkpt>
      <trkpt lat="45.19525" lon="5.14366">
        <ele>463.6</ele>
        <time>2017-06-20T18:07:37.999Z</time>
      </trkpt>
      <trkpt lat="45.19515" lon="5.14346">
        <ele>463.2</ele>
        <time>2017-06-20T18:07:39.999Z</time>
      </trkpt>
      <trkpt lat="45.19512" lon="5.14333">
        <ele>462.28</ele>
        <time>2017-06-20T18:07:40.999Z</time>
      </trkpt>
      <trkpt lat="45.1951" lon="5.14311">
        <ele>461.51</ele>
        <time>2017-06-20T18:07:42.999Z</time>
      </trkpt>
      <trkpt lat="45.19515" lon="5.14293">
        <ele>460.69</ele>
        <time>2017-06-20T18:07:44.999Z</time>
      </trkpt>
      <trkpt lat="45.1952" lon="5.1428">
        <ele>459.99</ele>
        <time>2017-06-20T18:07:46.999Z</time>
      </trkpt>
      <trkpt lat="45.19525" lon="5.14266">
        <ele>459.42</ele>
        <time>2017-06-20T18:07:48.999Z</time>
      </trkpt>
      <trkpt lat="45.19531" lon="5.14255">
        <ele>459.35</ele>
        <time>2017-06-20T18:07:51.999Z</time>
      </trkpt>
      <trkpt lat="45.19523" lon="5.14262">
        <ele>459.58</ele>
        <time>2017-06-20T18:07:58.999Z</time>
      </trkpt>
      <trkpt lat="45.19511" lon="5.14259">
        <ele>459.77</ele>
        <time>2017-06-20T18:08:01.999Z</time>
      </trkpt>
      <trkpt lat="45.19502" lon="5.14256">
        <ele>459.92</ele>
        <time>2017-06-20T18:08:04.999Z</time>
      </trkpt>
      <trkpt lat="45.1949" lon="5.14252">
        <ele>460.09</ele>
        <time>2017-06-20T18:08:08.999Z</time>
      </trkpt>
      <trkpt lat="45.1948" lon="5.14248">
        <ele>460.1</ele>
        <time>2017-06-20T18:08:11.999Z</time>
      </trkpt>
      <trkpt lat="45.19471" lon="5.14245">
        <ele>460.14</ele>
        <time>2017-06-20T18:08:14.999Z</time>
      </trkpt>
      <trkpt lat="45.19462" lon="5.14242">
        <ele>460.08</ele>
        <time>2017-06-20T18:08:17.999Z</time>
      </trkpt>
      <trkpt lat="45.1945" lon="5.14238">
        <ele>459.95</ele>
        <time>2017-06-20T18:08:21.999Z</time>
      </trkpt>
      <trkpt lat="45.1944" lon="5.14234">
        <ele>460.02</ele>
        <time>2017-06-20T18:08:25.999Z</time>
      </trkpt>
      <trkpt lat="45.19431" lon="5.14231">
        <ele>460.12</ele>
        <time>2017-06-20T18:08:28.999Z</time>
      </trkpt>
      <trkpt lat="45.1942" lon="5.14228">
        <ele>460.46</ele>
        <time>2017-06-20T18:08:32.999Z</time>
      </trkpt>
      <trkpt lat="45.19408" lon="5.14224">
        <ele>460.88</ele>
        <time>2017-06-20T18:08:36.999Z</time>
      </trkpt>
      <trkpt lat="45.19399" lon="5.14221">
        <ele>461.36</ele>
        <time>2017-06-20T18:08:40.999Z</time>
      </trkpt>
      <trkpt lat="45.19389" lon="5.14219">
        <ele>461.77</ele>
        <time>2017-06-20T18:08:43.999Z</time>
      </trkpt>
      <trkpt lat="45.19379" lon="5.14218">
        <ele>462.33</ele>
        <time>2017-06-20T18:08:47.999Z</time>
      </trkpt>
      <trkpt lat="45.19367" lon="5.14216">
        <ele>462.94</ele>
        <time>2017-06-20T18:08:51.999Z</time>
      </trkpt>
      <trkpt lat="45.19355" lon="5.14215">
        <ele>463.35</ele>
        <time>2017-06-20T18:08:55.999Z</time>
      </trkpt>
      <trkpt lat="45.19345" lon="5.14216">
        <ele>463.88</ele>
        <time>2017-06-20T18:08:59.999Z</time>
      </trkpt>
      <trkpt lat="45.19335" lon="5.14215">
        <ele>464.51</ele>
        <time>2017-06-20T18:09:03.999Z</time>
      </trkpt>
      <trkpt lat="45.19323" lon="5.14214">
        <ele>465.04</ele>
        <time>2017-06-20T18:09:07.999Z</time>
      </trkpt>
      <trkpt lat="45.19314" lon="5.14212">
        <ele>465.48</ele>
        <time>2017-06-20T18:09:10.999Z</time>
      </trkpt>
      <trkpt lat="45.19304" lon="5.14212">
        <ele>466.76</ele>
        <time>2017-06-20T18:09:16.999Z</time>
      </trkpt>
      <trkpt lat="45.19295" lon="5.1421">
        <ele>467.47</ele>
        <time>2017-06-20T18:09:19.999Z</time>
      </trkpt>
      <trkpt lat="45.19284" lon="5.14209">
        <ele>468.41</ele>
        <time>2017-06-20T18:09:23.999Z</time>
      </trkpt>
      <trkpt lat="45.19275" lon="5.14207">
        <ele>468.97</ele>
        <time>2017-06-20T18:09:26.999Z</time>
      </trkpt>
      <trkpt lat="45.19264" lon="5.14205">
        <ele>469.62</ele>
        <time>2017-06-20T18:09:30.999Z</time>
      </trkpt>
      <trkpt lat="45.19253" lon="5.14202">
        <ele>470.33</ele>
        <time>2017-06-20T18:09:34.999Z</time>
      </trkpt>
      <trkpt lat="45.19244" lon="5.142">
        <ele>470.77</ele>
        <time>2017-06-20T18:09:37.999Z</time>
      </trkpt>
      <trkpt lat="45.19233" lon="5.14198">
        <ele>471.31</ele>
        <time>2017-06-20T18:09:41.999Z</time>
      </trkpt>
      <trkpt lat="45.19223" lon="5.14195">
        <ele>471.88</ele>
        <time>2017-06-20T18:09:45.999Z</time>
      </trkpt>
      <trkpt lat="45.19213" lon="5.14192">
        <ele>472.58</ele>
        <time>2017-06-20T18:09:49.999Z</time>
      </trkpt>
      <trkpt lat="45.19202" lon="5.14188">
        <ele>473.27</ele>
        <time>2017-06-20T18:09:53.999Z</time>
      </trkpt>
      <trkpt lat="45.19193" lon="5.14181">
        <ele>473.9</ele>
        <time>2017-06-20T18:09:57.999Z</time>
      </trkpt>
      <trkpt lat="45.19185" lon="5.14174">
        <ele>474.7</ele>
        <time>2017-06-20T18:10:01.999Z</time>
      </trkpt>
      <trkpt lat="45.19175" lon="5.14166">
        <ele>475.48</ele>
        <time>2017-06-20T18:10:05.999Z</time>
      </trkpt>
      <trkpt lat="45.19167" lon="5.14157">
        <ele>476.25</ele>
        <time>2017-06-20T18:10:09.999Z</time>
      </trkpt>
      <trkpt lat="45.19159" lon="5.14148">
        <ele>477.02</ele>
        <time>2017-06-20T18:10:13.999Z</time>
      </trkpt>
      <trkpt lat="45.1915" lon="5.14138">
        <ele>477.7</ele>
        <time>2017-06-20T18:10:17.999Z</time>
      </trkpt>
      <trkpt lat="45.19141" lon="5.14128">
        <ele>478.22</ele>
        <time>2017-06-20T18:10:21.999Z</time>
      </trkpt>
      <trkpt lat="45.19132" lon="5.1412">
        <ele>478.81</ele>
        <time>2017-06-20T18:10:25.999Z</time>
      </trkpt>
      <trkpt lat="45.19124" lon="5.14112">
        <ele>479.45</ele>
        <time>2017-06-20T18:10:29.999Z</time>
      </trkpt>
      <trkpt lat="45.19114" lon="5.14103">
        <ele>480.17</ele>
        <time>2017-06-20T18:10:33.999Z</time>
      </trkpt>
      <trkpt lat="45.19104" lon="5.14094">
        <ele>480.8</ele>
        <time>2017-06-20T18:10:37.999Z</time>
      </trkpt>
      <trkpt lat="45.19095" lon="5.14087">
        <ele>481.9</ele>
        <time>2017-06-20T18:10:42.999Z</time>
      </trkpt>
      <trkpt lat="45.19087" lon="5.14081">
        <ele>482.95</ele>
        <time>2017-06-20T18:10:46.999Z</time>
      </trkpt>
      <trkpt lat="45.19078" lon="5.14074">
        <ele>484.18</ele>
        <time>2017-06-20T18:10:50.999Z</time>
      </trkpt>
      <trkpt lat="45.19069" lon="5.14066">
        <ele>485.29</ele>
        <time>2017-06-20T18:10:54.999Z</time>
      </trkpt>
      <trkpt lat="45.1906" lon="5.14058">
        <ele>486.35</ele>
        <time>2017-06-20T18:10:58.999Z</time>
      </trkpt>
      <trkpt lat="45.19051" lon="5.14052">
        <ele>487.42</ele>
        <time>2017-06-20T18:11:02.999Z</time>
      </trkpt>
      <trkpt lat="45.19041" lon="5.14044">
        <ele>488.39</ele>
        <time>2017-06-20T18:11:06.999Z</time>
      </trkpt>
      <trkpt lat="45.19032" lon="5.14038">
        <ele>489.22</ele>
        <time>2017-06-20T18:11:10.999Z</time>
      </trkpt>
      <trkpt lat="45.19025" lon="5.1403">
        <ele>489.97</ele>
        <time>2017-06-20T18:11:14.999Z</time>
      </trkpt>
      <trkpt lat="45.19016" lon="5.14023">
        <ele>490.67</ele>
        <time>2017-06-20T18:11:18.999Z</time>
      </trkpt>
      <trkpt lat="45.19008" lon="5.14016">
        <ele>491.34</ele>
        <time>2017-06-20T18:11:22.999Z</time>
      </trkpt>
      <trkpt lat="45.19" lon="5.14008">
        <ele>492.06</ele>
        <time>2017-06-20T18:11:26.999Z</time>
      </trkpt>
      <trkpt lat="45.18992" lon="5.14">
        <ele>492.74</ele>
        <time>2017-06-20T18:11:30.999Z</time>
      </trkpt>
      <trkpt lat="45.18984" lon="5.13993">
        <ele>493.43</ele>
        <time>2017-06-20T18:11:34.999Z</time>
      </trkpt>
      <trkpt lat="45.18974" lon="5.13983">
        <ele>494.57</ele>
        <time>2017-06-20T18:11:39.999Z</time>
      </trkpt>
      <trkpt lat="45.18967" lon="5.13974">
        <ele>495.33</ele>
        <time>2017-06-20T18:11:43.999Z</time>
      </trkpt>
      <trkpt lat="45.18959" lon="5.13965">
        <ele>496.16</ele>
        <time>2017-06-20T18:11:47.999Z</time>
      </trkpt>
      <trkpt lat="45.1895" lon="5.13955">
        <ele>497.27</ele>
        <time>2017-06-20T18:11:52.999Z</time>
      </trkpt>
      <trkpt lat="45.18943" lon="5.13946">
        <ele>498.19</ele>
        <time>2017-06-20T18:11:56.999Z</time>
      </trkpt>
      <trkpt lat="45.18935" lon="5.13937">
        <ele>499.03</ele>
        <time>2017-06-20T18:12:00.999Z</time>
      </trkpt>
      <trkpt lat="45.18928" lon="5.13929">
        <ele>499.87</ele>
        <time>2017-06-20T18:12:04.999Z</time>
      </trkpt>
      <trkpt lat="45.18919" lon="5.13921">
        <ele>500.67</ele>
        <time>2017-06-20T18:12:08.999Z</time>
      </trkpt>
      <trkpt lat="45.18912" lon="5.13914">
        <ele>501.49</ele>
        <time>2017-06-20T18:12:12.999Z</time>
      </trkpt>
      <trkpt lat="45.18905" lon="5.13906">
        <ele>502.34</ele>
        <time>2017-06-20T18:12:16.999Z</time>
      </trkpt>
      <trkpt lat="45.18896" lon="5.13898">
        <ele>503.22</ele>
        <time>2017-06-20T18:12:20.999Z</time>
      </trkpt>
      <trkpt lat="45.18888" lon="5.13891">
        <ele>503.94</ele>
        <time>2017-06-20T18:12:24.999Z</time>
      </trkpt>
      <trkpt lat="45.18878" lon="5.13882">
        <ele>504.96</ele>
        <time>2017-06-20T18:12:29.999Z</time>
      </trkpt>
      <trkpt lat="45.18869" lon="5.13874">
        <ele>505.7</ele>
        <time>2017-06-20T18:12:33.999Z</time>
      </trkpt>
      <trkpt lat="45.1886" lon="5.13865">
        <ele>506.68</ele>
        <time>2017-06-20T18:12:38.999Z</time>
      </trkpt>
      <trkpt lat="45.18851" lon="5.13856">
        <ele>507.32</ele>
        <time>2017-06-20T18:12:42.999Z</time>
      </trkpt>
      <trkpt lat="45.18844" lon="5.13848">
        <ele>508.09</ele>
        <time>2017-06-20T18:12:46.999Z</time>
      </trkpt>
      <trkpt lat="45.18836" lon="5.13841">
        <ele>508.95</ele>
        <time>2017-06-20T18:12:50.999Z</time>
      </trkpt>
      <trkpt lat="45.18826" lon="5.13837">
        <ele>509.72</ele>
        <time>2017-06-20T18:12:54.999Z</time>
      </trkpt>
      <trkpt lat="45.18816" lon="5.13837">
        <ele>510.93</ele>
        <time>2017-06-20T18:12:59.999Z</time>
      </trkpt>
      <trkpt lat="45.18808" lon="5.13842">
        <ele>512.09</ele>
        <time>2017-06-20T18:13:03.999Z</time>
      </trkpt>
      <trkpt lat="45.18801" lon="5.13852">
        <ele>513.82</ele>
        <time>2017-06-20T18:13:08.999Z</time>
      </trkpt>
      <trkpt lat="45.18795" lon="5.13863">
        <ele>515.53</ele>
        <time>2017-06-20T18:13:13.999Z</time>
      </trkpt>
      <trkpt lat="45.18789" lon="5.13876">
        <ele>516.63</ele>
        <time>2017-06-20T18:13:17.999Z</time>
      </trkpt>
      <trkpt lat="45.18784" lon="5.13888">
        <ele>517.86</ele>
        <time>2017-06-20T18:13:21.999Z</time>
      </trkpt>
      <trkpt lat="45.18779" lon="5.13899">
        <ele>519.01</ele>
        <time>2017-06-20T18:13:25.999Z</time>
      </trkpt>
      <trkpt lat="45.18775" lon="5.13913">
        <ele>520.14</ele>
        <time>2017-06-20T18:13:29.999Z</time>
      </trkpt>
      <trkpt lat="45.1877" lon="5.13924">
        <ele>521.09</ele>
        <time>2017-06-20T18:13:33.999Z</time>
      </trkpt>
      <trkpt lat="45.18765" lon="5.13937">
        <ele>522.06</ele>
        <time>2017-06-20T18:13:37.999Z</time>
      </trkpt>
      <trkpt lat="45.1876" lon="5.1395">
        <ele>522.81</ele>
        <time>2017-06-20T18:13:41.999Z</time>
      </trkpt>
      <trkpt lat="45.18755" lon="5.13963">
        <ele>523.99</ele>
        <time>2017-06-20T18:13:46.999Z</time>
      </trkpt>
      <trkpt lat="45.18751" lon="5.13979">
        <ele>525.05</ele>
        <time>2017-06-20T18:13:51.999Z</time>
      </trkpt>
      <trkpt lat="45.18751" lon="5.13993">
        <ele>525.85</ele>
        <time>2017-06-20T18:13:54.999Z</time>
      </trkpt>
      <trkpt lat="45.18752" lon="5.14007">
        <ele>527.47</ele>
        <time>2017-06-20T18:13:59.999Z</time>
      </trkpt>
      <trkpt lat="45.18755" lon="5.14019">
        <ele>528.7</ele>
        <time>2017-06-20T18:14:03.999Z</time>
      </trkpt>
      <trkpt lat="45.18758" lon="5.14033">
        <ele>529.99</ele>
        <time>2017-06-20T18:14:07.999Z</time>
      </trkpt>
      <trkpt lat="45.18761" lon="5.14046">
        <ele>530.87</ele>
        <time>2017-06-20T18:14:11.999Z</time>
      </trkpt>
      <trkpt lat="45.18767" lon="5.14057">
        <ele>531.67</ele>
        <time>2017-06-20T18:14:15.999Z</time>
      </trkpt>
      <trkpt lat="45.18773" lon="5.14071">
        <ele>532.45</ele>
        <time>2017-06-20T18:14:20.999Z</time>
      </trkpt>
      <trkpt lat="45.18778" lon="5.14083">
        <ele>533.13</ele>
        <time>2017-06-20T18:14:24.999Z</time>
      </trkpt>
      <trkpt lat="45.18782" lon="5.14099">
        <ele>533.67</ele>
        <time>2017-06-20T18:14:28.999Z</time>
      </trkpt>
      <trkpt lat="45.18786" lon="5.14113">
        <ele>534.27</ele>
        <time>2017-06-20T18:14:33.999Z</time>
      </trkpt>
      <trkpt lat="45.18789" lon="5.14126">
        <ele>534.56</ele>
        <time>2017-06-20T18:14:37.999Z</time>
      </trkpt>
      <trkpt lat="45.18791" lon="5.14141">
        <ele>535.09</ele>
        <time>2017-06-20T18:14:42.999Z</time>
      </trkpt>
      <trkpt lat="45.18793" lon="5.14153">
        <ele>535.52</ele>
        <time>2017-06-20T18:14:46.999Z</time>
      </trkpt>
      <trkpt lat="45.18794" lon="5.14168">
        <ele>535.95</ele>
        <time>2017-06-20T18:14:50.999Z</time>
      </trkpt>
      <trkpt lat="45.18796" lon="5.14182">
        <ele>536.33</ele>
        <time>2017-06-20T18:14:54.999Z</time>
      </trkpt>
      <trkpt lat="45.18797" lon="5.14196">
        <ele>536.62</ele>
        <time>2017-06-20T18:14:58.999Z</time>
      </trkpt>
      <trkpt lat="45.18797" lon="5.14209">
        <ele>537.08</ele>
        <time>2017-06-20T18:15:02.999Z</time>
      </trkpt>
      <trkpt lat="45.18796" lon="5.14222">
        <ele>537.77</ele>
        <time>2017-06-20T18:15:06.999Z</time>
      </trkpt>
      <trkpt lat="45.18793" lon="5.14237">
        <ele>538.65</ele>
        <time>2017-06-20T18:15:11.999Z</time>
      </trkpt>
      <trkpt lat="45.18789" lon="5.14248">
        <ele>539.33</ele>
        <time>2017-06-20T18:15:15.999Z</time>
      </trkpt>
      <trkpt lat="45.18781" lon="5.14258">
        <ele>539.93</ele>
        <time>2017-06-20T18:15:19.999Z</time>
      </trkpt>
      <trkpt lat="45.18773" lon="5.14265">
        <ele>540.58</ele>
        <time>2017-06-20T18:15:23.999Z</time>
      </trkpt>
      <trkpt lat="45.18764" lon="5.14269">
        <ele>541.34</ele>
        <time>2017-06-20T18:15:27.999Z</time>
      </trkpt>
      <trkpt lat="45.18754" lon="5.1427">
        <ele>542.23</ele>
        <time>2017-06-20T18:15:31.999Z</time>
      </trkpt>
      <trkpt lat="45.18745" lon="5.14273">
        <ele>543.61</ele>
        <time>2017-06-20T18:15:36.999Z</time>
      </trkpt>
      <trkpt lat="45.18733" lon="5.14272">
        <ele>545.41</ele>
        <time>2017-06-20T18:15:41.999Z</time>
      </trkpt>
      <trkpt lat="45.18725" lon="5.14266">
        <ele>547.09</ele>
        <time>2017-06-20T18:15:45.999Z</time>
      </trkpt>
      <trkpt lat="45.18716" lon="5.14263">
        <ele>548.52</ele>
        <time>2017-06-20T18:15:49.999Z</time>
      </trkpt>
      <trkpt lat="45.18706" lon="5.14257">
        <ele>549.91</ele>
        <time>2017-06-20T18:15:53.999Z</time>
      </trkpt>
      <trkpt lat="45.18696" lon="5.14251">
        <ele>551.27</ele>
        <time>2017-06-20T18:15:57.999Z</time>
      </trkpt>
      <trkpt lat="45.18686" lon="5.14244">
        <ele>552.23</ele>
        <time>2017-06-20T18:16:01.999Z</time>
      </trkpt>
      <trkpt lat="45.18677" lon="5.14237">
        <ele>552.91</ele>
        <time>2017-06-20T18:16:05.999Z</time>
      </trkpt>
      <trkpt lat="45.18668" lon="5.14231">
        <ele>553.35</ele>
        <time>2017-06-20T18:16:09.999Z</time>
      </trkpt>
      <trkpt lat="45.1866" lon="5.14225">
        <ele>553.52</ele>
        <time>2017-06-20T18:16:12.999Z</time>
      </trkpt>
      <trkpt lat="45.1865" lon="5.1422">
        <ele>553.75</ele>
        <time>2017-06-20T18:16:16.999Z</time>
      </trkpt>
      <trkpt lat="45.18641" lon="5.14213">
        <ele>554.06</ele>
        <time>2017-06-20T18:16:20.999Z</time>
      </trkpt>
      <trkpt lat="45.18633" lon="5.14206">
        <ele>554.38</ele>
        <time>2017-06-20T18:16:24.999Z</time>
      </trkpt>
      <trkpt lat="45.18625" lon="5.14197">
        <ele>554.75</ele>
        <time>2017-06-20T18:16:28.999Z</time>
      </trkpt>
      <trkpt lat="45.18615" lon="5.14197">
        <ele>555.11</ele>
        <time>2017-06-20T18:16:33.999Z</time>
      </trkpt>
      <trkpt lat="45.1861" lon="5.14208">
        <ele>555.26</ele>
        <time>2017-06-20T18:16:37.999Z</time>
      </trkpt>
      <trkpt lat="45.18612" lon="5.14222">
        <ele>555.42</ele>
        <time>2017-06-20T18:16:41.999Z</time>
      </trkpt>
      <trkpt lat="45.18617" lon="5.14236">
        <ele>555.66</ele>
        <time>2017-06-20T18:16:45.999Z</time>
      </trkpt>
      <trkpt lat="45.1862" lon="5.1425">
        <ele>555.9</ele>
        <time>2017-06-20T18:16:49.999Z</time>
      </trkpt>
      <trkpt lat="45.1862" lon="5.14263">
        <ele>556.2</ele>
        <time>2017-06-20T18:16:53.999Z</time>
      </trkpt>
      <trkpt lat="45.18619" lon="5.14275">
        <ele>556.51</ele>
        <time>2017-06-20T18:16:57.999Z</time>
      </trkpt>
      <trkpt lat="45.18617" lon="5.14288">
        <ele>556.64</ele>
        <time>2017-06-20T18:17:01.999Z</time>
      </trkpt>
      <trkpt lat="45.18613" lon="5.14299">
        <ele>556.82</ele>
        <time>2017-06-20T18:17:05.999Z</time>
      </trkpt>
      <trkpt lat="45.18608" lon="5.14311">
        <ele>557.1</ele>
        <time>2017-06-20T18:17:09.999Z</time>
      </trkpt>
      <trkpt lat="45.18602" lon="5.14323">
        <ele>557.44</ele>
        <time>2017-06-20T18:17:13.999Z</time>
      </trkpt>
      <trkpt lat="45.18596" lon="5.14336">
        <ele>557.88</ele>
        <time>2017-06-20T18:17:17.999Z</time>
      </trkpt>
      <trkpt lat="45.18581" lon="5.14362">
        <ele>558.87</ele>
        <time>2017-06-20T18:17:25.999Z</time>
      </trkpt>
      <trkpt lat="45.18573" lon="5.1437">
        <ele>559.31</ele>
        <time>2017-06-20T18:17:28.999Z</time>
      </trkpt>
      <trkpt lat="45.18563" lon="5.14376">
        <ele>559.72</ele>
        <time>2017-06-20T18:17:31.999Z</time>
      </trkpt>
      <trkpt lat="45.18551" lon="5.14379">
        <ele>561.99</ele>
        <time>2017-06-20T18:17:34.999Z</time>
      </trkpt>
      <trkpt lat="45.18539" lon="5.14382">
        <ele>561.33</ele>
        <time>2017-06-20T18:17:37.999Z</time>
      </trkpt>
      <trkpt lat="45.18528" lon="5.14384">
        <ele>560.72</ele>
        <time>2017-06-20T18:17:39.999Z</time>
      </trkpt>
      <trkpt lat="45.18518" lon="5.14385">
        <ele>560.01</ele>
        <time>2017-06-20T18:17:41.999Z</time>
      </trkpt>
      <trkpt lat="45.18507" lon="5.14386">
        <ele>559.57</ele>
        <time>2017-06-20T18:17:43.999Z</time>
      </trkpt>
      <trkpt lat="45.18495" lon="5.14385">
        <ele>559.5</ele>
        <time>2017-06-20T18:17:45.999Z</time>
      </trkpt>
      <trkpt lat="45.18483" lon="5.14383">
        <ele>558.88</ele>
        <time>2017-06-20T18:17:47.999Z</time>
      </trkpt>
      <trkpt lat="45.18469" lon="5.1438">
        <ele>558.74</ele>
        <time>2017-06-20T18:17:49.999Z</time>
      </trkpt>
      <trkpt lat="45.18455" lon="5.14375">
        <ele>558.15</ele>
        <time>2017-06-20T18:17:51.999Z</time>
      </trkpt>
      <trkpt lat="45.18441" lon="5.14363">
        <ele>557.46</ele>
        <time>2017-06-20T18:17:53.999Z</time>
      </trkpt>
      <trkpt lat="45.18432" lon="5.14358">
        <ele>557.04</ele>
        <time>2017-06-20T18:17:54.999Z</time>
      </trkpt>
      <trkpt lat="45.18423" lon="5.14352">
        <ele>556.78</ele>
        <time>2017-06-20T18:17:55.999Z</time>
      </trkpt>
      <trkpt lat="45.18414" lon="5.14347">
        <ele>556.94</ele>
        <time>2017-06-20T18:17:56.999Z</time>
      </trkpt>
      <trkpt lat="45.18406" lon="5.14341">
        <ele>557.12</ele>
        <time>2017-06-20T18:17:57.999Z</time>
      </trkpt>
      <trkpt lat="45.18397" lon="5.14335">
        <ele>557.42</ele>
        <time>2017-06-20T18:17:58.999Z</time>
      </trkpt>
      <trkpt lat="45.18385" lon="5.1432">
        <ele>558.09</ele>
        <time>2017-06-20T18:18:00.999Z</time>
      </trkpt>
      <trkpt lat="45.18371" lon="5.14305">
        <ele>560.11</ele>
        <time>2017-06-20T18:18:02.999Z</time>
      </trkpt>
      <trkpt lat="45.18363" lon="5.14296">
        <ele>560.77</ele>
        <time>2017-06-20T18:18:03.999Z</time>
      </trkpt>
      <trkpt lat="45.18355" lon="5.14286">
        <ele>561.34</ele>
        <time>2017-06-20T18:18:04.999Z</time>
      </trkpt>
      <trkpt lat="45.18348" lon="5.14277">
        <ele>561.86</ele>
        <time>2017-06-20T18:18:05.999Z</time>
      </trkpt>
      <trkpt lat="45.1834" lon="5.14268">
        <ele>562.17</ele>
        <time>2017-06-20T18:18:06.999Z</time>
      </trkpt>
      <trkpt lat="45.18332" lon="5.14257">
        <ele>561.91</ele>
        <time>2017-06-20T18:18:08.999Z</time>
      </trkpt>
      <trkpt lat="45.18319" lon="5.14243">
        <ele>561.6</ele>
        <time>2017-06-20T18:18:10.999Z</time>
      </trkpt>
      <trkpt lat="45.1831" lon="5.14238">
        <ele>561.77</ele>
        <time>2017-06-20T18:18:11.999Z</time>
      </trkpt>
      <trkpt lat="45.18301" lon="5.14233">
        <ele>562.63</ele>
        <time>2017-06-20T18:18:12.999Z</time>
      </trkpt>
      <trkpt lat="45.18289" lon="5.14227">
        <ele>562.29</ele>
        <time>2017-06-20T18:18:13.999Z</time>
      </trkpt>
      <trkpt lat="45.18277" lon="5.14217">
        <ele>562.94</ele>
        <time>2017-06-20T18:18:14.999Z</time>
      </trkpt>
      <trkpt lat="45.18267" lon="5.14207">
        <ele>562.99</ele>
        <time>2017-06-20T18:18:15.999Z</time>
      </trkpt>
      <trkpt lat="45.18258" lon="5.14199">
        <ele>562.6</ele>
        <time>2017-06-20T18:18:16.999Z</time>
      </trkpt>
      <trkpt lat="45.18248" lon="5.1419">
        <ele>561.81</ele>
        <time>2017-06-20T18:18:17.999Z</time>
      </trkpt>
      <trkpt lat="45.18238" lon="5.14181">
        <ele>561.21</ele>
        <time>2017-06-20T18:18:18.999Z</time>
      </trkpt>
      <trkpt lat="45.18228" lon="5.14171">
        <ele>560.48</ele>
        <time>2017-06-20T18:18:19.999Z</time>
      </trkpt>
      <trkpt lat="45.18218" lon="5.1416">
        <ele>559.24</ele>
        <time>2017-06-20T18:18:20.999Z</time>
      </trkpt>
      <trkpt lat="45.1821" lon="5.1415">
        <ele>557.59</ele>
        <time>2017-06-20T18:18:21.999Z</time>
      </trkpt>
      <trkpt lat="45.18203" lon="5.14141">
        <ele>556.01</ele>
        <time>2017-06-20T18:18:22.999Z</time>
      </trkpt>
      <trkpt lat="45.18196" lon="5.14132">
        <ele>554.41</ele>
        <time>2017-06-20T18:18:23.999Z</time>
      </trkpt>
      <trkpt lat="45.18187" lon="5.14122">
        <ele>553.92</ele>
        <time>2017-06-20T18:18:24.999Z</time>
      </trkpt>
      <trkpt lat="45.18178" lon="5.14112">
        <ele>553.01</ele>
        <time>2017-06-20T18:18:25.999Z</time>
      </trkpt>
      <trkpt lat="45.18169" lon="5.14102">
        <ele>552.06</ele>
        <time>2017-06-20T18:18:26.999Z</time>
      </trkpt>
      <trkpt lat="45.18161" lon="5.14091">
        <ele>550.79</ele>
        <time>2017-06-20T18:18:27.999Z</time>
      </trkpt>
      <trkpt lat="45.18153" lon="5.14082">
        <ele>549.77</ele>
        <time>2017-06-20T18:18:28.999Z</time>
      </trkpt>
      <trkpt lat="45.18145" lon="5.14072">
        <ele>548.85</ele>
        <time>2017-06-20T18:18:29.999Z</time>
      </trkpt>
      <trkpt lat="45.18136" lon="5.14063">
        <ele>547.88</ele>
        <time>2017-06-20T18:18:30.999Z</time>
      </trkpt>
      <trkpt lat="45.18127" lon="5.14053">
        <ele>546.94</ele>
        <time>2017-06-20T18:18:31.999Z</time>
      </trkpt>
      <trkpt lat="45.18118" lon="5.14043">
        <ele>546.92</ele>
        <time>2017-06-20T18:18:32.999Z</time>
      </trkpt>
      <trkpt lat="45.18109" lon="5.14034">
        <ele>546.55</ele>
        <time>2017-06-20T18:18:33.999Z</time>
      </trkpt>
      <trkpt lat="45.18098" lon="5.14024">
        <ele>546.77</ele>
        <time>2017-06-20T18:18:34.999Z</time>
      </trkpt>
      <trkpt lat="45.18089" lon="5.14016">
        <ele>546.51</ele>
        <time>2017-06-20T18:18:35.999Z</time>
      </trkpt>
      <trkpt lat="45.18077" lon="5.14007">
        <ele>546.02</ele>
        <time>2017-06-20T18:18:36.999Z</time>
      </trkpt>
      <trkpt lat="45.18065" lon="5.14003">
        <ele>545.01</ele>
        <time>2017-06-20T18:18:37.999Z</time>
      </trkpt>
      <trkpt lat="45.18053" lon="5.13999">
        <ele>543.76</ele>
        <time>2017-06-20T18:18:38.999Z</time>
      </trkpt>
      <trkpt lat="45.18043" lon="5.13996">
        <ele>542.54</ele>
        <time>2017-06-20T18:18:39.999Z</time>
      </trkpt>
      <trkpt lat="45.18034" lon="5.13994">
        <ele>541.94</ele>
        <time>2017-06-20T18:18:40.999Z</time>
      </trkpt>
      <trkpt lat="45.18013" lon="5.13996">
        <ele>540.92</ele>
        <time>2017-06-20T18:18:42.999Z</time>
      </trkpt>
      <trkpt lat="45.18004" lon="5.13999">
        <ele>539.53</ele>
        <time>2017-06-20T18:18:43.999Z</time>
      </trkpt>
      <trkpt lat="45.17991" lon="5.14002">
        <ele>538.31</ele>
        <time>2017-06-20T18:18:44.999Z</time>
      </trkpt>
      <trkpt lat="45.17981" lon="5.14004">
        <ele>537.64</ele>
        <time>2017-06-20T18:18:45.999Z</time>
      </trkpt>
      <trkpt lat="45.17969" lon="5.14006">
        <ele>534.95</ele>
        <time>2017-06-20T18:18:47.999Z</time>
      </trkpt>
      <trkpt lat="45.17954" lon="5.1401">
        <ele>532.22</ele>
        <time>2017-06-20T18:18:48.999Z</time>
      </trkpt>
      <trkpt lat="45.1794" lon="5.14012">
        <ele>530.12</ele>
        <time>2017-06-20T18:18:49.999Z</time>
      </trkpt>
      <trkpt lat="45.17925" lon="5.14015">
        <ele>528.32</ele>
        <time>2017-06-20T18:18:50.999Z</time>
      </trkpt>
      <trkpt lat="45.17911" lon="5.14018">
        <ele>526.72</ele>
        <time>2017-06-20T18:18:51.999Z</time>
      </trkpt>
      <trkpt lat="45.17896" lon="5.14023">
        <ele>524.93</ele>
        <time>2017-06-20T18:18:52.999Z</time>
      </trkpt>
      <trkpt lat="45.17885" lon="5.14032">
        <ele>522.8</ele>
        <time>2017-06-20T18:18:53.999Z</time>
      </trkpt>
      <trkpt lat="45.17878" lon="5.1404">
        <ele>520.84</ele>
        <time>2017-06-20T18:18:54.999Z</time>
      </trkpt>
      <trkpt lat="45.1787" lon="5.14048">
        <ele>519.27</ele>
        <time>2017-06-20T18:18:55.999Z</time>
      </trkpt>
      <trkpt lat="45.1786" lon="5.14056">
        <ele>517.35</ele>
        <time>2017-06-20T18:18:56.999Z</time>
      </trkpt>
      <trkpt lat="45.17851" lon="5.14061">
        <ele>514.93</ele>
        <time>2017-06-20T18:18:57.999Z</time>
      </trkpt>
      <trkpt lat="45.17834" lon="5.14059">
        <ele>513.08</ele>
        <time>2017-06-20T18:18:59.999Z</time>
      </trkpt>
      <trkpt lat="45.17823" lon="5.14053">
        <ele>512.92</ele>
        <time>2017-06-20T18:19:01.999Z</time>
      </trkpt>
      <trkpt lat="45.17814" lon="5.14045">
        <ele>514.8</ele>
        <time>2017-06-20T18:19:03.999Z</time>
      </trkpt>
      <trkpt lat="45.17804" lon="5.14037">
        <ele>516.82</ele>
        <time>2017-06-20T18:19:05.999Z</time>
      </trkpt>
      <trkpt lat="45.17797" lon="5.14029">
        <ele>519.84</ele>
        <time>2017-06-20T18:19:07.999Z</time>
      </trkpt>
      <trkpt lat="45.17789" lon="5.14019">
        <ele>521.08</ele>
        <time>2017-06-20T18:19:09.999Z</time>
      </trkpt>
      <trkpt lat="45.17781" lon="5.14007">
        <ele>523.21</ele>
        <time>2017-06-20T18:19:11.999Z</time>
      </trkpt>
      <trkpt lat="45.17772" lon="5.13994">
        <ele>523.55</ele>
        <time>2017-06-20T18:19:14.999Z</time>
      </trkpt>
      <trkpt lat="45.17764" lon="5.1398">
        <ele>526.23</ele>
        <time>2017-06-20T18:19:17.999Z</time>
      </trkpt>
      <trkpt lat="45.17757" lon="5.13965">
        <ele>526.98</ele>
        <time>2017-06-20T18:19:20.999Z</time>
      </trkpt>
      <trkpt lat="45.17753" lon="5.13953">
        <ele>527.88</ele>
        <time>2017-06-20T18:19:23.999Z</time>
      </trkpt>
      <trkpt lat="45.1775" lon="5.13937">
        <ele>528.5</ele>
        <time>2017-06-20T18:19:25.999Z</time>
      </trkpt>
      <trkpt lat="45.17748" lon="5.13918">
        <ele>529.53</ele>
        <time>2017-06-20T18:19:27.999Z</time>
      </trkpt>
      <trkpt lat="45.17745" lon="5.13903">
        <ele>529.65</ele>
        <time>2017-06-20T18:19:29.999Z</time>
      </trkpt>
      <trkpt lat="45.17742" lon="5.13888">
        <ele>528.16</ele>
        <time>2017-06-20T18:19:31.999Z</time>
      </trkpt>
      <trkpt lat="45.17738" lon="5.13871">
        <ele>523.97</ele>
        <time>2017-06-20T18:19:34.999Z</time>
      </trkpt>
      <trkpt lat="45.17735" lon="5.13858">
        <ele>521.74</ele>
        <time>2017-06-20T18:19:36.999Z</time>
      </trkpt>
      <trkpt lat="45.1773" lon="5.13841">
        <ele>519.61</ele>
        <time>2017-06-20T18:19:39.999Z</time>
      </trkpt>
      <trkpt lat="45.17726" lon="5.13829">
        <ele>518.88</ele>
        <time>2017-06-20T18:19:41.999Z</time>
      </trkpt>
      <trkpt lat="45.1772" lon="5.13814">
        <ele>517.45</ele>
        <time>2017-06-20T18:19:44.999Z</time>
      </trkpt>
      <trkpt lat="45.17716" lon="5.13798">
        <ele>516.97</ele>
        <time>2017-06-20T18:19:47.999Z</time>
      </trkpt>
      <trkpt lat="45.17711" lon="5.13783">
        <ele>517.3</ele>
        <time>2017-06-20T18:19:50.999Z</time>
      </trkpt>
      <trkpt lat="45.17706" lon="5.13771">
        <ele>517.17</ele>
        <time>2017-06-20T18:19:53.999Z</time>
      </trkpt>
      <trkpt lat="45.17698" lon="5.13757">
        <ele>515.34</ele>
        <time>2017-06-20T18:19:56.999Z</time>
      </trkpt>
      <trkpt lat="45.17688" lon="5.13746">
        <ele>514.33</ele>
        <time>2017-06-20T18:19:59.999Z</time>
      </trkpt>
      <trkpt lat="45.17678" lon="5.13738">
        <ele>513.28</ele>
        <time>2017-06-20T18:20:02.999Z</time>
      </trkpt>
      <trkpt lat="45.17669" lon="5.13731">
        <ele>513.48</ele>
        <time>2017-06-20T18:20:05.999Z</time>
      </trkpt>
      <trkpt lat="45.17659" lon="5.13724">
        <ele>514.03</ele>
        <time>2017-06-20T18:20:08.999Z</time>
      </trkpt>
      <trkpt lat="45.17649" lon="5.13719">
        <ele>514.46</ele>
        <time>2017-06-20T18:20:11.999Z</time>
      </trkpt>
      <trkpt lat="45.17639" lon="5.13713">
        <ele>516.68</ele>
        <time>2017-06-20T18:20:14.999Z</time>
      </trkpt>
      <trkpt lat="45.17628" lon="5.13706">
        <ele>517.46</ele>
        <time>2017-06-20T18:20:18.999Z</time>
      </trkpt>
      <trkpt lat="45.17616" lon="5.13699">
        <ele>518.53</ele>
        <time>2017-06-20T18:20:22.999Z</time>
      </trkpt>
      <trkpt lat="45.17605" lon="5.13693">
        <ele>519.53</ele>
        <time>2017-06-20T18:20:25.999Z</time>
      </trkpt>
      <trkpt lat="45.17595" lon="5.13688">
        <ele>520.7</ele>
        <time>2017-06-20T18:20:28.999Z</time>
      </trkpt>
      <trkpt lat="45.17585" lon="5.13681">
        <ele>521.91</ele>
        <time>2017-06-20T18:20:31.999Z</time>
      </trkpt>
      <trkpt lat="45.17577" lon="5.13672">
        <ele>523.24</ele>
        <time>2017-06-20T18:20:35.999Z</time>
      </trkpt>
      <trkpt lat="45.17567" lon="5.13666">
        <ele>524.13</ele>
        <time>2017-06-20T18:20:38.999Z</time>
      </trkpt>
      <trkpt lat="45.1756" lon="5.13659">
        <ele>524.54</ele>
        <time>2017-06-20T18:20:40.999Z</time>
      </trkpt>
      <trkpt lat="45.17553" lon="5.1365">
        <ele>525.31</ele>
        <time>2017-06-20T18:20:43.999Z</time>
      </trkpt>
      <trkpt lat="45.17546" lon="5.13639">
        <ele>526.6</ele>
        <time>2017-06-20T18:20:47.999Z</time>
      </trkpt>
      <trkpt lat="45.1754" lon="5.13629">
        <ele>527.55</ele>
        <time>2017-06-20T18:20:50.999Z</time>
      </trkpt>
      <trkpt lat="45.17534" lon="5.13619">
        <ele>528.4</ele>
        <time>2017-06-20T18:20:53.999Z</time>
      </trkpt>
      <trkpt lat="45.17525" lon="5.13609">
        <ele>529.29</ele>
        <time>2017-06-20T18:20:57.999Z</time>
      </trkpt>
      <trkpt lat="45.17516" lon="5.13596">
        <ele>529.76</ele>
        <time>2017-06-20T18:21:01.999Z</time>
      </trkpt>
      <trkpt lat="45.17508" lon="5.13587">
        <ele>529.93</ele>
        <time>2017-06-20T18:21:05.999Z</time>
      </trkpt>
      <trkpt lat="45.17499" lon="5.13578">
        <ele>529.7</ele>
        <time>2017-06-20T18:21:09.999Z</time>
      </trkpt>
      <trkpt lat="45.17492" lon="5.1357">
        <ele>529.45</ele>
        <time>2017-06-20T18:21:12.999Z</time>
      </trkpt>
      <trkpt lat="45.17484" lon="5.13562">
        <ele>529.26</ele>
        <time>2017-06-20T18:21:15.999Z</time>
      </trkpt>
      <trkpt lat="45.17477" lon="5.13554">
        <ele>529.16</ele>
        <time>2017-06-20T18:21:18.999Z</time>
      </trkpt>
      <trkpt lat="45.17469" lon="5.13547">
        <ele>529.06</ele>
        <time>2017-06-20T18:21:21.999Z</time>
      </trkpt>
      <trkpt lat="45.17462" lon="5.13539">
        <ele>528.98</ele>
        <time>2017-06-20T18:21:24.999Z</time>
      </trkpt>
      <trkpt lat="45.17453" lon="5.13528">
        <ele>528.9</ele>
        <time>2017-06-20T18:21:28.999Z</time>
      </trkpt>
      <trkpt lat="45.17445" lon="5.13521">
        <ele>528.9</ele>
        <time>2017-06-20T18:21:31.999Z</time>
      </trkpt>
      <trkpt lat="45.17437" lon="5.13511">
        <ele>528.88</ele>
        <time>2017-06-20T18:21:35.999Z</time>
      </trkpt>
      <trkpt lat="45.1743" lon="5.13503">
        <ele>528.78</ele>
        <time>2017-06-20T18:21:38.999Z</time>
      </trkpt>
      <trkpt lat="45.17421" lon="5.13494">
        <ele>529.02</ele>
        <time>2017-06-20T18:21:42.999Z</time>
      </trkpt>
      <trkpt lat="45.17413" lon="5.13484">
        <ele>529.37</ele>
        <time>2017-06-20T18:21:46.999Z</time>
      </trkpt>
      <trkpt lat="45.17404" lon="5.13474">
        <ele>529.91</ele>
        <time>2017-06-20T18:21:50.999Z</time>
      </trkpt>
      <trkpt lat="45.17396" lon="5.13465">
        <ele>530.53</ele>
        <time>2017-06-20T18:21:54.999Z</time>
      </trkpt>
      <trkpt lat="45.17387" lon="5.13455">
        <ele>531.07</ele>
        <time>2017-06-20T18:21:58.999Z</time>
      </trkpt>
      <trkpt lat="45.17379" lon="5.13445">
        <ele>531.58</ele>
        <time>2017-06-20T18:22:02.999Z</time>
      </trkpt>
      <trkpt lat="45.17371" lon="5.13433">
        <ele>532.28</ele>
        <time>2017-06-20T18:22:07.999Z</time>
      </trkpt>
      <trkpt lat="45.17365" lon="5.13422">
        <ele>532.95</ele>
        <time>2017-06-20T18:22:11.999Z</time>
      </trkpt>
      <trkpt lat="45.17358" lon="5.13412">
        <ele>533.65</ele>
        <time>2017-06-20T18:22:15.999Z</time>
      </trkpt>
      <trkpt lat="45.17352" lon="5.13402">
        <ele>534.05</ele>
        <time>2017-06-20T18:22:18.999Z</time>
      </trkpt>
      <trkpt lat="45.17346" lon="5.13391">
        <ele>534.22</ele>
        <time>2017-06-20T18:22:21.999Z</time>
      </trkpt>
      <trkpt lat="45.17341" lon="5.13381">
        <ele>534.26</ele>
        <time>2017-06-20T18:22:24.999Z</time>
      </trkpt>
      <trkpt lat="45.17334" lon="5.13372">
        <ele>534.27</ele>
        <time>2017-06-20T18:22:28.999Z</time>
      </trkpt>
      <trkpt lat="45.17327" lon="5.13361">
        <ele>534.87</ele>
        <time>2017-06-20T18:22:33.999Z</time>
      </trkpt>
      <trkpt lat="45.17318" lon="5.13352">
        <ele>535.61</ele>
        <time>2017-06-20T18:22:37.999Z</time>
      </trkpt>
      <trkpt lat="45.17311" lon="5.13343">
        <ele>536.34</ele>
        <time>2017-06-20T18:22:41.999Z</time>
      </trkpt>
      <trkpt lat="45.17303" lon="5.13336">
        <ele>537.13</ele>
        <time>2017-06-20T18:22:45.999Z</time>
      </trkpt>
      <trkpt lat="45.17295" lon="5.13327">
        <ele>537.94</ele>
        <time>2017-06-20T18:22:49.999Z</time>
      </trkpt>
      <trkpt lat="45.17287" lon="5.13318">
        <ele>538.6</ele>
        <time>2017-06-20T18:22:53.999Z</time>
      </trkpt>
      <trkpt lat="45.17278" lon="5.13309">
        <ele>539.31</ele>
        <time>2017-06-20T18:22:57.999Z</time>
      </trkpt>
      <trkpt lat="45.1727" lon="5.13302">
        <ele>540.11</ele>
        <time>2017-06-20T18:23:01.999Z</time>
      </trkpt>
      <trkpt lat="45.17261" lon="5.13295">
        <ele>541.08</ele>
        <time>2017-06-20T18:23:05.999Z</time>
      </trkpt>
      <trkpt lat="45.17252" lon="5.13289">
        <ele>542.03</ele>
        <time>2017-06-20T18:23:09.999Z</time>
      </trkpt>
      <trkpt lat="45.17241" lon="5.13284">
        <ele>543.15</ele>
        <time>2017-06-20T18:23:13.999Z</time>
      </trkpt>
      <trkpt lat="45.17232" lon="5.13279">
        <ele>544.24</ele>
        <time>2017-06-20T18:23:17.999Z</time>
      </trkpt>
      <trkpt lat="45.17222" lon="5.13275">
        <ele>545.46</ele>
        <time>2017-06-20T18:23:21.999Z</time>
      </trkpt>
      <trkpt lat="45.17213" lon="5.13271">
        <ele>546.46</ele>
        <time>2017-06-20T18:23:24.999Z</time>
      </trkpt>
      <trkpt lat="45.17204" lon="5.13267">
        <ele>547.76</ele>
        <time>2017-06-20T18:23:28.999Z</time>
      </trkpt>
      <trkpt lat="45.17193" lon="5.13266">
        <ele>549.11</ele>
        <time>2017-06-20T18:23:32.999Z</time>
      </trkpt>
      <trkpt lat="45.17183" lon="5.13262">
        <ele>550.2</ele>
        <time>2017-06-20T18:23:36.999Z</time>
      </trkpt>
      <trkpt lat="45.17172" lon="5.13261">
        <ele>551.1</ele>
        <time>2017-06-20T18:23:40.999Z</time>
      </trkpt>
      <trkpt lat="45.17162" lon="5.13258">
        <ele>551.75</ele>
        <time>2017-06-20T18:23:44.999Z</time>
      </trkpt>
      <trkpt lat="45.17152" lon="5.13255">
        <ele>552.35</ele>
        <time>2017-06-20T18:23:47.999Z</time>
      </trkpt>
      <trkpt lat="45.17143" lon="5.13253">
        <ele>552.87</ele>
        <time>2017-06-20T18:23:50.999Z</time>
      </trkpt>
      <trkpt lat="45.17131" lon="5.13252">
        <ele>553.33</ele>
        <time>2017-06-20T18:23:53.999Z</time>
      </trkpt>
      <trkpt lat="45.1712" lon="5.1325">
        <ele>553.83</ele>
        <time>2017-06-20T18:23:57.999Z</time>
      </trkpt>
      <trkpt lat="45.17107" lon="5.13246">
        <ele>556.15</ele>
        <time>2017-06-20T18:24:00.999Z</time>
      </trkpt>
      <trkpt lat="45.17098" lon="5.13244">
        <ele>554.77</ele>
        <time>2017-06-20T18:24:02.999Z</time>
      </trkpt>
      <trkpt lat="45.17085" lon="5.13241">
        <ele>554.29</ele>
        <time>2017-06-20T18:24:05.999Z</time>
      </trkpt>
      <trkpt lat="45.17072" lon="5.13237">
        <ele>555.34</ele>
        <time>2017-06-20T18:24:08.999Z</time>
      </trkpt>
      <trkpt lat="45.17061" lon="5.13235">
        <ele>557.33</ele>
        <time>2017-06-20T18:24:10.999Z</time>
      </trkpt>
      <trkpt lat="45.17048" lon="5.13232">
        <ele>558.83</ele>
        <time>2017-06-20T18:24:12.999Z</time>
      </trkpt>
      <trkpt lat="45.17038" lon="5.13226">
        <ele>560.42</ele>
        <time>2017-06-20T18:24:14.999Z</time>
      </trkpt>
      <trkpt lat="45.17027" lon="5.13215">
        <ele>561.68</ele>
        <time>2017-06-20T18:24:16.999Z</time>
      </trkpt>
      <trkpt lat="45.17014" lon="5.13201">
        <ele>562.23</ele>
        <time>2017-06-20T18:24:18.999Z</time>
      </trkpt>
      <trkpt lat="45.17003" lon="5.13181">
        <ele>561.99</ele>
        <time>2017-06-20T18:24:20.999Z</time>
      </trkpt>
      <trkpt lat="45.16997" lon="5.13171">
        <ele>561.43</ele>
        <time>2017-06-20T18:24:21.999Z</time>
      </trkpt>
      <trkpt lat="45.16988" lon="5.1315">
        <ele>560.36</ele>
        <time>2017-06-20T18:24:23.999Z</time>
      </trkpt>
      <trkpt lat="45.16983" lon="5.13138">
        <ele>559.42</ele>
        <time>2017-06-20T18:24:24.999Z</time>
      </trkpt>
      <trkpt lat="45.16974" lon="5.13115">
        <ele>558.41</ele>
        <time>2017-06-20T18:24:26.999Z</time>
      </trkpt>
      <trkpt lat="45.16967" lon="5.13104">
        <ele>557.65</ele>
        <time>2017-06-20T18:24:27.999Z</time>
      </trkpt>
      <trkpt lat="45.16955" lon="5.13087">
        <ele>556.57</ele>
        <time>2017-06-20T18:24:29.999Z</time>
      </trkpt>
      <trkpt lat="45.16947" lon="5.13079">
        <ele>556.25</ele>
        <time>2017-06-20T18:24:30.999Z</time>
      </trkpt>
      <trkpt lat="45.16939" lon="5.13072">
        <ele>555.17</ele>
        <time>2017-06-20T18:24:31.999Z</time>
      </trkpt>
      <trkpt lat="45.1693" lon="5.13064">
        <ele>553.94</ele>
        <time>2017-06-20T18:24:32.999Z</time>
      </trkpt>
      <trkpt lat="45.1692" lon="5.13056">
        <ele>553.26</ele>
        <time>2017-06-20T18:24:33.999Z</time>
      </trkpt>
      <trkpt lat="45.16912" lon="5.13047">
        <ele>552.92</ele>
        <time>2017-06-20T18:24:34.999Z</time>
      </trkpt>
      <trkpt lat="45.16904" lon="5.13038">
        <ele>552.78</ele>
        <time>2017-06-20T18:24:35.999Z</time>
      </trkpt>
      <trkpt lat="45.16895" lon="5.13027">
        <ele>552.22</ele>
        <time>2017-06-20T18:24:36.999Z</time>
      </trkpt>
      <trkpt lat="45.16887" lon="5.13014">
        <ele>551.46</ele>
        <time>2017-06-20T18:24:37.999Z</time>
      </trkpt>
      <trkpt lat="45.16879" lon="5.13002">
        <ele>550.05</ele>
        <time>2017-06-20T18:24:38.999Z</time>
      </trkpt>
      <trkpt lat="45.16872" lon="5.12989">
        <ele>548.86</ele>
        <time>2017-06-20T18:24:39.999Z</time>
      </trkpt>
      <trkpt lat="45.16865" lon="5.12975">
        <ele>547.5</ele>
        <time>2017-06-20T18:24:40.999Z</time>
      </trkpt>
      <trkpt lat="45.16859" lon="5.12961">
        <ele>546.04</ele>
        <time>2017-06-20T18:24:41.999Z</time>
      </trkpt>
      <trkpt lat="45.16852" lon="5.12944">
        <ele>544.51</ele>
        <time>2017-06-20T18:24:42.999Z</time>
      </trkpt>
      <trkpt lat="45.16848" lon="5.12925">
        <ele>542.89</ele>
        <time>2017-06-20T18:24:43.999Z</time>
      </trkpt>
      <trkpt lat="45.16844" lon="5.12905">
        <ele>541.09</ele>
        <time>2017-06-20T18:24:44.999Z</time>
      </trkpt>
      <trkpt lat="45.1684" lon="5.12886">
        <ele>539.62</ele>
        <time>2017-06-20T18:24:45.999Z</time>
      </trkpt>
      <trkpt lat="45.16837" lon="5.12868">
        <ele>537.78</ele>
        <time>2017-06-20T18:24:46.999Z</time>
      </trkpt>
      <trkpt lat="45.16835" lon="5.12851">
        <ele>536.09</ele>
        <time>2017-06-20T18:24:47.999Z</time>
      </trkpt>
      <trkpt lat="45.16832" lon="5.12832">
        <ele>534.55</ele>
        <time>2017-06-20T18:24:48.999Z</time>
      </trkpt>
      <trkpt lat="45.16829" lon="5.12816">
        <ele>533.19</ele>
        <time>2017-06-20T18:24:49.999Z</time>
      </trkpt>
      <trkpt lat="45.16825" lon="5.12802">
        <ele>531.86</ele>
        <time>2017-06-20T18:24:50.999Z</time>
      </trkpt>
      <trkpt lat="45.1682" lon="5.12786">
        <ele>530.44</ele>
        <time>2017-06-20T18:24:51.999Z</time>
      </trkpt>
      <trkpt lat="45.16811" lon="5.12773">
        <ele>528.79</ele>
        <time>2017-06-20T18:24:52.999Z</time>
      </trkpt>
      <trkpt lat="45.16803" lon="5.12761">
        <ele>527.48</ele>
        <time>2017-06-20T18:24:53.999Z</time>
      </trkpt>
      <trkpt lat="45.16796" lon="5.12749">
        <ele>526.36</ele>
        <time>2017-06-20T18:24:54.999Z</time>
      </trkpt>
      <trkpt lat="45.16787" lon="5.12737">
        <ele>525.54</ele>
        <time>2017-06-20T18:24:55.999Z</time>
      </trkpt>
      <trkpt lat="45.16779" lon="5.12727">
        <ele>524.61</ele>
        <time>2017-06-20T18:24:56.999Z</time>
      </trkpt>
      <trkpt lat="45.1677" lon="5.12716">
        <ele>523.85</ele>
        <time>2017-06-20T18:24:57.999Z</time>
      </trkpt>
      <trkpt lat="45.16761" lon="5.12705">
        <ele>522.93</ele>
        <time>2017-06-20T18:24:58.999Z</time>
      </trkpt>
      <trkpt lat="45.16751" lon="5.12694">
        <ele>521.98</ele>
        <time>2017-06-20T18:24:59.999Z</time>
      </trkpt>
      <trkpt lat="45.16742" lon="5.12684">
        <ele>521.01</ele>
        <time>2017-06-20T18:25:00.999Z</time>
      </trkpt>
      <trkpt lat="45.16733" lon="5.12673">
        <ele>519.84</ele>
        <time>2017-06-20T18:25:01.999Z</time>
      </trkpt>
      <trkpt lat="45.16724" lon="5.12663">
        <ele>518.55</ele>
        <time>2017-06-20T18:25:02.999Z</time>
      </trkpt>
      <trkpt lat="45.16716" lon="5.12654">
        <ele>517.55</ele>
        <time>2017-06-20T18:25:03.999Z</time>
      </trkpt>
      <trkpt lat="45.16708" lon="5.12644">
        <ele>516.77</ele>
        <time>2017-06-20T18:25:04.999Z</time>
      </trkpt>
      <trkpt lat="45.167" lon="5.12633">
        <ele>516.34</ele>
        <time>2017-06-20T18:25:05.999Z</time>
      </trkpt>
      <trkpt lat="45.16692" lon="5.12622">
        <ele>515.85</ele>
        <time>2017-06-20T18:25:06.999Z</time>
      </trkpt>
      <trkpt lat="45.16685" lon="5.12611">
        <ele>515.44</ele>
        <time>2017-06-20T18:25:07.999Z</time>
      </trkpt>
      <trkpt lat="45.16678" lon="5.12602">
        <ele>515.15</ele>
        <time>2017-06-20T18:25:08.999Z</time>
      </trkpt>
      <trkpt lat="45.1667" lon="5.12591">
        <ele>515.03</ele>
        <time>2017-06-20T18:25:09.999Z</time>
      </trkpt>
      <trkpt lat="45.16662" lon="5.12579">
        <ele>514.71</ele>
        <time>2017-06-20T18:25:10.999Z</time>
      </trkpt>
      <trkpt lat="45.16654" lon="5.12568">
        <ele>514.33</ele>
        <time>2017-06-20T18:25:11.999Z</time>
      </trkpt>
      <trkpt lat="45.16639" lon="5.12547">
        <ele>513.06</ele>
        <time>2017-06-20T18:25:13.999Z</time>
      </trkpt>
      <trkpt lat="45.16623" lon="5.12527">
        <ele>511.32</ele>
        <time>2017-06-20T18:25:15.999Z</time>
      </trkpt>
      <trkpt lat="45.16616" lon="5.12516">
        <ele>510.02</ele>
        <time>2017-06-20T18:25:16.999Z</time>
      </trkpt>
      <trkpt lat="45.16608" lon="5.12503">
        <ele>508.69</ele>
        <time>2017-06-20T18:25:17.999Z</time>
      </trkpt>
      <trkpt lat="45.16602" lon="5.1249">
        <ele>507.9</ele>
        <time>2017-06-20T18:25:18.999Z</time>
      </trkpt>
      <trkpt lat="45.16595" lon="5.12477">
        <ele>507.07</ele>
        <time>2017-06-20T18:25:19.999Z</time>
      </trkpt>
      <trkpt lat="45.16589" lon="5.12464">
        <ele>505.97</ele>
        <time>2017-06-20T18:25:20.999Z</time>
      </trkpt>
      <trkpt lat="45.16584" lon="5.12452">
        <ele>504.87</ele>
        <time>2017-06-20T18:25:21.999Z</time>
      </trkpt>
      <trkpt lat="45.16579" lon="5.12438">
        <ele>503.81</ele>
        <time>2017-06-20T18:25:22.999Z</time>
      </trkpt>
      <trkpt lat="45.16574" lon="5.12425">
        <ele>502.99</ele>
        <time>2017-06-20T18:25:23.999Z</time>
      </trkpt>
      <trkpt lat="45.16569" lon="5.12412">
        <ele>501.92</ele>
        <time>2017-06-20T18:25:24.999Z</time>
      </trkpt>
      <trkpt lat="45.16564" lon="5.12399">
        <ele>500.79</ele>
        <time>2017-06-20T18:25:25.999Z</time>
      </trkpt>
      <trkpt lat="45.16559" lon="5.12385">
        <ele>499.89</ele>
        <time>2017-06-20T18:25:26.999Z</time>
      </trkpt>
      <trkpt lat="45.16554" lon="5.1237">
        <ele>499.1</ele>
        <time>2017-06-20T18:25:27.999Z</time>
      </trkpt>
      <trkpt lat="45.16551" lon="5.12357">
        <ele>498.38</ele>
        <time>2017-06-20T18:25:28.999Z</time>
      </trkpt>
      <trkpt lat="45.16548" lon="5.12344">
        <ele>497.96</ele>
        <time>2017-06-20T18:25:29.999Z</time>
      </trkpt>
      <trkpt lat="45.16547" lon="5.12328">
        <ele>497.44</ele>
        <time>2017-06-20T18:25:30.999Z</time>
      </trkpt>
      <trkpt lat="45.16547" lon="5.12314">
        <ele>497.1</ele>
        <time>2017-06-20T18:25:31.999Z</time>
      </trkpt>
      <trkpt lat="45.16547" lon="5.12298">
        <ele>496.44</ele>
        <time>2017-06-20T18:25:32.999Z</time>
      </trkpt>
      <trkpt lat="45.16548" lon="5.12282">
        <ele>495.85</ele>
        <time>2017-06-20T18:25:33.999Z</time>
      </trkpt>
      <trkpt lat="45.1655" lon="5.12267">
        <ele>495.21</ele>
        <time>2017-06-20T18:25:34.999Z</time>
      </trkpt>
      <trkpt lat="45.16552" lon="5.12252">
        <ele>494.25</ele>
        <time>2017-06-20T18:25:35.999Z</time>
      </trkpt>
      <trkpt lat="45.16554" lon="5.12236">
        <ele>493.72</ele>
        <time>2017-06-20T18:25:36.999Z</time>
      </trkpt>
      <trkpt lat="45.16557" lon="5.12222">
        <ele>493.02</ele>
        <time>2017-06-20T18:25:37.999Z</time>
      </trkpt>
      <trkpt lat="45.16559" lon="5.12208">
        <ele>492.23</ele>
        <time>2017-06-20T18:25:38.999Z</time>
      </trkpt>
      <trkpt lat="45.16557" lon="5.12184">
        <ele>490.7</ele>
        <time>2017-06-20T18:25:40.999Z</time>
      </trkpt>
      <trkpt lat="45.16546" lon="5.12168">
        <ele>489.25</ele>
        <time>2017-06-20T18:25:42.999Z</time>
      </trkpt>
      <trkpt lat="45.16538" lon="5.12162">
        <ele>488.79</ele>
        <time>2017-06-20T18:25:43.999Z</time>
      </trkpt>
      <trkpt lat="45.16523" lon="5.12156">
        <ele>489.03</ele>
        <time>2017-06-20T18:25:45.999Z</time>
      </trkpt>
      <trkpt lat="45.16507" lon="5.12153">
        <ele>489.97</ele>
        <time>2017-06-20T18:25:47.999Z</time>
      </trkpt>
      <trkpt lat="45.16491" lon="5.12152">
        <ele>490.25</ele>
        <time>2017-06-20T18:25:49.999Z</time>
      </trkpt>
      <trkpt lat="45.16474" lon="5.12153">
        <ele>491.1</ele>
        <time>2017-06-20T18:25:51.999Z</time>
      </trkpt>
      <trkpt lat="45.16465" lon="5.12153">
        <ele>491.2</ele>
        <time>2017-06-20T18:25:52.999Z</time>
      </trkpt>
      <trkpt lat="45.16456" lon="5.12152">
        <ele>491.36</ele>
        <time>2017-06-20T18:25:53.999Z</time>
      </trkpt>
      <trkpt lat="45.16447" lon="5.1215">
        <ele>491.57</ele>
        <time>2017-06-20T18:25:54.999Z</time>
      </trkpt>
      <trkpt lat="45.16437" lon="5.12148">
        <ele>491.63</ele>
        <time>2017-06-20T18:25:55.999Z</time>
      </trkpt>
      <trkpt lat="45.16419" lon="5.12144">
        <ele>491.74</ele>
        <time>2017-06-20T18:25:57.999Z</time>
      </trkpt>
      <trkpt lat="45.164" lon="5.12138">
        <ele>490.58</ele>
        <time>2017-06-20T18:25:59.999Z</time>
      </trkpt>
      <trkpt lat="45.1639" lon="5.12134">
        <ele>489.75</ele>
        <time>2017-06-20T18:26:00.999Z</time>
      </trkpt>
      <trkpt lat="45.16381" lon="5.1213">
        <ele>489.1</ele>
        <time>2017-06-20T18:26:01.999Z</time>
      </trkpt>
      <trkpt lat="45.16361" lon="5.12121">
        <ele>487.79</ele>
        <time>2017-06-20T18:26:03.999Z</time>
      </trkpt>
      <trkpt lat="45.16352" lon="5.12117">
        <ele>487.32</ele>
        <time>2017-06-20T18:26:04.999Z</time>
      </trkpt>
      <trkpt lat="45.16342" lon="5.12112">
        <ele>486.61</ele>
        <time>2017-06-20T18:26:05.999Z</time>
      </trkpt>
      <trkpt lat="45.16333" lon="5.12107">
        <ele>486.12</ele>
        <time>2017-06-20T18:26:06.999Z</time>
      </trkpt>
      <trkpt lat="45.16306" lon="5.12089">
        <ele>483.41</ele>
        <time>2017-06-20T18:26:09.999Z</time>
      </trkpt>
      <trkpt lat="45.16297" lon="5.12087">
        <ele>482.23</ele>
        <time>2017-06-20T18:26:10.999Z</time>
      </trkpt>
      <trkpt lat="45.16287" lon="5.12086">
        <ele>480.88</ele>
        <time>2017-06-20T18:26:11.999Z</time>
      </trkpt>
      <trkpt lat="45.16276" lon="5.12082">
        <ele>480.15</ele>
        <time>2017-06-20T18:26:12.999Z</time>
      </trkpt>
      <trkpt lat="45.16268" lon="5.12078">
        <ele>479.57</ele>
        <time>2017-06-20T18:26:13.999Z</time>
      </trkpt>
      <trkpt lat="45.16252" lon="5.12067">
        <ele>478.23</ele>
        <time>2017-06-20T18:26:15.999Z</time>
      </trkpt>
      <trkpt lat="45.1624" lon="5.12048">
        <ele>476.6</ele>
        <time>2017-06-20T18:26:17.999Z</time>
      </trkpt>
      <trkpt lat="45.16235" lon="5.12037">
        <ele>475.69</ele>
        <time>2017-06-20T18:26:18.999Z</time>
      </trkpt>
      <trkpt lat="45.16226" lon="5.12016">
        <ele>474.36</ele>
        <time>2017-06-20T18:26:20.999Z</time>
      </trkpt>
      <trkpt lat="45.16218" lon="5.11995">
        <ele>474.15</ele>
        <time>2017-06-20T18:26:22.999Z</time>
      </trkpt>
      <trkpt lat="45.1621" lon="5.11973">
        <ele>474.19</ele>
        <time>2017-06-20T18:26:24.999Z</time>
      </trkpt>
      <trkpt lat="45.16207" lon="5.11961">
        <ele>473.79</ele>
        <time>2017-06-20T18:26:25.999Z</time>
      </trkpt>
      <trkpt lat="45.16204" lon="5.11949">
        <ele>473.1</ele>
        <time>2017-06-20T18:26:26.999Z</time>
      </trkpt>
      <trkpt lat="45.162" lon="5.11935">
        <ele>472.29</ele>
        <time>2017-06-20T18:26:27.999Z</time>
      </trkpt>
      <trkpt lat="45.16196" lon="5.11922">
        <ele>471.63</ele>
        <time>2017-06-20T18:26:28.999Z</time>
      </trkpt>
      <trkpt lat="45.1619" lon="5.11899">
        <ele>470.53</ele>
        <time>2017-06-20T18:26:30.999Z</time>
      </trkpt>
      <trkpt lat="45.16182" lon="5.11892">
        <ele>469.6</ele>
        <time>2017-06-20T18:26:31.999Z</time>
      </trkpt>
      <trkpt lat="45.16173" lon="5.11888">
        <ele>468.56</ele>
        <time>2017-06-20T18:26:32.999Z</time>
      </trkpt>
      <trkpt lat="45.16158" lon="5.11895">
        <ele>467.41</ele>
        <time>2017-06-20T18:26:34.999Z</time>
      </trkpt>
      <trkpt lat="45.16149" lon="5.11902">
        <ele>467.08</ele>
        <time>2017-06-20T18:26:35.999Z</time>
      </trkpt>
      <trkpt lat="45.1614" lon="5.1191">
        <ele>466.79</ele>
        <time>2017-06-20T18:26:36.999Z</time>
      </trkpt>
      <trkpt lat="45.16131" lon="5.11916">
        <ele>466.16</ele>
        <time>2017-06-20T18:26:37.999Z</time>
      </trkpt>
      <trkpt lat="45.16122" lon="5.11923">
        <ele>465.48</ele>
        <time>2017-06-20T18:26:38.999Z</time>
      </trkpt>
      <trkpt lat="45.16113" lon="5.11929">
        <ele>465.08</ele>
        <time>2017-06-20T18:26:39.999Z</time>
      </trkpt>
      <trkpt lat="45.16102" lon="5.11933">
        <ele>464.44</ele>
        <time>2017-06-20T18:26:40.999Z</time>
      </trkpt>
      <trkpt lat="45.16092" lon="5.11935">
        <ele>463.73</ele>
        <time>2017-06-20T18:26:41.999Z</time>
      </trkpt>
      <trkpt lat="45.16082" lon="5.11937">
        <ele>462.82</ele>
        <time>2017-06-20T18:26:42.999Z</time>
      </trkpt>
      <trkpt lat="45.16072" lon="5.11937">
        <ele>462.14</ele>
        <time>2017-06-20T18:26:43.999Z</time>
      </trkpt>
      <trkpt lat="45.16061" lon="5.11939">
        <ele>461.23</ele>
        <time>2017-06-20T18:26:44.999Z</time>
      </trkpt>
      <trkpt lat="45.16051" lon="5.11939">
        <ele>460.17</ele>
        <time>2017-06-20T18:26:45.999Z</time>
      </trkpt>
      <trkpt lat="45.16041" lon="5.1194">
        <ele>459.28</ele>
        <time>2017-06-20T18:26:46.999Z</time>
      </trkpt>
      <trkpt lat="45.16031" lon="5.1194">
        <ele>458.39</ele>
        <time>2017-06-20T18:26:47.999Z</time>
      </trkpt>
      <trkpt lat="45.16021" lon="5.1194">
        <ele>457.5</ele>
        <time>2017-06-20T18:26:48.999Z</time>
      </trkpt>
      <trkpt lat="45.16011" lon="5.11939">
        <ele>456.53</ele>
        <time>2017-06-20T18:26:49.999Z</time>
      </trkpt>
      <trkpt lat="45.16001" lon="5.11939">
        <ele>455.73</ele>
        <time>2017-06-20T18:26:50.999Z</time>
      </trkpt>
      <trkpt lat="45.1598" lon="5.11938">
        <ele>454.11</ele>
        <time>2017-06-20T18:26:52.999Z</time>
      </trkpt>
      <trkpt lat="45.1597" lon="5.11937">
        <ele>453.21</ele>
        <time>2017-06-20T18:26:53.999Z</time>
      </trkpt>
      <trkpt lat="45.1596" lon="5.11937">
        <ele>452.43</ele>
        <time>2017-06-20T18:26:54.999Z</time>
      </trkpt>
      <trkpt lat="45.1595" lon="5.11938">
        <ele>451.73</ele>
        <time>2017-06-20T18:26:55.999Z</time>
      </trkpt>
      <trkpt lat="45.1594" lon="5.11938">
        <ele>451.11</ele>
        <time>2017-06-20T18:26:56.999Z</time>
      </trkpt>
      <trkpt lat="45.1593" lon="5.11938">
        <ele>450.49</ele>
        <time>2017-06-20T18:26:57.999Z</time>
      </trkpt>
      <trkpt lat="45.1592" lon="5.11939">
        <ele>449.8</ele>
        <time>2017-06-20T18:26:58.999Z</time>
      </trkpt>
      <trkpt lat="45.1591" lon="5.11939">
        <ele>449.22</ele>
        <time>2017-06-20T18:26:59.999Z</time>
      </trkpt>
      <trkpt lat="45.15901" lon="5.1194">
        <ele>448.68</ele>
        <time>2017-06-20T18:27:00.999Z</time>
      </trkpt>
      <trkpt lat="45.15891" lon="5.1194">
        <ele>448.32</ele>
        <time>2017-06-20T18:27:01.999Z</time>
      </trkpt>
      <trkpt lat="45.15874" lon="5.1194">
        <ele>447.95</ele>
        <time>2017-06-20T18:27:03.999Z</time>
      </trkpt>
      <trkpt lat="45.15865" lon="5.11939">
        <ele>447.92</ele>
        <time>2017-06-20T18:27:04.999Z</time>
      </trkpt>
      <trkpt lat="45.15855" lon="5.11939">
        <ele>447.77</ele>
        <time>2017-06-20T18:27:05.999Z</time>
      </trkpt>
      <trkpt lat="45.15846" lon="5.11938">
        <ele>447.4</ele>
        <time>2017-06-20T18:27:06.999Z</time>
      </trkpt>
      <trkpt lat="45.15837" lon="5.11936">
        <ele>446.91</ele>
        <time>2017-06-20T18:27:07.999Z</time>
      </trkpt>
      <trkpt lat="45.15827" lon="5.11935">
        <ele>446.52</ele>
        <time>2017-06-20T18:27:08.999Z</time>
      </trkpt>
      <trkpt lat="45.15818" lon="5.11934">
        <ele>446.06</ele>
        <time>2017-06-20T18:27:09.999Z</time>
      </trkpt>
      <trkpt lat="45.158" lon="5.11932">
        <ele>444.32</ele>
        <time>2017-06-20T18:27:11.999Z</time>
      </trkpt>
      <trkpt lat="45.15791" lon="5.11931">
        <ele>443.27</ele>
        <time>2017-06-20T18:27:12.999Z</time>
      </trkpt>
      <trkpt lat="45.15782" lon="5.11929">
        <ele>442.97</ele>
        <time>2017-06-20T18:27:13.999Z</time>
      </trkpt>
      <trkpt lat="45.15765" lon="5.11926">
        <ele>441.86</ele>
        <time>2017-06-20T18:27:15.999Z</time>
      </trkpt>
      <trkpt lat="45.15747" lon="5.11921">
        <ele>440.57</ele>
        <time>2017-06-20T18:27:17.999Z</time>
      </trkpt>
      <trkpt lat="45.15738" lon="5.11919">
        <ele>439.86</ele>
        <time>2017-06-20T18:27:18.999Z</time>
      </trkpt>
      <trkpt lat="45.15728" lon="5.11917">
        <ele>439.39</ele>
        <time>2017-06-20T18:27:19.999Z</time>
      </trkpt>
      <trkpt lat="45.15719" lon="5.11916">
        <ele>439.07</ele>
        <time>2017-06-20T18:27:20.999Z</time>
      </trkpt>
      <trkpt lat="45.15709" lon="5.11915">
        <ele>438.92</ele>
        <time>2017-06-20T18:27:21.999Z</time>
      </trkpt>
      <trkpt lat="45.157" lon="5.11914">
        <ele>438.58</ele>
        <time>2017-06-20T18:27:22.999Z</time>
      </trkpt>
      <trkpt lat="45.1569" lon="5.11913">
        <ele>438.35</ele>
        <time>2017-06-20T18:27:23.999Z</time>
      </trkpt>
      <trkpt lat="45.15679" lon="5.11911">
        <ele>438.07</ele>
        <time>2017-06-20T18:27:24.999Z</time>
      </trkpt>
      <trkpt lat="45.15669" lon="5.1191">
        <ele>437.86</ele>
        <time>2017-06-20T18:27:25.999Z</time>
      </trkpt>
      <trkpt lat="45.15659" lon="5.11908">
        <ele>437.57</ele>
        <time>2017-06-20T18:27:26.999Z</time>
      </trkpt>
      <trkpt lat="45.15649" lon="5.11906">
        <ele>436.52</ele>
        <time>2017-06-20T18:27:27.999Z</time>
      </trkpt>
      <trkpt lat="45.15639" lon="5.11903">
        <ele>435.48</ele>
        <time>2017-06-20T18:27:28.999Z</time>
      </trkpt>
      <trkpt lat="45.1563" lon="5.11897">
        <ele>434.59</ele>
        <time>2017-06-20T18:27:29.999Z</time>
      </trkpt>
      <trkpt lat="45.15621" lon="5.11891">
        <ele>433.91</ele>
        <time>2017-06-20T18:27:30.999Z</time>
      </trkpt>
      <trkpt lat="45.15611" lon="5.11884">
        <ele>433.29</ele>
        <time>2017-06-20T18:27:31.999Z</time>
      </trkpt>
      <trkpt lat="45.15601" lon="5.11878">
        <ele>432.89</ele>
        <time>2017-06-20T18:27:32.999Z</time>
      </trkpt>
      <trkpt lat="45.1559" lon="5.11875">
        <ele>432.39</ele>
        <time>2017-06-20T18:27:33.999Z</time>
      </trkpt>
      <trkpt lat="45.15579" lon="5.11873">
        <ele>431.6</ele>
        <time>2017-06-20T18:27:34.999Z</time>
      </trkpt>
      <trkpt lat="45.15559" lon="5.11874">
        <ele>429.61</ele>
        <time>2017-06-20T18:27:36.999Z</time>
      </trkpt>
      <trkpt lat="45.15549" lon="5.11875">
        <ele>428.93</ele>
        <time>2017-06-20T18:27:37.999Z</time>
      </trkpt>
      <trkpt lat="45.15538" lon="5.11875">
        <ele>428.43</ele>
        <time>2017-06-20T18:27:38.999Z</time>
      </trkpt>
      <trkpt lat="45.15528" lon="5.11877">
        <ele>428.2</ele>
        <time>2017-06-20T18:27:39.999Z</time>
      </trkpt>
      <trkpt lat="45.15518" lon="5.11879">
        <ele>428.02</ele>
        <time>2017-06-20T18:27:40.999Z</time>
      </trkpt>
      <trkpt lat="45.15509" lon="5.11883">
        <ele>427.97</ele>
        <time>2017-06-20T18:27:41.999Z</time>
      </trkpt>
      <trkpt lat="45.15498" lon="5.11886">
        <ele>427.8</ele>
        <time>2017-06-20T18:27:42.999Z</time>
      </trkpt>
      <trkpt lat="45.15488" lon="5.11891">
        <ele>427.49</ele>
        <time>2017-06-20T18:27:43.999Z</time>
      </trkpt>
      <trkpt lat="45.15477" lon="5.11896">
        <ele>427.16</ele>
        <time>2017-06-20T18:27:44.999Z</time>
      </trkpt>
      <trkpt lat="45.15466" lon="5.119">
        <ele>426.63</ele>
        <time>2017-06-20T18:27:45.999Z</time>
      </trkpt>
      <trkpt lat="45.15456" lon="5.11905">
        <ele>426.15</ele>
        <time>2017-06-20T18:27:46.999Z</time>
      </trkpt>
      <trkpt lat="45.15446" lon="5.11911">
        <ele>425.5</ele>
        <time>2017-06-20T18:27:47.999Z</time>
      </trkpt>
      <trkpt lat="45.15436" lon="5.11917">
        <ele>424.77</ele>
        <time>2017-06-20T18:27:48.999Z</time>
      </trkpt>
      <trkpt lat="45.15426" lon="5.11924">
        <ele>423.81</ele>
        <time>2017-06-20T18:27:49.999Z</time>
      </trkpt>
      <trkpt lat="45.15416" lon="5.1193">
        <ele>422.73</ele>
        <time>2017-06-20T18:27:50.999Z</time>
      </trkpt>
      <trkpt lat="45.15407" lon="5.11936">
        <ele>421.55</ele>
        <time>2017-06-20T18:27:51.999Z</time>
      </trkpt>
      <trkpt lat="45.15398" lon="5.11942">
        <ele>420.52</ele>
        <time>2017-06-20T18:27:52.999Z</time>
      </trkpt>
      <trkpt lat="45.15389" lon="5.11949">
        <ele>419.28</ele>
        <time>2017-06-20T18:27:53.999Z</time>
      </trkpt>
      <trkpt lat="45.15379" lon="5.11957">
        <ele>418.23</ele>
        <time>2017-06-20T18:27:54.999Z</time>
      </trkpt>
      <trkpt lat="45.1537" lon="5.11964">
        <ele>417.25</ele>
        <time>2017-06-20T18:27:55.999Z</time>
      </trkpt>
      <trkpt lat="45.15361" lon="5.11972">
        <ele>416.33</ele>
        <time>2017-06-20T18:27:56.999Z</time>
      </trkpt>
      <trkpt lat="45.15352" lon="5.11979">
        <ele>415.76</ele>
        <time>2017-06-20T18:27:57.999Z</time>
      </trkpt>
      <trkpt lat="45.15342" lon="5.11986">
        <ele>414.76</ele>
        <time>2017-06-20T18:27:58.999Z</time>
      </trkpt>
      <trkpt lat="45.15332" lon="5.11994">
        <ele>413.67</ele>
        <time>2017-06-20T18:27:59.999Z</time>
      </trkpt>
      <trkpt lat="45.15324" lon="5.12001">
        <ele>412.62</ele>
        <time>2017-06-20T18:28:00.999Z</time>
      </trkpt>
      <trkpt lat="45.15315" lon="5.12008">
        <ele>411.61</ele>
        <time>2017-06-20T18:28:01.999Z</time>
      </trkpt>
      <trkpt lat="45.15307" lon="5.12015">
        <ele>410.8</ele>
        <time>2017-06-20T18:28:02.999Z</time>
      </trkpt>
      <trkpt lat="45.15298" lon="5.12021">
        <ele>410.29</ele>
        <time>2017-06-20T18:28:03.999Z</time>
      </trkpt>
      <trkpt lat="45.1529" lon="5.12027">
        <ele>409.86</ele>
        <time>2017-06-20T18:28:04.999Z</time>
      </trkpt>
      <trkpt lat="45.15281" lon="5.12032">
        <ele>409.41</ele>
        <time>2017-06-20T18:28:05.999Z</time>
      </trkpt>
      <trkpt lat="45.15265" lon="5.12042">
        <ele>408.7</ele>
        <time>2017-06-20T18:28:07.999Z</time>
      </trkpt>
      <trkpt lat="45.15257" lon="5.12048">
        <ele>408.49</ele>
        <time>2017-06-20T18:28:08.999Z</time>
      </trkpt>
      <trkpt lat="45.15241" lon="5.12058">
        <ele>408.35</ele>
        <time>2017-06-20T18:28:10.999Z</time>
      </trkpt>
      <trkpt lat="45.15226" lon="5.12067">
        <ele>408.42</ele>
        <time>2017-06-20T18:28:12.999Z</time>
      </trkpt>
      <trkpt lat="45.15212" lon="5.12076">
        <ele>408.45</ele>
        <time>2017-06-20T18:28:14.999Z</time>
      </trkpt>
      <trkpt lat="45.15198" lon="5.12084">
        <ele>408.62</ele>
        <time>2017-06-20T18:28:16.999Z</time>
      </trkpt>
      <trkpt lat="45.15184" lon="5.12091">
        <ele>408.29</ele>
        <time>2017-06-20T18:28:18.999Z</time>
      </trkpt>
      <trkpt lat="45.1517" lon="5.12099">
        <ele>407.95</ele>
        <time>2017-06-20T18:28:20.999Z</time>
      </trkpt>
      <trkpt lat="45.15157" lon="5.12106">
        <ele>407.88</ele>
        <time>2017-06-20T18:28:22.999Z</time>
      </trkpt>
      <trkpt lat="45.15143" lon="5.12114">
        <ele>408.24</ele>
        <time>2017-06-20T18:28:24.999Z</time>
      </trkpt>
      <trkpt lat="45.1513" lon="5.12121">
        <ele>408.89</ele>
        <time>2017-06-20T18:28:26.999Z</time>
      </trkpt>
      <trkpt lat="45.15116" lon="5.12129">
        <ele>409.49</ele>
        <time>2017-06-20T18:28:28.999Z</time>
      </trkpt>
      <trkpt lat="45.15103" lon="5.12137">
        <ele>409.35</ele>
        <time>2017-06-20T18:28:30.999Z</time>
      </trkpt>
      <trkpt lat="45.15092" lon="5.12144">
        <ele>408.54</ele>
        <time>2017-06-20T18:28:32.999Z</time>
      </trkpt>
      <trkpt lat="45.15081" lon="5.12152">
        <ele>407.91</ele>
        <time>2017-06-20T18:28:34.999Z</time>
      </trkpt>
      <trkpt lat="45.15069" lon="5.12159">
        <ele>407.63</ele>
        <time>2017-06-20T18:28:36.999Z</time>
      </trkpt>
      <trkpt lat="45.15057" lon="5.12166">
        <ele>406.97</ele>
        <time>2017-06-20T18:28:38.999Z</time>
      </trkpt>
      <trkpt lat="45.15044" lon="5.12171">
        <ele>406.66</ele>
        <time>2017-06-20T18:28:40.999Z</time>
      </trkpt>
      <trkpt lat="45.15031" lon="5.12176">
        <ele>405.86</ele>
        <time>2017-06-20T18:28:42.999Z</time>
      </trkpt>
      <trkpt lat="45.15019" lon="5.12181">
        <ele>405.55</ele>
        <time>2017-06-20T18:28:44.999Z</time>
      </trkpt>
      <trkpt lat="45.15006" lon="5.12186">
        <ele>405.53</ele>
        <time>2017-06-20T18:28:46.999Z</time>
      </trkpt>
      <trkpt lat="45.14994" lon="5.12191">
        <ele>405.2</ele>
        <time>2017-06-20T18:28:48.999Z</time>
      </trkpt>
      <trkpt lat="45.14982" lon="5.12195">
        <ele>404.62</ele>
        <time>2017-06-20T18:28:50.999Z</time>
      </trkpt>
      <trkpt lat="45.14967" lon="5.122">
        <ele>404.02</ele>
        <time>2017-06-20T18:28:52.999Z</time>
      </trkpt>
      <trkpt lat="45.14953" lon="5.12205">
        <ele>403.18</ele>
        <time>2017-06-20T18:28:54.999Z</time>
      </trkpt>
      <trkpt lat="45.14939" lon="5.12211">
        <ele>403.08</ele>
        <time>2017-06-20T18:28:56.999Z</time>
      </trkpt>
      <trkpt lat="45.14924" lon="5.12216">
        <ele>403.57</ele>
        <time>2017-06-20T18:28:58.999Z</time>
      </trkpt>
      <trkpt lat="45.14909" lon="5.12221">
        <ele>403.88</ele>
        <time>2017-06-20T18:29:00.999Z</time>
      </trkpt>
      <trkpt lat="45.14892" lon="5.12227">
        <ele>404.07</ele>
        <time>2017-06-20T18:29:02.999Z</time>
      </trkpt>
      <trkpt lat="45.14868" lon="5.12237">
        <ele>402.38</ele>
        <time>2017-06-20T18:29:05.999Z</time>
      </trkpt>
      <trkpt lat="45.14859" lon="5.1224">
        <ele>402.08</ele>
        <time>2017-06-20T18:29:06.999Z</time>
      </trkpt>
      <trkpt lat="45.14842" lon="5.12247">
        <ele>401.47</ele>
        <time>2017-06-20T18:29:08.999Z</time>
      </trkpt>
      <trkpt lat="45.14833" lon="5.12251">
        <ele>400.99</ele>
        <time>2017-06-20T18:29:09.999Z</time>
      </trkpt>
      <trkpt lat="45.14818" lon="5.12257">
        <ele>399.75</ele>
        <time>2017-06-20T18:29:11.999Z</time>
      </trkpt>
      <trkpt lat="45.14802" lon="5.12265">
        <ele>398.27</ele>
        <time>2017-06-20T18:29:13.999Z</time>
      </trkpt>
      <trkpt lat="45.14792" lon="5.12269">
        <ele>397.9</ele>
        <time>2017-06-20T18:29:14.999Z</time>
      </trkpt>
      <trkpt lat="45.14783" lon="5.12273">
        <ele>397.42</ele>
        <time>2017-06-20T18:29:15.999Z</time>
      </trkpt>
      <trkpt lat="45.14773" lon="5.12277">
        <ele>397.27</ele>
        <time>2017-06-20T18:29:16.999Z</time>
      </trkpt>
      <trkpt lat="45.14764" lon="5.12281">
        <ele>396.46</ele>
        <time>2017-06-20T18:29:17.999Z</time>
      </trkpt>
      <trkpt lat="45.14748" lon="5.12287">
        <ele>393.65</ele>
        <time>2017-06-20T18:29:19.999Z</time>
      </trkpt>
      <trkpt lat="45.14731" lon="5.12293">
        <ele>391.79</ele>
        <time>2017-06-20T18:29:21.999Z</time>
      </trkpt>
      <trkpt lat="45.14715" lon="5.12297">
        <ele>391.91</ele>
        <time>2017-06-20T18:29:23.999Z</time>
      </trkpt>
      <trkpt lat="45.14699" lon="5.12301">
        <ele>392.18</ele>
        <time>2017-06-20T18:29:25.999Z</time>
      </trkpt>
      <trkpt lat="45.14683" lon="5.12302">
        <ele>391.96</ele>
        <time>2017-06-20T18:29:27.999Z</time>
      </trkpt>
      <trkpt lat="45.14666" lon="5.12303">
        <ele>391.74</ele>
        <time>2017-06-20T18:29:29.999Z</time>
      </trkpt>
      <trkpt lat="45.1465" lon="5.12304">
        <ele>391.5</ele>
        <time>2017-06-20T18:29:31.999Z</time>
      </trkpt>
      <trkpt lat="45.14638" lon="5.12302">
        <ele>391.19</ele>
        <time>2017-06-20T18:29:33.999Z</time>
      </trkpt>
      <trkpt lat="45.14627" lon="5.12296">
        <ele>390.57</ele>
        <time>2017-06-20T18:29:35.999Z</time>
      </trkpt>
      <trkpt lat="45.14616" lon="5.12289">
        <ele>389.96</ele>
        <time>2017-06-20T18:29:37.999Z</time>
      </trkpt>
      <trkpt lat="45.14607" lon="5.12286">
        <ele>389.57</ele>
        <time>2017-06-20T18:29:39.999Z</time>
      </trkpt>
      <trkpt lat="45.14593" lon="5.12283">
        <ele>389.62</ele>
        <time>2017-06-20T18:29:42.999Z</time>
      </trkpt>
      <trkpt lat="45.14582" lon="5.12275">
        <ele>392.02</ele>
        <time>2017-06-20T18:29:45.999Z</time>
      </trkpt>
      <trkpt lat="45.14573" lon="5.12267">
        <ele>392.61</ele>
        <time>2017-06-20T18:29:47.999Z</time>
      </trkpt>
      <trkpt lat="45.14564" lon="5.1226">
        <ele>393.24</ele>
        <time>2017-06-20T18:29:49.999Z</time>
      </trkpt>
      <trkpt lat="45.14555" lon="5.12253">
        <ele>392.68</ele>
        <time>2017-06-20T18:29:51.999Z</time>
      </trkpt>
      <trkpt lat="45.14547" lon="5.12245">
        <ele>391.67</ele>
        <time>2017-06-20T18:29:53.999Z</time>
      </trkpt>
      <trkpt lat="45.14537" lon="5.12233">
        <ele>390.76</ele>
        <time>2017-06-20T18:29:56.999Z</time>
      </trkpt>
      <trkpt lat="45.14526" lon="5.1222">
        <ele>391.63</ele>
        <time>2017-06-20T18:29:59.999Z</time>
      </trkpt>
      <trkpt lat="45.14519" lon="5.12213">
        <ele>391.96</ele>
        <time>2017-06-20T18:30:01.999Z</time>
      </trkpt>
      <trkpt lat="45.1451" lon="5.12202">
        <ele>391.93</ele>
        <time>2017-06-20T18:30:04.999Z</time>
      </trkpt>
      <trkpt lat="45.14505" lon="5.1219">
        <ele>393.01</ele>
        <time>2017-06-20T18:30:07.999Z</time>
      </trkpt>
    </trkseg>
  </trk>
</gpx>